[[{"header":{"parameterUnit":"m.s-1","parameterCategory":1,"la1":30.6,"la2":28.766,"lo1":-90.7593,"lo2":-88.6598,"dy":0.0162,"dx":0.0183,"nx":116,"ny":114,"refTime":"2023-11-19T18:00:00:Z","depth":0,"parameterNumber":2,"parameterNumberName":"U-component_of_WINDS"},"data":[0.0,0.0,0.0,0.0,0.0,0.0,0.0,0.0,0.0,0.0,0.0,0.0,0.0,0.0,0.0,0.0,0.0,0.0,0.0,0.0,0.0,0.0,0.0,0.0,0.0,0.0,0.0,0.0,0.0,0.0,0.0,0.0,0.0,0.0,0.0,0.0,0.0,0.0,0.0,0.0,0.0,0.0,0.0,0.0,0.0,0.0,0.0,0.0,0.0,0.0,0.0,0.0,0.0,0.0,0.0,0.0,0.0,0.0,0.0,0.0,0.0,0.0,0.0,0.0,0.0,0.0,0.0,0.0,0.0,0.0,0.0,0.0,0.0,0.0,0.0,0.0,0.0,0.0,0.0,0.0,0.0,0.0,0.0,0.0,0.0,0.0,0.0,0.0,0.0,0.0,0.0,0.0,0.0,0.0,0.0,0.0,0.0,0.0,0.0,0.0,0.0,0.0,0.0,0.0,0.0,0.0,0.0,0.0,0.0,0.0,0.0,0.0,0.0,0.0,0.0,0.0,0.0,0.0,0.0,0.0,0.0,0.0,0.0,0.0,0.0,0.0,0.0,0.0,0.0,0.0,0.0,0.0,0.0,0.0,0.0,0.0,0.0,0.0,0.0,0.0,0.0,0.0,0.0,0.0,0.0,0.0,0.0,0.0,0.0,0.0,0.0,0.0,0.0,0.0,0.0,0.0,0.0,0.0,0.0,0.0,0.0,0.0,0.0,0.0,0.0,0.0,0.0,0.0,0.0,0.0,0.0,0.0,0.0,0.0,0.0,0.0,0.0,0.0,0.0,0.0,0.0,0.0,0.0,0.0,0.0,0.0,0.0,0.0,0.0,0.0,0.0,0.0,0.0,0.0,0.0,0.0,0.0,0.0,0.0,0.0,0.0,0.0,0.0,0.0,0.0,0.0,0.0,0.0,0.0,0.0,0.0,0.0,0.0,0.0,0.0,0.0,0.0,0.0,0.0,0.0,0.0,0.0,0.0,0.0,0.0,0.0,0.0,0.0,0.0,0.0,0.0,0.0,0.0,0.0,0.0,0.0,0.0,0.0,0.0,0.0,0.0,0.0,0.0,0.0,0.0,0.0,0.0,0.0,0.0,0.0,0.0,0.0,0.0,0.0,0.0,0.0,0.0,0.0,0.0,0.0,0.0,0.0,0.0,0.0,0.0,0.0,0.0,0.0,0.0,0.0,0.0,0.0,0.0,0.0,0.0,0.0,0.0,0.0,0.0,0.0,0.0,0.0,0.0,0.0,0.0,0.0,0.0,0.0,0.0,0.0,0.0,0.0,0.0,0.0,0.0,0.0,0.0,0.0,0.0,0.0,0.0,0.0,0.0,0.0,0.0,0.0,0.0,0.0,0.0,0.0,0.0,0.0,0.0,0.0,0.0,0.0,0.0,0.0,0.0,0.0,0.0,0.0,0.0,0.0,0.0,0.0,0.0,0.0,0.0,0.0,0.0,0.0,0.0,0.0,0.0,0.0,0.0,0.0,0.0,0.0,0.0,0.0,0.0,0.0,0.0,0.0,0.0,0.0,0.0,0.0,0.0,0.0,0.0,0.0,0.0,0.0,0.0,0.0,0.0,0.0,0.0,0.0,0.0,0.0,0.0,0.0,0.0,0.0,0.0,0.0,0.0,0.0,0.0,0.0,0.0,0.0,0.0,0.0,0.0,0.0,0.0,0.0,0.0,0.0,0.0,0.0,0.0,0.0,0.0,0.0,0.0,0.0,0.0,0.0,0.0,0.0,0.0,0.0,0.0,0.0,0.0,0.0,0.0,0.0,0.0,0.0,0.0,0.0,0.0,0.0,0.0,0.0,0.0,0.0,0.0,0.0,0.0,0.0,0.0,0.0,0.0,0.0,0.0,0.0,0.0,0.0,0.0,0.0,0.0,0.0,0.0,0.0,0.0,0.0,0.0,0.0,0.0,0.0,0.0,0.0,0.0,0.0,0.0,0.0,0.0,0.0,0.0,0.0,0.0,0.0,0.0,0.0,0.0,0.0,0.0,0.0,0.0,0.0,0.0,0.0,0.0,0.0,0.0,0.0,0.0,0.0,0.0,0.0,0.0,0.0,0.0,0.0,0.0,0.0,0.0,0.0,0.0,0.0,0.0,0.0,0.0,0.0,0.0,0.0,0.0,0.0,0.0,0.0,0.0,0.0,0.0,0.0,0.0,0.0,0.0,0.0,0.0,0.0,0.0,0.0,0.0,0.0,0.0,0.0,0.0,0.0,0.0,0.0,0.0,0.0,0.0,0.0,0.0,0.0,0.0,0.0,0.0,0.0,0.0,0.0,0.0,0.0,0.0,0.0,0.0,0.0,0.0,0.0,0.0,0.0,0.0,0.0,0.0,0.0,0.0,0.0,0.0,0.0,0.0,0.0,0.0,0.0,0.0,0.0,0.0,0.0,0.0,0.0,0.0,0.0,0.0,0.0,0.0,0.0,0.0,0.0,0.0,0.0,0.0,0.0,0.0,0.0,0.0,0.0,0.0,0.0,0.0,0.0,0.0,0.0,0.0,0.0,0.0,0.0,0.0,0.0,0.0,0.0,0.0,0.0,0.0,0.0,0.0,0.0,0.0,0.0,0.0,0.0,0.0,0.0,0.0,0.0,0.0,0.0,0.0,0.0,0.0,0.0,0.0,0.0,0.0,0.0,0.0,0.0,0.0,0.0,0.0,0.0,0.0,0.0,0.0,0.0,0.0,0.0,0.0,0.0,0.0,0.0,0.0,0.0,0.0,0.0,0.0,0.0,0.0,0.0,0.0,0.0,0.0,0.0,0.0,0.0,0.0,0.0,0.0,0.0,0.0,0.0,0.0,0.0,0.0,0.0,0.0,0.0,0.0,0.0,0.0,0.0,0.0,0.0,0.0,0.0,0.0,0.0,0.0,0.0,0.0,0.0,0.0,0.0,0.0,0.0,0.0,0.0,0.0,0.0,0.0,0.0,0.0,0.0,0.0,0.0,0.0,0.0,0.0,0.0,0.0,0.0,0.0,0.0,0.0,0.0,0.0,0.0,0.0,0.0,0.0,0.0,0.0,0.0,0.0,0.0,0.0,0.0,0.0,0.0,0.0,0.0,0.0,0.0,0.0,0.0,0.0,0.0,0.0,0.0,0.0,0.0,0.0,0.0,0.0,0.0,0.0,0.0,0.0,0.0,0.0,0.0,0.0,0.0,0.0,0.0,0.0,0.0,0.0,0.0,0.0,0.0,0.0,0.0,0.0,0.0,0.0,0.0,0.0,0.0,0.0,0.0,0.0,0.0,0.0,0.0,0.0,0.0,0.0,0.0,0.0,0.0,0.0,0.0,0.0,0.0,0.0,0.0,0.0,0.0,0.0,0.0,0.0,0.0,0.0,0.0,0.0,0.0,0.0,0.0,0.0,0.0,0.0,0.0,0.0,0.0,0.0,0.0,0.0,0.0,0.0,0.0,0.0,0.0,0.0,0.0,0.0,0.0,0.0,0.0,0.0,0.0,0.0,0.0,0.0,0.0,0.0,0.0,0.0,0.0,0.0,0.0,0.0,0.0,0.0,0.0,0.0,0.0,0.0,0.0,0.0,0.0,0.0,0.0,0.0,0.0,0.0,0.0,0.0,0.0,0.0,0.0,0.0,0.0,0.0,0.0,0.0,0.0,0.0,0.0,0.0,0.0,0.0,0.0,0.0,0.0,0.0,0.0,0.0,0.0,0.0,0.0,0.0,0.0,0.0,0.0,0.0,0.0,0.0,0.0,0.0,0.0,0.0,0.0,0.0,0.0,0.0,0.0,0.0,0.0,0.0,0.0,0.0,0.0,0.0,0.0,0.0,0.0,0.0,0.0,0.0,0.0,0.0,0.0,0.0,0.0,0.0,0.0,0.0,0.0,0.0,0.0,0.0,0.0,0.0,0.0,0.0,0.0,0.0,0.0,0.0,0.0,0.0,0.0,0.0,0.0,0.0,0.0,0.0,0.0,0.0,0.0,0.0,0.0,0.0,0.0,0.0,0.0,0.0,0.0,0.0,0.0,0.0,0.0,0.0,0.0,0.0,0.0,0.0,0.0,0.0,0.0,0.0,0.0,0.0,0.0,0.0,0.0,0.0,0.0,0.0,0.0,0.0,0.0,0.0,0.0,0.0,0.0,0.0,0.0,0.0,0.0,0.0,0.0,0.0,0.0,0.0,0.0,0.0,0.0,0.0,0.0,0.0,0.0,0.0,0.0,0.0,0.0,0.0,0.0,0.0,0.0,0.0,0.0,0.0,0.0,0.0,0.0,0.0,0.0,0.0,0.0,0.0,0.0,0.0,0.0,0.0,0.0,0.0,0.0,0.0,0.0,0.0,0.0,0.0,0.0,0.0,0.0,0.0,0.0,0.0,0.0,0.0,0.0,0.0,0.0,0.0,0.0,0.0,0.0,0.0,0.0,0.0,0.0,0.0,0.0,0.0,0.0,0.0,0.0,0.0,0.0,0.0,0.0,0.0,0.0,0.0,0.0,0.0,0.0,0.0,0.0,0.0,0.0,0.0,0.0,0.0,0.0,0.0,0.0,0.0,0.0,0.0,0.0,0.0,0.0,0.0,0.0,0.0,0.0,0.0,0.0,0.0,0.0,0.0,0.0,0.0,0.0,0.0,0.0,0.0,0.0,0.0,0.0,0.0,0.0,0.0,0.0,0.0,0.0,0.0,0.0,0.0,0.0,0.0,0.0,0.0,0.0,0.0,0.0,0.0,0.0,0.0,0.0,0.0,0.0,0.0,0.0,0.0,0.0,0.0,0.0,0.0,0.0,0.0,0.0,0.0,0.0,0.0,0.0,0.0,0.0,0.0,0.0,0.0,0.0,0.0,0.0,0.0,0.0,0.0,0.0,0.0,0.0,0.0,0.0,0.0,0.0,0.0,0.0,0.0,0.0,0.0,0.0,0.0,0.0,0.0,0.0,0.0,0.0,0.0,0.0,0.0,0.0,0.0,0.0,0.0,0.0,0.0,0.0,0.0,0.0,0.0,0.0,0.0,0.0,0.0,0.0,0.0,0.0,0.0,0.0,0.0,0.0,0.0,0.0,0.0,0.0,0.0,0.0,0.0,0.0,0.0,0.0,0.0,0.0,0.0,0.0,0.0,0.0,0.0,0.0,0.0,0.0,0.0,0.0,0.0,0.0,0.0,0.0,0.0,0.0,0.0,0.0,0.0,0.0,0.0,0.0,0.0,0.0,0.0,0.0,0.0,0.0,0.0,0.0,0.0,0.0,0.0,0.0,0.0,0.0,0.0,0.0,0.0,0.0,0.0,0.0,0.0,0.0,0.0,0.0,0.0,0.0,0.0,0.0,0.0,0.0,0.0,0.0,0.0,0.0,0.0,0.0,0.0,0.0,0.0,0.0,0.0,0.0,0.0,0.0,0.0,0.0,0.0,0.0,0.0,0.0,0.0,0.0,0.0,0.0,0.0,0.0,0.0,0.0,0.0,0.0,0.0,0.0,0.0,0.0,0.0,0.0,0.0,0.0,0.0,0.0,0.0,0.0,0.0,0.0,0.0,0.0,0.0,0.0,0.0,0.0,0.0,0.0,0.0,0.0,0.0,0.0,0.0,0.0,0.0,0.0,0.0,0.0,0.0,0.0,0.0,0.0,0.0,0.0,0.0,0.0,0.0,0.0,0.0,0.0,0.0,0.0,0.0,0.0,0.0,0.0,0.0,0.0,0.0,0.0,0.0,0.0,0.0,0.0,0.0,0.0,0.0,0.0,0.0,0.0,0.0,0.0,0.0,0.0,0.0,0.0,0.0,0.0,0.0,0.0,0.0,0.0,0.0,0.0,0.0,0.0,0.0,0.0,0.0,0.0,0.0,0.0,0.0,0.0,0.0,0.0,0.0,0.0,0.0,0.0,0.0,0.0,0.0,0.0,0.0,0.0,0.0,0.0,0.0,0.0,0.0,0.0,0.0,0.0,0.0,0.0,0.0,0.0,0.0,0.0,0.0,0.0,0.0,0.0,0.0,0.0,0.0,0.0,0.0,0.0,0.0,0.0,0.0,0.0,0.0,0.0,0.0,0.0,0.0,0.0,0.0,0.0,0.0,0.0,0.0,0.0,0.0,0.0,0.0,0.0,0.0,0.0,3.5077,0.0,0.0,0.0,0.0,0.0,0.0,0.0,0.0,0.0,0.0,0.0,0.0,0.0,0.0,0.0,0.0,0.0,0.0,0.0,0.0,0.0,0.0,0.0,0.0,0.0,0.0,0.0,0.0,0.0,0.0,0.0,0.0,0.0,0.0,0.0,0.0,0.0,2.8565,2.9119,0.0,0.0,0.0,0.0,0.0,0.0,0.0,0.0,0.0,0.0,0.0,0.0,0.0,0.0,0.0,0.0,0.0,0.0,0.0,0.0,0.0,0.0,0.0,0.0,0.0,0.0,0.0,0.0,0.0,0.0,0.0,0.0,0.0,0.0,0.0,0.0,0.0,0.0,0.0,0.0,0.0,0.0,0.0,0.0,0.0,0.0,0.0,0.0,0.0,0.0,0.0,0.0,0.0,0.0,0.0,0.0,0.0,0.0,0.0,0.0,0.0,0.0,0.0,0.0,0.0,0.0,0.0,0.0,0.0,0.0,0.0,0.0,0.0,0.0,0.0,0.0,0.0,3.6112,0.0,0.0,0.0,0.0,0.0,0.0,0.0,0.0,0.0,0.0,0.0,0.0,0.0,0.0,0.0,0.0,0.0,0.0,0.0,0.0,0.0,0.0,0.0,2.673,2.7531,2.8278,2.8793,2.903,2.8912,2.8718,2.856,2.8492,2.851,2.8529,2.8597,2.8449,2.8648,2.9153,0.0,0.0,0.0,0.0,0.0,0.0,0.0,0.0,0.0,0.0,0.0,0.0,0.0,0.0,0.0,0.0,0.0,0.0,0.0,0.0,0.0,0.0,0.0,0.0,0.0,0.0,0.0,0.0,0.0,0.0,0.0,0.0,0.0,0.0,0.0,0.0,0.0,0.0,0.0,0.0,0.0,0.0,0.0,0.0,0.0,0.0,0.0,0.0,0.0,0.0,0.0,0.0,0.0,0.0,0.0,0.0,0.0,0.0,0.0,0.0,0.0,0.0,0.0,0.0,0.0,0.0,0.0,0.0,0.0,0.0,3.7354,3.7423,3.7705,3.7585,3.7692,3.7961,3.8125,3.7782,3.711,3.711,0.0,0.0,0.0,0.0,0.0,0.0,0.0,0.0,0.0,0.0,0.0,0.0,0.0,0.0,0.0,0.0,0.0,0.0,0.0,0.0,0.0,2.7643,2.8331,2.8855,2.9169,2.9115,2.8603,2.8809,2.8791,2.8504,2.851,2.864,2.8927,2.9297,2.9718,3.0203,0.0,0.0,3.1403,3.1643,3.1749,3.1767,0.0,0.0,0.0,0.0,0.0,0.0,0.0,0.0,0.0,0.0,0.0,0.0,0.0,0.0,0.0,0.0,0.0,0.0,0.0,0.0,0.0,0.0,0.0,0.0,0.0,0.0,0.0,0.0,0.0,0.0,0.0,0.0,0.0,0.0,0.0,0.0,0.0,0.0,0.0,0.0,0.0,0.0,0.0,0.0,3.2374,3.2421,0.0,0.0,0.0,0.0,0.0,0.0,0.0,0.0,0.0,0.0,0.0,0.0,0.0,3.7019,3.7013,3.7176,3.7214,3.7177,3.7206,3.7938,3.9294,3.9282,4.0034,4.1366,4.138,0.0,3.711,3.711,0.0,0.0,0.0,0.0,0.0,0.0,0.0,0.0,0.0,0.0,0.0,0.0,0.0,0.0,0.0,0.0,0.0,0.0,0.0,0.0,0.0,2.7755,2.8517,2.9161,2.9198,2.9064,2.8809,2.8743,2.8743,2.8773,2.8591,2.8858,2.9599,2.9674,3.0279,3.1474,3.1911,3.234,3.2749,3.287,3.3049,3.328,3.3398,3.2911,3.1971,3.1554,0.0,0.0,0.0,0.0,0.0,0.0,0.0,0.0,0.0,0.0,0.0,0.0,0.0,0.0,0.0,0.0,0.0,0.0,0.0,0.0,0.0,0.0,0.0,0.0,0.0,0.0,0.0,0.0,0.0,0.0,0.0,0.0,0.0,0.0,0.0,0.0,0.0,0.0,0.0,3.2397,3.3052,3.2949,3.3441,3.3762,0.0,0.0,0.0,0.0,0.0,0.0,0.0,0.0,0.0,3.6747,3.7881,3.85,3.85,3.9438,3.9883,3.9852,3.9883,4.0278,4.0947,4.0947,4.1335,4.2004,4.2004,4.1179,3.9815,3.937,3.8907,3.8462,0.0,0.0,0.0,0.0,3.6937,3.672,0.0,0.0,0.0,0.0,0.0,0.0,0.0,0.0,0.0,0.0,0.0,0.0,2.6944,2.7904,2.8716,2.9249,2.9123,2.895,2.8886,2.864,2.8615,2.8856,2.8846,2.9233,3.0088,3.0339,3.1199,3.2682,3.287,3.3265,3.3807,3.3862,3.4049,3.4292,3.4491,3.3984,3.2896,3.222,3.1874,0.0,0.0,0.0,0.0,0.0,0.0,0.0,0.0,0.0,0.0,0.0,0.0,0.0,0.0,0.0,0.0,0.0,0.0,0.0,0.0,0.0,0.0,0.0,0.0,0.0,0.0,0.0,0.0,0.0,0.0,0.0,0.0,0.0,0.0,0.0,0.0,0.0,0.0,3.2973,3.3664,3.3564,3.4528,3.5127,0.0,0.0,0.0,0.0,0.0,0.0,3.6562,3.731,3.7836,3.8066,3.947,4.0203,4.0203,4.141,4.2004,4.2004,4.2004,4.2117,4.2323,4.2323,4.2436,4.2643,4.2643,4.2643,4.2567,4.1523,4.0741,4.0146,3.9496,3.8882,3.8344,3.8344,3.809,3.7748,0.0,0.0,0.0,0.0,0.0,0.0,0.0,0.0,0.0,0.0,0.0,2.7026,2.7005,2.8402,2.9249,2.9043,2.9003,2.8856,2.8547,2.8516,2.8516,2.8529,2.9303,2.9852,3.0088,3.1715,3.2947,3.372,3.3733,3.3752,3.3814,3.4061,3.4298,3.4497,3.4763,3.4391,3.3557,3.365,3.3242,3.2446,0.0,0.0,0.0,0.0,0.0,0.0,0.0,0.0,0.0,0.0,0.0,0.0,0.0,0.0,0.0,0.0,0.0,0.0,0.0,0.0,0.0,0.0,0.0,0.0,0.0,0.0,0.0,0.0,0.0,0.0,0.0,0.0,0.0,0.0,0.0,0.0,0.0,0.0,0.0,3.4526,3.5369,0.0,0.0,0.0,0.0,3.6979,3.7022,3.7438,3.832,3.9061,3.9858,4.0683,4.1462,4.1873,4.1873,4.1967,4.2004,4.2004,4.2004,4.2424,4.3226,4.3226,4.3651,4.4376,4.4376,4.4376,4.4238,4.2605,4.1929,4.1873,4.1835,4.1798,4.1742,4.1742,4.1576,4.1335,0.0,0.0,0.0,0.0,0.0,0.0,0.0,0.0,2.4869,2.5342,2.6351,2.72,2.766,2.8716,2.9291,2.902,2.8997,2.8856,2.8522,2.9036,2.9409,2.9594,3.0355,3.1076,3.1764,3.2893,3.3586,3.3807,3.3807,3.3807,3.3795,3.3895,3.4068,3.4302,3.4509,3.449,3.4282,3.3894,3.3609,3.3282,3.224,3.1841,0.0,0.0,0.0,0.0,0.0,0.0,0.0,0.0,0.0,0.0,0.0,0.0,0.0,0.0,0.0,0.0,0.0,0.0,0.0,0.0,0.0,0.0,0.0,0.0,0.0,0.0,0.0,0.0,0.0,0.0,0.0,0.0,0.0,0.0,0.0,0.0,0.0,3.5162,3.613,0.0,3.6703,3.6989,3.7147,3.7097,3.8133,3.889,3.9199,4.0447,4.1298,4.1593,4.2406,4.2844,4.2844,4.3344,4.36,4.36,4.36,4.3769,4.4076,4.4076,4.4226,4.4501,4.4501,4.4404,4.4199,4.3594,4.3156,4.2781,4.2211,4.1899,4.1731,4.1731,4.1486,4.1151,0.0,0.0,0.0,0.0,0.0,0.0,0.0,0.0,2.5666,2.617,2.6912,2.7544,2.7921,2.8749,2.9189,2.9014,2.8898,2.8846,2.8908,2.9561,3.0074,3.0417,3.1323,3.2212,3.3116,3.3624,3.3835,3.3807,3.3807,3.3807,3.3795,3.3888,3.408,3.4315,3.448,3.4675,3.4803,3.4306,3.4111,3.4049,3.3062,3.2669,3.2575,0.0,0.0,0.0,0.0,0.0,0.0,0.0,0.0,0.0,0.0,0.0,0.0,0.0,0.0,0.0,0.0,0.0,0.0,0.0,0.0,0.0,0.0,0.0,0.0,0.0,0.0,0.0,0.0,0.0,0.0,0.0,0.0,0.0,0.0,0.0,3.5355,3.5666,3.6745,3.7556,3.7797,3.8186,3.8515,3.8738,3.9813,4.0578,4.0829,4.1867,4.2555,4.283,4.34,4.3707,4.3707,4.4226,4.4501,4.4501,4.4501,4.4501,4.4501,4.4411,4.4376,4.4368,4.427,4.4124,4.396,4.396,4.3762,4.3381,4.2807,4.2463,4.2303,4.2303,4.2047,4.1659,0.0,0.0,0.0,0.0,0.0,0.0,0.0,2.704,2.7032,2.7102,2.7755,2.8079,2.7778,2.8496,2.9003,2.8997,2.8694,2.8854,2.9661,3.0039,3.046,3.0976,3.2173,3.3204,3.3979,3.3862,3.3795,3.3807,3.3807,3.3807,3.3814,3.4068,3.4285,3.4502,3.4758,3.4945,3.507,3.4941,3.4845,3.4703,3.3799,3.3432,3.3338,0.0,0.0,0.0,0.0,0.0,0.0,0.0,0.0,0.0,0.0,0.0,0.0,0.0,0.0,0.0,0.0,0.0,0.0,0.0,0.0,0.0,0.0,0.0,0.0,0.0,0.0,0.0,0.0,0.0,0.0,0.0,0.0,0.0,3.473,3.4889,3.5275,3.6054,3.7278,3.8371,3.9153,4.0186,4.1147,4.1928,4.1997,4.2385,4.325,4.3306,4.37,4.4489,4.4501,4.4494,4.4545,4.4538,4.4531,4.4583,4.4583,4.4583,4.4569,4.4322,4.4199,4.4184,4.3899,4.3777,4.3769,4.3761,4.3734,4.3707,4.3705,4.3695,4.3687,4.3687,4.3519,4.314,0.0,0.0,0.0,0.0,0.0,0.0,2.71,2.7073,2.7196,2.7557,2.7911,2.8266,2.8597,2.9025,2.9205,2.9014,2.8915,2.9204,3.0009,3.0693,3.1679,3.3082,3.353,3.3783,3.3855,3.3862,3.3842,3.3807,3.3807,3.3807,3.3807,3.3875,3.3998,3.4136,3.4315,3.4476,3.461,3.4658,3.4663,3.4631,3.4374,3.4264,3.417,0.0,0.0,0.0,0.0,0.0,0.0,0.0,0.0,0.0,0.0,0.0,0.0,0.0,0.0,0.0,0.0,0.0,0.0,0.0,0.0,0.0,0.0,0.0,0.0,0.0,0.0,0.0,0.0,0.0,0.0,0.0,0.0,3.553,3.5684,3.6241,3.6784,3.7132,3.8578,3.9604,3.9834,4.0589,4.1182,4.1404,4.2005,4.2552,4.299,4.3565,4.4075,4.4482,4.4314,4.4587,4.5359,4.5185,4.5485,4.631,4.631,4.631,4.631,4.6244,4.6203,4.6188,4.586,4.5616,4.5422,4.524,4.4684,4.3962,4.3784,4.3579,4.3408,4.3408,4.3241,4.2968,0.0,0.0,0.0,0.0,0.0,0.0,2.8157,2.7992,2.8032,2.846,2.8498,2.8613,2.8959,2.9139,2.9167,2.9009,2.8997,2.9469,3.0583,3.1739,3.2862,3.3999,3.403,3.3959,3.3835,3.3848,3.3835,3.3807,3.3451,3.3311,3.3293,3.3067,3.3025,3.3133,3.3672,3.3952,3.4049,3.4499,3.465,3.4607,3.4607,3.4607,3.4551,3.4076,3.3907,3.3832,3.3325,3.2931,3.2649,3.2649,0.0,0.0,0.0,0.0,0.0,0.0,0.0,0.0,0.0,0.0,0.0,0.0,0.0,0.0,0.0,0.0,0.0,0.0,0.0,0.0,0.0,0.0,0.0,0.0,3.6014,3.6574,3.7374,3.7595,3.7841,3.8295,3.9588,4.057,4.0917,4.1428,4.187,4.2221,4.282,4.3242,4.3379,4.3957,4.4485,4.4996,4.4855,4.5241,4.6235,4.6083,4.6274,4.6798,4.6798,4.6718,4.6627,4.6522,4.6455,4.6438,4.6131,4.5901,4.5755,4.5604,4.5176,0.0,0.0,0.0,0.0,0.0,4.2985,4.2796,0.0,0.0,0.0,0.0,0.0,0.0,2.954,2.9275,2.9137,2.9389,2.9209,2.9026,2.9003,2.9026,2.9055,2.9055,2.9135,2.9834,3.1384,3.2911,3.386,3.408,3.3966,3.3895,3.3888,3.3822,3.3807,3.3807,3.3084,3.2729,3.2717,3.2248,3.208,3.22,3.3154,3.3603,3.3669,3.4452,3.4721,3.4607,3.4607,3.4607,3.4607,3.4607,3.4607,3.4607,3.4607,3.4132,3.3545,3.3545,0.0,0.0,0.0,0.0,0.0,0.0,0.0,0.0,0.0,0.0,0.0,0.0,0.0,0.0,0.0,0.0,0.0,0.0,0.0,0.0,0.0,0.0,0.0,0.0,3.7158,3.7774,3.9197,3.8943,3.8834,3.9441,4.0384,4.1277,4.1979,4.2356,4.2849,4.3557,4.3833,4.3983,4.4006,0.0,0.0,0.0,0.0,4.6132,4.7035,4.7005,4.6897,4.6735,4.6735,4.6603,4.6364,4.6131,4.6029,4.601,4.5751,4.5622,4.5612,4.5582,4.5454,4.5218,4.4403,4.3616,4.291,4.2863,4.2757,4.2629,0.0,0.0,0.0,0.0,0.0,0.0,2.923,2.9309,2.9288,2.8987,2.9171,2.9246,2.902,2.9189,2.932,2.932,2.9914,3.0965,3.2567,0.0,3.4023,3.4023,3.394,3.3868,3.3809,3.3814,3.3807,3.3807,3.3642,3.3568,3.3568,3.3462,3.3549,3.3756,3.3976,3.4177,3.4395,3.4564,3.4629,3.4607,3.4607,3.4607,3.4607,3.4607,3.4607,3.4607,3.4607,3.4494,3.4363,3.4363,3.4269,3.4119,3.4119,0.0,0.0,0.0,0.0,0.0,0.0,0.0,0.0,0.0,0.0,0.0,0.0,0.0,0.0,0.0,0.0,0.0,0.0,0.0,0.0,3.6977,3.81,3.9034,3.936,4.0347,4.0845,4.0356,4.1035,4.1606,4.176,4.2414,4.2896,4.3041,4.3096,4.3232,4.3451,4.4127,4.4671,4.5045,4.5472,4.6201,4.7241,4.7038,4.7352,4.8196,0.0,0.0,4.8107,4.8071,4.8043,4.8016,4.7705,4.7569,4.7549,4.7332,4.6457,4.5218,4.4403,4.3616,4.2873,4.2718,4.2621,4.2589,0.0,0.0,0.0,0.0,0.0,0.0,2.9262,2.9317,2.9293,2.9164,2.9185,2.9198,2.92,2.9315,2.9402,2.9402,3.0493,3.1719,0.0,3.3667,3.4036,3.3998,3.3901,3.3822,3.3807,3.3807,3.3807,3.3807,3.3396,3.3175,3.3141,3.2745,3.2634,3.2816,3.3222,3.3567,3.3883,3.4282,3.4506,3.4607,3.4607,3.4607,3.4607,3.4607,3.4607,3.4607,3.4607,3.4607,3.4607,3.4607,3.4607,3.4607,3.4607,3.4528,3.438,0.0,0.0,0.0,0.0,0.0,0.0,0.0,0.0,0.0,0.0,0.0,0.0,0.0,0.0,3.6091,0.0,0.0,3.82,3.82,3.9197,4.0093,4.0483,4.1198,4.1542,4.1144,4.1805,4.2303,4.2303,4.2656,4.2892,4.2892,4.3022,4.3333,4.387,4.4416,4.5126,4.6068,4.635,4.6976,4.795,4.7813,4.795,4.8345,4.8345,4.8288,4.8151,4.8151,4.8151,4.8141,4.7972,4.7901,4.788,4.76,4.6481,4.49,4.4505,4.3694,4.2738,4.2649,4.2442,4.2228,0.0,0.0,0.0,0.0,0.0,0.0,0.0,2.9307,2.9322,2.9453,2.9241,2.9155,2.9378,2.9407,2.9532,2.9848,3.105,3.2215,0.0,3.3735,3.4011,3.3998,3.3875,3.3802,3.3807,3.3807,3.3807,3.3807,3.314,3.2807,3.2715,3.2109,3.1855,3.1948,3.2636,3.3111,3.3426,3.4084,3.4456,3.4607,3.4607,3.4607,3.4607,3.4607,3.4607,3.4607,3.4607,3.4607,3.4607,3.4607,3.4607,3.4583,3.4545,3.4439,3.4251,3.4011,3.3834,0.0,0.0,0.0,0.0,0.0,0.0,0.0,0.0,0.0,3.5544,3.5544,3.6306,3.6987,3.6969,3.8409,3.9604,3.9604,4.0247,4.0963,4.1614,4.1841,4.1931,4.1931,4.2502,4.2892,4.2892,4.2892,4.2892,4.2892,4.3105,4.3561,4.4373,4.4783,4.5633,4.7095,4.7132,4.7482,4.8181,4.8043,4.7829,4.7569,4.7569,4.7428,4.7184,4.7184,4.7184,4.7184,4.7388,4.7471,4.7461,4.7353,4.6248,4.4661,4.4617,4.3706,4.2462,4.2462,4.221,4.1863,0.0,0.0,0.0,0.0,0.0,0.0,0.0,0.0,2.9506,2.9334,2.9343,2.9377,2.9397,2.9404,2.9978,3.1403,3.1701,0.0,3.3962,3.4074,3.4068,3.4004,3.3927,3.3855,3.3807,3.3807,3.3807,3.3807,3.3715,3.362,3.3577,3.3661,3.3727,3.3815,3.4084,3.4297,3.4443,3.4524,3.4591,3.4607,3.4607,3.4607,3.4607,3.4607,3.4607,3.4607,3.4607,3.4607,3.4607,3.4607,3.4607,3.4561,3.438,3.431,3.4227,3.386,0.0,3.3807,3.4322,3.4997,3.555,3.5649,3.5667,3.5683,0.0,0.0,3.6808,3.6808,3.7998,3.9056,3.9064,3.9777,4.0374,4.0374,4.1053,4.1596,4.1687,4.2321,4.2765,4.2765,4.2855,4.2892,4.2892,4.2892,4.2892,4.2892,4.2929,4.3301,4.4099,4.4854,4.5662,4.6569,4.6588,4.6642,4.6725,4.6035,4.5652,4.5612,4.5612,4.5512,4.5307,4.5307,4.5307,4.5353,4.6241,4.662,4.6664,4.7119,4.6374,4.4933,4.4682,4.3533,4.197,4.197,4.1956,4.182,0.0,0.0,0.0,0.0,0.0,0.0,0.0,0.0,0.0,2.9482,2.9463,2.9443,2.9407,2.9404,3.0052,3.1663,0.0,0.0,3.4092,3.4136,3.4068,3.3994,3.394,3.3865,3.3807,3.3807,3.3807,3.3807,3.3807,3.3753,3.3654,3.386,3.3914,3.3875,3.408,3.4263,3.4433,3.4433,3.4495,3.4607,3.4607,3.4607,3.4607,3.4607,3.4607,3.4607,3.4607,3.4607,0.0,0.0,3.4607,3.455,3.4354,3.4228,3.416,3.433,3.4331,0.0,3.5093,3.554,3.592,3.6381,3.6506,3.663,3.709,3.7249,3.7405,3.7843,3.8506,3.9124,3.9552,4.0264,4.0891,0.0,4.1636,4.2089,4.2356,4.2692,4.2892,4.2892,4.2892,4.2892,4.2892,4.2892,4.2892,4.2892,4.3326,4.396,4.4757,4.511,4.5671,4.6457,4.6051,4.5798,4.5798,4.5472,4.5291,4.5291,4.5291,4.519,4.5006,4.5006,4.4951,4.4843,4.5268,4.5362,4.5276,4.5922,4.5223,4.3751,4.4071,4.3175,4.174,4.187,4.1679,4.1312,0.0,0.0,0.0,0.0,0.0,0.0,0.0,0.0,0.0,0.0,2.9555,2.9468,2.9416,2.9399,3.0052,3.1663,0.0,0.0,0.0,3.416,3.4098,3.3993,3.396,3.389,3.3807,3.3807,3.3807,3.3807,3.3787,3.3712,3.3605,3.3793,3.3835,3.3793,3.3992,3.4191,3.4374,3.4374,3.4473,3.4607,3.4607,3.4607,3.4607,3.4607,3.4607,3.4607,3.4607,3.4607,0.0,0.0,3.4556,3.4478,3.4283,3.4227,3.4321,3.4717,3.5025,3.5385,3.5965,3.6282,3.6598,3.7194,3.723,3.7339,3.8127,3.7949,3.7839,3.86,3.8953,3.9294,3.9851,4.0692,4.1443,4.1782,4.2145,4.2508,4.2854,4.2892,4.2892,4.2892,4.2892,4.2892,4.2892,4.2892,4.2982,4.3218,4.3779,4.444,4.5254,4.5291,4.5562,4.616,4.5399,4.4935,4.4893,4.4658,4.453,4.447,4.447,4.4368,4.4144,4.4144,4.4067,4.3936,4.4232,4.4256,4.4134,4.4818,4.4222,4.2924,4.3279,4.2614,4.1442,4.1474,4.1283,4.0942,0.0,0.0,0.0,0.0,0.0,0.0,0.0,0.0,0.0,0.0,0.0,0.0,0.0,2.9402,3.0052,0.0,0.0,0.0,0.0,3.4203,3.4141,3.4018,3.4006,3.3934,3.3795,3.3807,3.3807,3.3807,3.3732,3.3664,3.3605,3.3739,3.3862,3.3998,3.4203,3.4392,3.4583,3.4583,3.4583,3.4607,3.4607,3.4607,3.4607,3.4607,3.4607,3.4607,3.4607,0.0,0.0,0.0,3.4473,3.4269,3.4074,3.4407,0.0,3.4664,3.5701,3.6922,3.6959,3.753,3.8128,3.8172,3.7814,3.7681,3.8415,3.829,3.8187,3.8927,3.9716,4.026,4.0271,4.1306,4.2168,4.2192,4.2583,4.2882,4.2892,4.2892,4.2892,4.2892,4.2892,4.2892,0.0,4.2892,4.3218,4.3996,4.4087,4.444,4.5254,4.5291,4.5309,4.5345,4.4548,4.4034,4.386,4.3059,4.2592,4.2389,4.2389,4.2248,4.1987,4.1987,4.1987,4.2041,4.3077,4.3521,4.3572,4.411,4.3833,4.3034,4.2469,4.1741,4.0977,4.0599,4.0671,4.0895,0.0,0.0,0.0,0.0,0.0,0.0,0.0,0.0,0.0,0.0,0.0,0.0,0.0,0.0,0.0,0.0,0.0,0.0,0.0,3.4161,3.4086,3.4006,3.3959,3.3879,3.3807,3.3807,3.3807,3.3807,3.3732,3.3664,3.3605,3.3739,3.3862,3.4011,3.4209,3.4403,3.4607,3.4607,3.4607,3.4607,3.4607,3.4607,3.4607,3.4607,3.4607,3.4607,0.0,0.0,0.0,0.0,3.4369,3.4327,3.4534,3.4743,3.506,3.5934,3.6951,3.7734,3.7414,3.7882,3.8483,3.8528,3.8544,3.8708,3.9262,3.8835,3.8534,3.9284,3.9684,4.0062,4.0528,4.0978,4.1383,4.1677,4.1614,4.162,4.1931,4.1965,4.2087,4.2398,4.2438,0.0,0.0,0.0,0.0,4.4033,4.4105,4.444,4.5254,4.4784,4.4494,4.4494,4.3579,4.3074,4.2995,4.2595,4.2369,4.2297,4.2114,4.1988,4.1902,4.1762,4.1697,4.1714,4.2077,4.2244,4.2286,4.3009,4.2681,4.1742,4.2066,4.154,4.0563,4.0204,4.0159,4.0234,0.0,0.0,0.0,0.0,0.0,0.0,0.0,0.0,0.0,0.0,0.0,0.0,0.0,0.0,0.0,0.0,0.0,0.0,0.0,0.0,3.4065,3.4007,3.394,3.3869,3.3807,3.3807,3.3807,3.3807,3.3712,3.3636,3.3605,3.3629,3.3787,3.4004,3.4136,3.434,3.4607,3.4607,3.4776,3.5039,3.4738,3.4795,3.5039,3.472,3.4607,0.0,0.0,0.0,0.0,3.4339,3.4445,3.4655,3.4849,3.525,3.5883,3.7072,3.7792,3.8204,3.8178,3.8391,3.8686,3.9011,3.8982,3.9034,3.9596,3.918,3.8887,3.9632,3.9817,4.0003,4.0455,4.0692,4.0901,4.1202,4.1143,4.1261,4.1811,4.1894,4.2108,4.2675,4.2743,4.3056,0.0,0.0,0.0,4.4448,4.4523,4.4632,4.4866,4.4316,4.3861,4.3572,4.2879,4.2452,4.2356,4.221,4.2114,4.2058,4.1723,4.1646,4.1784,4.1509,4.1386,4.1386,4.1386,4.1386,4.142,4.1945,4.169,4.1041,4.1401,4.1008,4.0175,3.982,3.9694,3.9694,0.0,0.0,0.0,0.0,0.0,0.0,0.0,0.0,0.0,0.0,0.0,0.0,0.0,0.0,0.0,0.0,0.0,0.0,0.0,0.0,0.0,3.4006,3.3937,3.3869,3.3807,3.3807,3.3807,3.3807,3.3664,3.3605,3.3598,3.3466,3.3601,3.3998,3.3998,3.4221,3.4607,3.4607,3.5071,3.5766,3.4926,3.5095,3.5747,3.4907,0.0,0.0,0.0,0.0,0.0,0.0,3.4759,3.525,3.508,3.5956,3.7219,3.8028,3.8255,3.8427,3.9181,3.9049,3.8876,3.9606,3.9183,3.8778,3.9511,3.9345,3.9257,3.9956,4.0096,4.0096,0.0,0.0,4.0768,4.0768,4.1171,4.173,4.2433,4.2556,4.2859,0.0,0.0,0.0,0.0,0.0,0.0,4.511,0.0,4.4824,4.4094,4.3852,4.3372,4.2607,4.2389,4.2151,4.1895,4.1881,4.1812,4.1663,4.1256,4.1284,4.1665,4.1273,4.107,4.107,4.1035,4.1018,4.1018,4.0977,4.0966,4.0907,4.0526,4.0162,3.9824,3.9445,3.9299,3.9299,0.0,0.0,0.0,0.0,0.0,0.0,0.0,0.0,0.0,0.0,0.0,0.0,0.0,0.0,0.0,0.0,0.0,0.0,0.0,0.0,0.0,0.0,0.0,0.0,0.0,0.0,0.0,0.0,0.0,3.3605,3.3598,3.3466,3.3601,3.3998,3.3998,3.4221,3.4607,3.4607,3.4738,3.4907,0.0,3.4738,3.4907,0.0,0.0,0.0,0.0,0.0,0.0,0.0,0.0,3.6526,3.6477,3.7121,3.8055,3.8864,3.909,3.9112,3.9216,3.9557,3.9845,3.9753,3.9702,3.9833,4.0374,4.015,3.9864,4.0066,4.0096,4.0096,0.0,0.0,0.0,4.0269,4.0849,0.0,4.1525,4.2027,0.0,4.3108,0.0,4.3352,4.3728,4.401,0.0,0.0,4.3544,4.31,4.3345,4.3073,4.2727,4.2389,4.2135,4.197,4.191,4.1744,4.1958,4.2488,4.2038,4.2191,4.2848,4.2402,4.2197,4.2163,4.161,4.1366,4.1331,4.0773,4.041,4.0159,4.0058,3.9794,3.9445,3.9339,3.9299,3.9299,0.0,0.0,0.0,0.0,0.0,0.0,0.0,0.0,0.0,0.0,0.0,0.0,0.0,0.0,0.0,0.0,0.0,0.0,0.0,0.0,0.0,0.0,0.0,0.0,0.0,0.0,0.0,0.0,0.0,0.0,0.0,3.3549,3.3698,3.4004,3.4093,3.4305,3.4607,0.0,0.0,0.0,0.0,0.0,0.0,0.0,0.0,0.0,0.0,0.0,0.0,0.0,0.0,3.7056,3.7425,3.8084,3.882,3.9276,3.9623,3.9941,4.0222,4.03,4.0337,4.0448,4.029,4.0171,4.0422,4.0291,4.0096,4.0096,4.0096,4.0096,4.0096,4.0096,0.0,0.0,0.0,0.0,4.207,4.2523,4.3003,0.0,4.361,0.0,4.3993,4.397,4.388,0.0,4.3385,4.3285,4.3432,4.2983,4.2679,4.2577,4.2322,4.2318,4.2519,4.2198,4.2363,4.3021,4.2354,4.2389,4.297,4.2206,4.1858,4.1807,0.0,4.0794,4.076,4.0349,4.007,3.9901,3.9901,3.9655,3.9299,3.9299,3.9299,3.9299,0.0,0.0,0.0,0.0,0.0,0.0,0.0,0.0,0.0,0.0,0.0,0.0,0.0,0.0,0.0,0.0,0.0,0.0,0.0,0.0,0.0,0.0,0.0,0.0,0.0,0.0,0.0,0.0,0.0,0.0,0.0,0.0,0.0,0.0,0.0,0.0,0.0,0.0,0.0,0.0,0.0,0.0,0.0,0.0,0.0,0.0,0.0,0.0,0.0,0.0,3.7357,3.7302,3.8109,3.8837,3.9431,3.966,4.0157,4.0808,4.1495,4.1079,4.06,4.1162,4.0701,4.0096,4.0096,4.0096,4.0083,4.0087,4.0083,4.0083,4.0087,4.0058,4.0312,4.1085,0.0,4.182,4.3189,4.349,4.3826,4.4516,4.444,4.4305,4.4187,4.3541,4.3121,4.309,4.3902,4.4173,4.3696,4.3185,4.2892,4.2848,4.2688,4.2804,4.32,4.2805,4.287,4.3355,4.2449,4.225,4.2639,4.1499,4.0963,4.0929,4.0264,3.9975,3.9958,3.9857,3.9824,3.9824,3.9824,3.9616,3.9299,3.9299,3.9299,3.9299,0.0,0.0,0.0,0.0,0.0,0.0,0.0,0.0,0.0,0.0,3.1042,0.0,0.0,0.0,0.0,0.0,0.0,0.0,0.0,0.0,0.0,0.0,0.0,0.0,0.0,0.0,0.0,0.0,0.0,0.0,0.0,0.0,0.0,0.0,0.0,0.0,0.0,0.0,0.0,0.0,0.0,0.0,0.0,0.0,0.0,0.0,0.0,0.0,0.0,0.0,3.8338,3.8129,3.8943,3.9295,3.9652,4.0935,4.1395,4.1507,4.1535,4.1424,4.1143,4.0501,4.0217,4.0096,4.0096,4.0096,0.0,0.0,4.0024,4.0075,3.9965,3.9922,4.0214,4.1059,4.1623,4.2274,4.326,4.3978,4.4432,0.0,4.457,4.4288,4.3618,4.3765,0.0,0.0,4.3664,4.338,4.2538,4.2744,4.2817,4.2666,4.2618,4.2633,4.2728,4.2649,4.2969,4.3703,4.2553,4.2385,4.306,4.1866,4.1324,4.1275,4.0591,0.0,4.0272,3.9671,3.9405,3.9405,3.9405,3.9365,3.9299,3.9299,3.9299,3.9299,0.0,0.0,0.0,0.0,0.0,0.0,0.0,0.0,0.0,0.0,3.2529,3.2357,0.0,0.0,0.0,0.0,0.0,0.0,0.0,0.0,0.0,0.0,0.0,0.0,0.0,0.0,0.0,0.0,0.0,0.0,0.0,0.0,0.0,0.0,0.0,0.0,0.0,0.0,0.0,0.0,0.0,0.0,0.0,0.0,0.0,0.0,0.0,0.0,0.0,0.0,3.8751,3.8887,3.9274,3.9962,4.0745,4.1485,4.2009,4.2257,4.1959,4.169,4.1338,4.0652,4.0279,4.0096,4.0096,0.0,0.0,0.0,3.9999,3.999,3.9914,4.022,0.0,4.1542,4.2217,4.2944,4.3754,4.4204,4.4412,4.4358,4.4272,4.4081,0.0,4.3781,4.3766,4.3608,4.3601,4.3523,4.3314,4.3264,4.3226,4.311,4.3118,4.3244,4.3477,4.2856,4.2867,4.3464,4.2255,4.1883,4.2231,4.1305,4.0878,4.0829,4.013,3.9829,3.9812,3.9448,3.9299,3.9299,3.9299,3.9299,3.9299,3.9299,3.9299,3.9299,0.0,0.0,0.0,0.0,0.0,0.0,0.0,3.2676,3.2977,3.3785,3.3897,3.3842,3.3607,3.3499,3.3678,0.0,0.0,0.0,0.0,0.0,0.0,0.0,0.0,0.0,0.0,0.0,0.0,3.3889,3.3773,0.0,0.0,0.0,0.0,0.0,3.4512,0.0,0.0,0.0,0.0,0.0,0.0,0.0,0.0,0.0,0.0,0.0,0.0,0.0,0.0,0.0,3.8995,3.9594,3.9624,4.0583,4.1727,4.19,4.2409,4.2783,4.22,4.1787,4.1364,4.0793,4.0377,4.0083,4.0058,3.999,0.0,4.0011,3.9922,3.9862,3.9862,4.0428,4.1171,0.0,4.2659,4.3401,4.4195,4.431,4.4253,0.0,4.4027,0.0,4.3956,4.3778,0.0,4.3658,4.3628,4.3759,4.4129,4.3807,4.3598,4.3598,4.3598,4.3708,4.3901,4.2974,4.2608,4.2805,4.171,4.1193,4.116,4.0478,4.0147,4.0144,3.9547,3.9299,3.9299,3.9299,3.9299,3.9299,3.9299,3.9299,3.9299,3.9299,3.9299,3.9272,0.0,0.0,0.0,0.0,0.0,0.0,0.0,3.4534,3.468,3.4775,3.4888,3.4929,3.4839,3.4665,3.456,0.0,0.0,0.0,0.0,0.0,0.0,0.0,0.0,0.0,0.0,0.0,0.0,3.4157,3.409,0.0,0.0,0.0,0.0,0.0,0.0,3.4607,3.4607,0.0,0.0,0.0,0.0,0.0,0.0,0.0,0.0,0.0,0.0,0.0,0.0,0.0,0.0,4.0233,4.0353,4.1003,4.1837,4.2573,0.0,0.0,4.1817,4.1527,4.1293,4.0391,4.0121,4.0075,3.9952,0.0,3.9875,3.9755,3.9729,3.9716,3.9716,4.0234,0.0,0.0,0.0,4.3175,4.4149,4.431,4.4253,4.4112,0.0,0.0,4.4083,4.3954,0.0,4.3868,4.3687,4.363,4.3646,4.363,4.3598,4.3598,4.3598,4.3297,4.2661,4.2551,4.2187,4.1564,4.084,4.0478,4.0462,3.973,3.9398,3.9398,3.9332,3.9299,0.0,3.9299,3.9299,3.9299,3.9299,3.9299,3.9299,3.9299,3.9299,3.9202,0.0,0.0,0.0,0.0,0.0,0.0,0.0,3.4767,3.4934,3.5012,3.5164,3.5254,3.5198,3.51,3.4996,0.0,0.0,0.0,0.0,0.0,0.0,0.0,0.0,0.0,0.0,0.0,0.0,3.3955,3.3969,0.0,0.0,0.0,0.0,0.0,0.0,3.4607,3.4607,0.0,0.0,0.0,0.0,0.0,0.0,0.0,0.0,0.0,0.0,0.0,3.8567,0.0,0.0,0.0,4.046,4.1374,0.0,0.0,4.2892,4.2702,4.1753,4.1497,4.1273,4.0332,4.0096,4.0058,3.9939,0.0,3.9862,3.9729,3.9703,3.9677,3.959,4.0508,0.0,0.0,0.0,0.0,4.3991,4.407,4.3981,4.382,4.385,0.0,0.0,0.0,4.3719,4.3719,4.3643,4.3598,4.3598,4.3598,4.3413,4.2945,4.2949,4.2587,4.1841,4.1442,4.1091,4.0793,4.0081,3.9746,3.973,3.9431,3.9299,3.9299,3.9299,3.9299,0.0,3.9299,3.9299,3.9299,3.9299,3.9299,3.9258,3.8857,3.8703,3.862,0.0,0.0,0.0,0.0,0.0,0.0,3.4607,3.4805,3.4983,3.5088,3.5335,3.5458,3.5392,3.5394,3.5293,3.5092,0.0,0.0,0.0,0.0,0.0,0.0,0.0,0.0,0.0,0.0,0.0,3.4017,3.4271,3.4408,0.0,0.0,3.4728,3.4607,0.0,0.0,0.0,0.0,0.0,0.0,0.0,0.0,0.0,0.0,0.0,0.0,0.0,0.0,0.0,0.0,0.0,0.0,0.0,0.0,0.0,0.0,4.2892,4.27,4.1744,4.1504,4.1268,4.0319,4.0096,4.0058,0.0,0.0,3.9807,3.9716,3.9638,3.9643,3.9798,4.0795,0.0,0.0,0.0,4.3822,4.3898,4.3898,4.3839,0.0,0.0,4.3658,0.0,4.3598,4.3598,4.3598,4.3598,4.3598,4.3598,4.3383,4.3048,4.2512,4.2286,4.1825,4.111,4.0644,4.0293,4.0078,3.9547,3.9299,3.9299,3.9299,3.9299,3.9299,3.9299,3.9299,0.0,3.9299,3.9299,3.9299,3.9299,3.9175,3.8955,3.8463,3.8179,3.7937,0.0,0.0,0.0,0.0,0.0,0.0,0.0,3.4873,3.5107,3.5089,3.5444,3.5665,3.5607,3.5607,3.5575,3.551,0.0,0.0,0.0,0.0,0.0,0.0,0.0,0.0,0.0,0.0,0.0,3.4494,3.5214,3.5356,3.4903,3.5637,3.549,3.4607,0.0,0.0,0.0,0.0,0.0,0.0,0.0,0.0,0.0,0.0,0.0,0.0,0.0,0.0,0.0,0.0,0.0,0.0,0.0,4.1359,4.2643,0.0,4.2892,4.2697,4.1753,4.1499,4.1272,4.0334,4.0096,4.0058,0.0,3.9794,3.9703,3.9703,3.9498,3.9571,4.0423,4.1028,4.1699,4.2634,0.0,0.0,4.3868,4.3898,4.3839,0.0,0.0,4.3824,4.3628,4.3598,4.3598,4.3598,4.3598,0.0,4.3598,4.2918,4.2504,4.2504,4.1792,4.1094,4.0426,4.0395,4.0031,3.9315,3.9299,3.9299,3.9299,3.9299,3.9299,3.9299,3.9299,3.9299,0.0,3.9299,3.9299,3.9299,3.9299,3.8884,3.8322,3.8292,3.7923,3.731,0.0,0.0,0.0,0.0,0.0,0.0,0.0,3.4971,3.5154,3.5296,3.554,3.5668,3.5607,3.5607,3.5573,3.5503,0.0,0.0,0.0,0.0,0.0,0.0,0.0,0.0,0.0,0.0,0.0,0.0,0.0,3.6276,3.6131,3.6564,3.6589,3.6311,3.6311,3.6316,0.0,0.0,0.0,0.0,0.0,0.0,0.0,0.0,0.0,0.0,0.0,0.0,0.0,0.0,0.0,0.0,0.0,0.0,0.0,4.2843,4.281,4.2516,4.1724,4.1499,4.1272,4.0334,4.0096,4.0049,3.982,3.9794,3.9755,3.9468,3.9831,4.0236,4.0428,4.1387,4.2253,4.2543,4.3162,0.0,0.0,0.0,0.0,4.3613,4.3674,4.3658,0.0,0.0,4.3598,4.3598,4.3598,4.3367,4.2885,4.2156,4.1742,4.1742,4.1077,4.0379,3.9663,3.9647,3.9531,3.9299,3.9299,3.9299,3.9299,3.9299,3.9299,3.9299,3.9299,3.9299,3.9299,3.9299,3.9299,3.9258,3.8802,3.8493,3.8193,3.7324,3.6875,3.6631,0.0,0.0,0.0,0.0,0.0,0.0,0.0,3.508,3.5267,3.5379,3.5588,3.5668,3.5607,3.5608,3.558,3.5519,0.0,0.0,0.0,0.0,0.0,0.0,0.0,0.0,0.0,0.0,0.0,0.0,0.0,0.0,0.0,0.0,3.738,3.71,3.71,0.0,0.0,0.0,0.0,0.0,0.0,0.0,3.9589,0.0,0.0,0.0,0.0,0.0,0.0,0.0,0.0,0.0,0.0,0.0,0.0,0.0,4.2591,4.2139,4.1579,4.1337,4.1051,4.023,4.0024,0.0,3.9807,3.9759,3.9765,3.9784,4.0189,4.0657,4.1122,4.1908,4.2603,4.287,4.33,4.3598,0.0,0.0,0.0,4.3598,0.0,0.0,0.0,4.3598,4.3598,4.3598,4.3333,4.2969,4.2506,4.156,4.1028,4.1028,4.0346,3.9749,3.9299,3.9299,3.9299,3.9299,3.9299,3.9299,3.9299,3.9299,3.9299,3.9299,3.9299,3.9299,0.0,3.9299,3.9148,3.8884,3.8463,3.8009,3.7487,3.6692,3.6258,3.6021,0.0,0.0,0.0,0.0,0.0,0.0,0.0,0.0,0.0,0.0,3.5588,3.5668,3.5607,3.5608,3.558,0.0,0.0,0.0,0.0,0.0,0.0,0.0,0.0,0.0,0.0,0.0,0.0,3.6261,3.7447,3.7852,3.7555,0.0,0.0,3.7268,3.7268,3.7279,3.7328,3.8077,3.8388,3.8466,3.9261,3.9589,0.0,0.0,0.0,0.0,0.0,0.0,0.0,0.0,0.0,0.0,0.0,0.0,0.0,0.0,0.0,0.0,0.0,4.1036,4.0652,4.01,3.9985,4.0002,4.0026,3.9835,0.0,4.0506,4.0594,4.0959,4.2255,4.2553,4.2802,4.3482,4.3598,4.3598,0.0,4.3598,0.0,0.0,4.3598,0.0,4.3598,4.3598,4.3598,4.3598,4.292,4.2487,4.2421,4.1141,4.0376,4.0312,3.9663,3.9299,3.9299,3.9299,3.9299,3.9299,3.9299,3.9299,3.9299,3.9299,3.9299,0.0,3.9299,3.9299,3.9299,3.9258,3.8871,3.8292,3.8193,3.7442,3.6399,3.6352,3.5974,3.5504,0.0,0.0,0.0,0.0,0.0,0.0,0.0,0.0,0.0,0.0,3.5668,3.5668,3.5607,3.5608,3.558,0.0,0.0,0.0,0.0,0.0,0.0,0.0,0.0,0.0,0.0,0.0,0.0,3.7786,3.8683,3.9075,3.9002,3.9202,0.0,0.0,0.0,3.902,3.9032,3.9206,3.9299,3.9312,3.9457,3.9552,0.0,0.0,0.0,0.0,3.8669,3.8267,0.0,0.0,0.0,0.0,0.0,0.0,0.0,0.0,4.1917,4.1283,4.1111,0.0,4.0663,4.0721,4.0746,4.0845,0.0,0.0,0.0,0.0,0.0,4.2106,4.2438,4.2967,4.34,4.3565,4.3598,4.3598,4.3598,0.0,0.0,4.3598,4.3598,4.3598,4.3598,4.3598,4.3598,4.3598,4.292,4.2255,4.1692,4.0859,4.013,3.958,3.9398,3.9299,3.9299,3.9299,3.9299,3.9299,3.9299,3.9299,3.9299,3.9299,3.9299,3.9299,3.9299,3.9299,3.9258,3.8745,3.8435,3.8193,3.722,3.6662,3.6337,3.5878,3.5619,3.5504,0.0,0.0,0.0,0.0,0.0,0.0,0.0,0.0,0.0,0.0,0.0,0.0,0.0,0.0,0.0,0.0,0.0,0.0,0.0,0.0,0.0,0.0,0.0,0.0,0.0,0.0,0.0,0.0,0.0,3.9554,0.0,0.0,0.0,0.0,0.0,3.9589,3.9589,3.9589,3.9589,3.9589,3.9552,0.0,0.0,0.0,0.0,0.0,3.8421,3.8065,0.0,3.8232,3.9228,4.0281,0.0,0.0,0.0,0.0,4.2026,4.1528,4.1287,4.1007,4.0803,4.0897,4.1121,4.1381,4.163,0.0,0.0,0.0,0.0,4.2589,4.2951,4.3317,4.3598,4.3598,4.3598,0.0,0.0,0.0,4.3598,4.3598,4.3598,4.3598,0.0,4.3598,4.3449,4.3118,4.2421,4.1692,4.0978,4.0279,3.9713,3.9315,3.9299,3.9299,3.9299,3.9299,3.9299,3.9299,3.9299,3.9299,3.9299,3.9299,3.9299,3.9299,3.9299,3.9299,3.9255,3.8573,3.8144,3.7793,3.6782,3.6228,3.5957,3.5619,3.5504,3.5504,0.0,0.0,0.0,0.0,0.0,0.0,0.0,0.0,0.0,0.0,0.0,0.0,0.0,0.0,0.0,0.0,0.0,0.0,0.0,0.0,0.0,0.0,0.0,0.0,0.0,0.0,0.0,0.0,0.0,0.0,0.0,0.0,3.9608,0.0,3.9589,3.9589,3.9589,3.9589,3.9589,3.9589,3.9589,0.0,0.0,0.0,0.0,0.0,0.0,0.0,0.0,3.8914,3.9685,4.0288,4.1096,0.0,0.0,0.0,0.0,0.0,4.1655,4.1381,4.113,4.1033,4.144,4.1885,4.2018,0.0,0.0,0.0,0.0,0.0,4.3482,4.3598,0.0,0.0,0.0,0.0,4.3598,4.3598,4.3598,4.3598,4.3598,0.0,4.3598,4.3598,4.3284,4.257,4.1825,4.111,4.0428,3.9696,3.9299,3.9299,3.9299,3.9299,3.9299,3.9299,3.9299,3.9299,3.9299,3.9299,3.9299,3.9299,3.9299,3.9299,0.0,0.0,3.9099,3.8435,3.7806,3.7185,3.6522,3.5962,3.5504,3.5504,3.5504,3.5488,0.0,0.0,0.0,0.0,0.0,0.0,0.0,0.0,0.0,0.0,0.0,0.0,0.0,0.0,0.0,0.0,0.0,0.0,0.0,0.0,0.0,0.0,0.0,0.0,0.0,0.0,0.0,0.0,0.0,0.0,3.9896,3.9752,3.9652,3.9589,3.9589,3.9589,3.9589,3.9589,3.9589,3.9589,3.9589,0.0,0.0,0.0,0.0,0.0,0.0,0.0,0.0,3.8532,3.9309,4.0096,4.0881,0.0,0.0,0.0,0.0,0.0,4.1992,4.1975,4.1778,4.1883,4.2228,4.2718,4.3415,0.0,0.0,0.0,0.0,0.0,0.0,4.3598,4.3598,0.0,0.0,4.3598,0.0,0.0,4.3598,4.3598,0.0,4.3598,4.3598,4.3598,4.3284,4.257,4.1825,4.111,4.0428,3.9696,3.9299,3.9299,3.9299,3.9299,3.9299,3.9299,3.9299,3.9299,3.9299,3.9299,3.9299,3.9299,3.9299,3.9299,0.0,3.8973,3.841,3.7785,3.7157,3.6495,3.5885,3.5588,3.5504,3.5504,3.5504,3.5392,0.0,0.0,0.0,0.0,0.0,0.0,0.0,0.0,0.0,0.0,0.0,0.0,0.0,0.0,0.0,0.0,0.0,0.0,0.0,0.0,0.0,0.0,0.0,0.0,0.0,0.0,0.0,0.0,0.0,4.0028,3.9895,3.9741,3.9633,3.9589,3.9589,3.9589,3.9589,3.9589,3.9589,3.9589,0.0,0.0,0.0,0.0,0.0,0.0,0.0,0.0,0.0,0.0,3.9967,4.0663,4.1327,0.0,0.0,0.0,0.0,0.0,4.2288,4.2313,4.2254,4.2607,4.3012,4.3419,4.368,0.0,0.0,0.0,0.0,0.0,0.0,0.0,4.3598,4.3598,0.0,4.3598,4.3598,4.3598,4.3598,0.0,0.0,4.3598,4.3598,4.3598,4.3118,4.199,4.1593,4.0928,3.9862,3.9481,3.9299,3.9299,3.9299,3.9299,3.9299,3.9299,3.9299,3.9299,3.9299,3.9299,3.9299,3.9299,3.9107,3.8772,0.0,3.8731,3.7785,3.7517,3.7002,3.6336,3.5732,3.5504,3.5504,3.5504,3.5215,3.4774,0.0,0.0,0.0,0.0,0.0,0.0,0.0,0.0,0.0,0.0,0.0,0.0,0.0,0.0,0.0,0.0,0.0,0.0,0.0,0.0,0.0,0.0,0.0,0.0,0.0,0.0,3.9624,4.0306,4.0163,4.0015,3.9854,3.9688,3.9589,3.9589,3.9589,3.9589,3.9589,3.9589,3.9589,3.9589,0.0,0.0,0.0,0.0,0.0,0.0,0.0,0.0,0.0,0.0,0.0,0.0,0.0,0.0,0.0,4.2297,4.2171,4.2134,4.2645,4.2664,4.2682,4.3258,4.3609,4.3793,4.3687,0.0,0.0,0.0,0.0,0.0,0.0,4.3598,0.0,4.3598,4.3598,4.3598,4.3598,4.3598,4.3598,4.3598,4.3598,4.3598,4.3598,4.3433,4.2802,4.1494,4.1245,4.0613,3.9365,3.9299,3.9299,3.9299,3.9299,3.9299,3.9299,3.9299,3.9299,3.9299,3.9299,3.9299,3.9285,3.9148,3.8802,3.832,3.8689,3.8214,3.7173,3.7173,3.6769,3.614,3.5674,3.5504,3.5504,3.5504,3.4984,3.4238,0.0,0.0,0.0,0.0,0.0,0.0,0.0,0.0,0.0,0.0,0.0,0.0,0.0,0.0,0.0,0.0,0.0,0.0,0.0,0.0,0.0,0.0,0.0,0.0,0.0,3.9342,4.0244,4.0306,4.0163,3.997,3.9707,3.9645,3.9589,3.9589,3.9589,3.9589,3.9589,3.9589,3.9589,3.9589,3.9589,0.0,0.0,0.0,0.0,0.0,0.0,0.0,0.0,0.0,0.0,0.0,0.0,0.0,4.2297,4.2297,4.2205,4.2281,4.3115,4.3155,4.3135,4.3853,4.382,0.0,4.3853,4.3734,0.0,4.3598,0.0,0.0,0.0,4.3598,4.3598,4.3598,4.3598,4.3598,4.3598,0.0,4.3598,4.3598,4.3598,4.3598,4.3598,4.2969,4.2255,4.1461,4.0812,4.0144,3.9348,3.9299,3.9299,3.9299,3.9299,3.9299,3.9299,3.9299,3.9299,3.9299,3.9299,3.9299,3.9272,3.8662,3.8351,3.8264,3.7765,3.7136,3.6465,3.6471,3.6118,3.555,3.5519,3.5504,3.5504,3.5504,3.4994,3.42,0.0,0.0,0.0,0.0,0.0,0.0,0.0,0.0,0.0,0.0,0.0,0.0,0.0,0.0,0.0,0.0,0.0,0.0,0.0,0.0,0.0,0.0,0.0,3.6889,3.7687,3.8875,3.9762,4.0306,4.0077,4.0152,4.0502,4.0402,0.0,4.034,4.034,4.0077,3.9589,3.9589,3.9589,3.959,3.9422,3.9368,0.0,0.0,0.0,0.0,0.0,0.0,0.0,0.0,4.0583,4.1626,4.1842,4.2089,4.2256,4.2002,4.2095,4.2385,4.2784,4.2939,4.3149,4.3814,4.3891,0.0,0.0,4.3643,4.3598,4.3598,4.3598,0.0,0.0,0.0,4.3598,4.3598,4.3598,4.3598,4.3598,4.3598,4.3598,4.3598,4.3598,4.3598,4.3598,4.292,4.2189,4.1461,4.0779,4.0081,3.9348,3.9299,3.9299,3.9299,3.9299,3.9299,3.9299,3.9299,3.9299,3.9285,3.8884,3.8898,3.9258,3.8226,3.7735,3.772,3.7502,3.681,3.5875,3.6261,3.604,3.5504,3.5504,3.5504,3.5504,3.5504,3.4699,3.3539,0.0,0.0,0.0,0.0,0.0,0.0,0.0,0.0,0.0,0.0,0.0,0.0,0.0,0.0,0.0,0.0,0.0,0.0,0.0,0.0,0.0,0.0,0.0,3.6581,3.7678,3.8277,3.9151,4.0306,4.0038,4.0138,4.0552,0.0,0.0,0.0,4.0422,4.0121,3.9589,3.9589,3.9589,3.9583,3.9401,3.9364,0.0,0.0,0.0,0.0,0.0,0.0,0.0,0.0,4.0994,4.1892,4.1899,4.213,4.2343,4.2103,4.2364,4.2787,4.294,4.3129,4.3393,4.385,0.0,0.0,4.3926,4.3944,4.4011,4.4242,4.411,0.0,0.0,0.0,0.0,0.0,4.3598,4.3598,4.3598,4.3598,4.3598,4.3598,4.3598,4.3499,4.3282,4.2587,4.1858,4.1143,4.0445,3.9829,3.9332,3.9299,3.9299,3.9299,3.9299,3.9299,3.9299,3.9299,3.9299,3.9285,3.8437,3.8367,3.8939,3.7663,3.7086,3.7071,3.689,3.6305,3.5537,3.5957,3.5862,3.5504,3.5504,3.5504,3.5473,3.521,3.4263,3.3035,0.0,0.0,0.0,0.0,0.0,0.0,0.0,0.0,0.0,0.0,0.0,0.0,0.0,0.0,0.0,0.0,0.0,0.0,0.0,0.0,0.0,0.0,0.0,3.5974,3.7659,3.7716,3.8572,4.0301,4.0038,3.9796,3.9608,3.9613,0.0,0.0,3.962,3.9627,3.9608,3.9608,3.9608,3.9608,3.9608,3.9437,3.9195,0.0,0.0,0.0,0.0,0.0,0.0,0.0,4.1452,4.1895,4.1895,4.2228,4.2613,4.2679,4.3069,4.3546,4.3743,4.3849,4.3927,0.0,0.0,0.0,4.4538,4.4703,4.4919,4.5648,0.0,4.4473,4.3746,0.0,0.0,4.3598,4.3598,4.3598,4.3598,4.3598,4.3598,4.3598,4.3598,4.33,4.2555,4.1841,4.1127,4.0445,3.973,3.9299,3.9299,3.9299,3.9299,3.9299,3.9285,3.9285,3.9285,3.9285,3.9285,3.9272,3.7996,3.772,3.825,3.6981,3.6399,3.6368,3.5765,3.5504,3.5504,3.5504,3.5504,3.5504,3.5504,3.5504,3.5396,3.4593,3.3703,3.278,0.0,0.0,0.0,0.0,0.0,0.0,0.0,0.0,0.0,0.0,0.0,0.0,0.0,0.0,0.0,0.0,0.0,0.0,0.0,0.0,0.0,0.0,0.0,0.0,0.0,0.0,3.97,4.002,3.9948,4.0097,0.0,0.0,0.0,4.048,0.0,0.0,4.0433,4.0441,4.0447,4.0371,3.9616,3.9392,3.9437,0.0,0.0,0.0,0.0,0.0,0.0,0.0,0.0,0.0,4.2176,4.2361,4.2585,4.2508,4.2965,4.3442,4.3162,4.3642,0.0,4.382,0.0,0.0,0.0,4.5068,0.0,0.0,4.5217,4.4637,4.4406,0.0,0.0,4.3598,4.3598,4.3598,4.3598,4.3598,4.3598,4.3598,4.3598,4.33,4.2555,4.1841,4.1127,4.0445,3.973,3.9299,3.9299,3.9299,3.9299,3.9299,3.8827,3.8604,3.8604,3.8604,3.8379,3.7969,3.759,3.772,3.8236,3.6538,3.599,3.6368,3.5765,3.5504,3.5504,3.5504,3.5504,3.5504,3.5504,3.5504,3.5396,3.444,3.3579,3.2809,0.0,0.0,0.0,0.0,0.0,0.0,0.0,0.0,0.0,0.0,0.0,0.0,0.0,0.0,0.0,0.0,0.0,0.0,0.0,0.0,0.0,0.0,0.0,0.0,0.0,3.9064,3.9843,0.0,0.0,0.0,0.0,0.0,0.0,4.0353,0.0,4.1243,0.0,4.0803,4.0804,4.0716,3.9748,3.9463,3.9577,0.0,0.0,0.0,0.0,0.0,0.0,0.0,0.0,0.0,4.2135,4.2341,4.2637,4.2764,4.3126,4.3498,4.3515,4.3812,0.0,4.3862,4.4406,4.5208,4.6044,0.0,0.0,0.0,0.0,4.5051,4.4753,4.4108,0.0,4.3598,4.3598,4.3598,4.3598,4.3372,4.3295,4.3583,4.3355,4.29,4.2144,4.1659,4.1011,4.0044,3.9547,3.9299,3.9299,3.905,3.9023,3.9285,3.8423,3.8195,3.8703,3.8435,3.8123,3.7749,3.7501,3.7442,3.7501,3.6132,3.5701,3.6022,3.5667,3.5504,3.5504,3.5504,3.5504,3.5504,3.5504,3.5504,3.5365,3.4286,3.3553,3.2984,0.0,0.0,0.0,0.0,0.0,0.0,0.0,0.0,0.0,0.0,0.0,0.0,0.0,0.0,0.0,0.0,0.0,0.0,0.0,0.0,0.0,0.0,0.0,0.0,0.0,0.0,0.0,0.0,0.0,0.0,0.0,0.0,3.9702,3.9758,0.0,4.1024,4.1036,4.1028,4.0978,4.0848,4.0021,3.969,3.9695,3.9993,0.0,0.0,0.0,0.0,0.0,0.0,0.0,0.0,4.1959,4.2259,4.2706,4.3255,4.3461,4.3652,4.4351,4.4229,4.3942,4.4025,4.4432,0.0,4.6659,4.752,4.7819,4.7139,0.0,4.5567,4.4842,4.4051,4.3507,4.3507,4.3447,4.3447,4.3567,4.2959,4.2772,4.3507,4.2943,4.2203,4.1472,4.1338,4.0756,3.9401,3.9299,3.9299,3.9299,3.8659,3.8576,3.9188,3.7967,3.7852,3.901,3.8437,3.8094,3.8037,3.7531,3.6951,3.6305,3.5749,3.5504,3.5504,3.5504,3.5504,3.5504,3.5504,3.5549,3.5594,3.5593,3.5608,3.5498,3.4237,3.3634,3.3302,0.0,0.0,0.0,0.0,0.0,0.0,0.0,0.0,0.0,0.0,0.0,0.0,0.0,0.0,0.0,0.0,0.0,0.0,0.0,0.0,0.0,0.0,0.0,0.0,0.0,0.0,0.0,0.0,0.0,0.0,0.0,0.0,0.0,4.0616,0.0,4.276,4.2764,4.2754,4.2368,4.1674,4.0879,4.0419,4.0225,4.0122,4.0663,0.0,0.0,0.0,0.0,0.0,0.0,0.0,4.2442,4.2512,4.2726,4.3307,4.3486,4.3573,4.3948,4.4056,0.0,4.3761,4.4634,4.5947,4.7438,4.7885,4.7968,4.7802,4.6709,4.5591,4.4902,4.3698,4.282,4.282,4.2333,4.2349,4.3447,4.2522,4.2206,4.3447,4.2491,4.1659,4.1413,4.0918,4.0257,3.9374,3.9299,3.9299,3.9299,3.8659,3.8379,3.8521,3.728,3.6753,3.7011,3.689,3.6569,3.6116,3.6446,3.629,3.57,3.5554,3.5504,3.5504,3.5504,3.5504,3.5504,3.5504,3.5804,3.6282,3.6274,3.6483,3.6552,3.4867,3.4124,3.377,0.0,0.0,0.0,0.0,0.0,0.0,0.0,0.0,0.0,0.0,0.0,0.0,0.0,0.0,0.0,0.0,0.0,0.0,0.0,0.0,0.0,0.0,0.0,0.0,0.0,0.0,0.0,0.0,0.0,0.0,0.0,0.0,0.0,4.0297,0.0,4.2687,4.2706,4.3125,4.3031,4.2555,4.1711,4.1163,4.0866,4.1146,4.1484,4.1833,4.2046,0.0,0.0,0.0,0.0,0.0,0.0,0.0,4.2573,4.3173,4.3364,4.3446,4.3878,4.3998,0.0,4.4535,0.0,4.6179,4.7669,4.8001,4.7901,4.7554,4.6576,4.5593,4.4919,4.3589,4.2475,4.2142,4.1754,4.1884,4.2974,4.19,4.1656,4.3386,4.2061,4.1005,4.0978,4.0626,3.9834,3.848,3.8955,3.9023,3.8425,3.8053,3.7865,3.7865,3.6631,3.6258,3.686,3.6569,3.6243,3.5941,3.6258,3.6252,3.5968,3.5654,3.5504,3.5519,3.5833,3.5968,3.5998,3.6297,3.6626,3.6926,3.6935,3.7001,3.6919,3.5393,3.47,3.4342,0.0,0.0,0.0,0.0,0.0,0.0,0.0,0.0,0.0,0.0,0.0,0.0,0.0,0.0,0.0,0.0,0.0,0.0,0.0,0.0,0.0,0.0,0.0,0.0,0.0,0.0,0.0,0.0,0.0,0.0,0.0,0.0,0.0,3.989,0.0,0.0,4.2286,4.3144,4.3432,4.3238,4.2518,4.1941,4.1584,4.2261,4.229,4.2078,4.2675,4.2796,4.2649,4.2606,0.0,0.0,0.0,0.0,4.2416,4.3043,4.3202,4.3322,4.3878,4.3939,4.4123,4.5331,4.5714,0.0,4.7504,4.7819,4.7604,4.6862,4.6136,4.5369,4.4561,4.3218,4.2045,4.1426,4.121,4.1443,4.2285,4.1209,4.1092,4.3189,4.1575,4.0409,4.065,4.0304,3.9361,3.7699,3.8448,3.8509,3.7458,3.7295,3.7236,3.7236,3.6101,3.6005,3.7056,3.6523,3.6304,3.6411,3.6518,3.6597,3.6643,3.6088,3.5833,3.5863,3.6402,3.6673,3.6686,3.7195,3.7479,3.7584,3.7584,3.7503,3.7237,3.6087,3.5449,3.4942,0.0,0.0,0.0,0.0,0.0,0.0,0.0,0.0,0.0,0.0,0.0,0.0,0.0,0.0,0.0,0.0,0.0,0.0,3.5416,0.0,0.0,3.5218,3.5209,0.0,0.0,0.0,0.0,0.0,0.0,0.0,0.0,0.0,0.0,4.0703,0.0,0.0,0.0,4.3982,4.3951,4.3301,4.3163,4.2815,4.2356,4.2458,0.0,0.0,4.2855,4.2873,4.2825,4.2658,4.258,0.0,0.0,0.0,4.2427,4.3085,4.3259,4.3271,4.3576,0.0,4.3842,0.0,4.5333,4.6013,0.0,0.0,4.683,0.0,4.5407,4.4512,4.3159,4.1728,4.0752,4.065,4.0093,4.0146,4.1459,4.0428,4.0339,4.2475,4.0856,4.0031,4.1252,3.974,3.8557,3.8289,3.7881,3.759,3.7414,3.686,3.6523,3.6523,3.5862,3.557,3.5749,3.5667,3.5904,3.6491,3.7015,3.728,3.7285,3.7195,3.7148,3.7148,3.724,3.7285,3.73,3.7375,3.7749,3.8275,3.8275,3.8389,3.8458,3.7533,3.6489,3.5403,0.0,0.0,0.0,0.0,0.0,0.0,0.0,0.0,0.0,0.0,0.0,0.0,0.0,0.0,0.0,3.5493,3.5365,3.5175,3.4962,3.5166,3.5229,3.5041,3.5132,3.5974,3.7659,0.0,0.0,0.0,0.0,0.0,0.0,3.9965,4.0128,0.0,0.0,0.0,0.0,0.0,4.4261,4.3908,4.3797,4.3432,0.0,0.0,0.0,0.0,0.0,0.0,4.2738,4.2767,4.2611,4.245,4.257,0.0,0.0,0.0,4.2981,4.2957,4.346,4.3598,4.3779,0.0,4.4952,4.5383,4.6128,4.5992,4.5506,4.4772,4.3756,4.2811,4.2171,4.1202,4.0357,3.995,3.961,3.977,4.0788,4.0041,4.0041,4.1771,4.0461,3.9657,4.0319,3.9518,3.8502,3.7425,3.7732,3.7479,3.6383,3.6368,3.6258,3.591,3.5635,3.5684,3.6058,3.6058,3.6372,3.7,3.7285,3.7599,3.7958,3.7958,3.7764,3.7417,3.7808,3.7958,3.7988,3.8377,3.8688,3.8958,3.8835,3.8801,3.862,3.7165,3.6183,3.5432,0.0,0.0,0.0,0.0,0.0,0.0,0.0,0.0,0.0,0.0,0.0,0.0,0.0,0.0,0.0,0.0,3.519,3.5003,3.4788,3.5094,3.5181,3.4973,3.5115,3.598,3.7639,0.0,0.0,0.0,0.0,0.0,3.9589,3.9589,3.9702,0.0,4.1373,0.0,0.0,0.0,0.0,0.0,0.0,0.0,0.0,0.0,0.0,0.0,0.0,0.0,0.0,0.0,4.2554,4.2333,4.2472,4.2187,0.0,0.0,0.0,4.2959,4.346,4.3598,4.3729,4.4274,4.4571,4.4807,0.0,0.0,4.4253,0.0,4.2171,4.1265,4.1086,4.0587,4.0038,3.9481,3.9406,3.9589,4.0128,3.9753,3.9862,4.1093,4.0163,3.9485,3.9734,3.9384,3.854,3.7096,3.7702,3.7447,3.5838,3.6183,3.6216,3.5775,3.5744,3.6073,3.6716,3.6913,3.721,3.7659,3.7838,3.8182,3.8646,3.8646,3.8377,3.7943,3.8437,3.8646,3.8691,3.9182,3.9355,3.9301,3.9159,3.88,3.8234,3.6763,3.5835,3.5122,0.0,0.0,0.0,0.0,0.0,0.0,0.0,0.0,0.0,0.0,0.0,0.0,0.0,3.4922,3.4889,3.4832,3.5009,3.5149,3.5257,3.5222,3.5205,3.5193,3.5182,0.0,3.7571,0.0,0.0,0.0,0.0,0.0,3.9589,3.9589,4.0015,4.0778,4.1617,4.2004,4.2117,0.0,0.0,0.0,0.0,0.0,0.0,0.0,0.0,0.0,0.0,0.0,0.0,0.0,0.0,0.0,0.0,4.1906,4.1625,0.0,0.0,0.0,4.3597,4.3598,4.3615,4.3648,4.4191,4.4535,0.0,0.0,4.3378,4.1984,4.109,4.0331,3.9634,3.9475,3.9427,3.9406,3.9406,3.9409,3.9445,3.9409,3.9681,4.0461,3.9862,3.9684,4.038,3.9243,3.8415,3.832,3.7773,3.7158,3.6479,3.6482,3.6482,3.6449,3.6449,3.6731,3.736,3.7973,3.832,3.8365,3.8987,3.9316,3.9346,3.9346,3.9331,3.9302,3.9331,3.9346,3.9346,3.9391,3.9283,3.9104,3.9104,3.8364,3.7281,3.7184,3.5989,3.4457,0.0,0.0,0.0,0.0,0.0,0.0,0.0,0.0,0.0,0.0,0.0,0.0,0.0,3.5434,3.5461,3.5562,3.5095,3.465,3.4358,3.4768,3.5182,3.5568,3.5863,3.6762,3.8342,0.0,0.0,0.0,0.0,3.9589,3.9589,3.9589,4.004,4.0835,4.1629,4.2305,4.2919,4.4038,0.0,0.0,0.0,0.0,0.0,0.0,0.0,0.0,0.0,0.0,0.0,0.0,0.0,0.0,0.0,0.0,0.0,0.0,0.0,4.2986,0.0,0.0,4.3598,4.3598,4.3795,4.3934,4.369,4.2942,4.2152,4.1637,4.0612,3.9717,3.9445,3.9406,3.9406,3.9406,3.9406,3.9406,3.9406,3.9406,3.9499,3.977,3.9571,3.9499,3.977,3.9346,3.8871,3.8422,3.8167,3.7764,3.7105,3.7075,3.7075,3.7075,3.7075,3.7389,3.8033,3.8721,3.9032,3.9032,3.9287,3.9406,3.9406,3.9406,3.9406,3.9406,3.9406,3.9406,3.9406,3.9406,3.9283,3.9086,3.8962,3.8542,3.7891,3.6627,3.5749,3.5109,0.0,0.0,0.0,0.0,0.0,0.0,0.0,0.0,0.0,0.0,0.0,0.0,0.0,0.0,3.6065,3.6218,3.5644,3.5153,3.4851,3.5302,3.5757,3.616,3.6452,3.7231,3.8606,0.0,0.0,0.0,0.0,0.0,0.0,3.989,4.0428,4.1241,4.2067,4.2769,0.0,0.0,0.0,4.439,0.0,0.0,4.3975,0.0,0.0,0.0,0.0,0.0,0.0,0.0,0.0,0.0,0.0,0.0,0.0,0.0,0.0,0.0,4.31,0.0,0.0,4.3598,4.3598,4.3477,4.3005,4.2173,4.136,4.0891,4.0041,3.9406,3.9406,3.9406,3.9406,3.9406,3.9406,3.9406,3.9406,3.9406,3.9406,3.9406,3.9406,3.9406,3.9406,3.9406,3.9212,3.8766,3.8736,0.0,3.7778,3.7749,3.7749,3.7749,3.7941,3.8302,3.8736,3.9167,3.9406,3.9406,3.9406,3.9406,3.9406,3.9406,3.9406,3.9406,3.9406,3.9406,3.9388,3.9319,3.9177,3.898,3.8778,3.8393,3.7758,3.6188,3.5427,3.5094,0.0,0.0,0.0,0.0,0.0,0.0,0.0,0.0,0.0,0.0,0.0,0.0,0.0,0.0,0.0,3.6725,3.6643,3.6676,3.6873,3.6897,3.6897,3.694,3.6868,3.7305,3.8295,0.0,0.0,0.0,0.0,0.0,0.0,0.0,4.1223,0.0,4.2919,4.332,4.3388,0.0,4.4501,4.444,0.0,4.4185,4.4818,0.0,0.0,0.0,4.4456,4.4323,0.0,4.3365,0.0,0.0,0.0,0.0,0.0,0.0,0.0,0.0,0.0,0.0,0.0,4.3598,4.3598,4.3235,4.1852,4.1525,4.111,3.9717,3.9424,3.9406,3.9406,3.9406,3.9406,3.9406,3.9406,3.9406,3.9406,3.9406,3.9406,3.9406,3.9406,3.9406,3.9406,3.9406,3.9406,3.9406,3.9406,3.9125,3.8452,3.8422,3.8422,3.8422,3.9065,3.9406,3.9406,3.9406,3.9406,3.9406,3.9406,3.9406,3.9406,3.9406,3.9406,3.9406,3.9388,3.9388,3.9388,3.9177,3.898,3.8764,3.859,3.7867,3.6825,3.5969,3.5128,3.4314,0.0,0.0,0.0,0.0,0.0,0.0,0.0,0.0,0.0,0.0,0.0,0.0,0.0,0.0,0.0,3.7288,3.6733,3.6422,3.6454,3.6604,3.6956,3.7602,3.7692,3.8122,3.893,0.0,0.0,0.0,0.0,0.0,0.0,0.0,0.0,0.0,4.2919,4.3613,4.417,4.4414,0.0,0.0,4.4319,4.4494,0.0,0.0,0.0,0.0,0.0,4.4557,4.4189,0.0,4.297,4.2571,0.0,0.0,0.0,0.0,0.0,0.0,4.2371,0.0,0.0,0.0,0.0,0.0,4.2507,4.1884,4.1244,4.0374,3.977,3.9406,3.9406,3.9406,3.9406,3.9406,3.9406,3.9406,3.9406,3.9406,3.9406,3.9406,3.9406,3.9406,3.9406,3.9406,3.9406,0.0,3.9406,3.9316,3.9122,3.9107,3.9107,3.9107,3.9302,3.9406,3.9406,3.9406,3.9406,3.9406,3.9406,3.9406,3.9406,3.9406,3.9406,3.9388,3.9247,3.9177,3.9177,3.9123,3.8903,3.859,3.8516,3.8221,3.772,3.6864,3.6002,3.5237,0.0,0.0,0.0,0.0,0.0,0.0,0.0,0.0,0.0,0.0,0.0,0.0,0.0,0.0,0.0,0.0,3.7569,3.7294,3.7294,3.741,3.7673,3.812,3.8206,3.8451,3.8944,0.0,0.0,0.0,0.0,0.0,0.0,0.0,0.0,0.0,0.0,0.0,0.0,0.0,0.0,0.0,4.4553,0.0,0.0,4.5385,4.5555,0.0,0.0,0.0,4.4982,4.42,4.3439,0.0,0.0,0.0,0.0,0.0,0.0,0.0,0.0,0.0,0.0,0.0,0.0,0.0,4.2301,4.1591,4.089,4.0181,3.9699,3.9406,3.9406,3.9406,3.9406,3.9406,3.9406,3.9406,3.9406,3.9406,3.9406,3.9406,3.9406,3.9406,3.9406,3.9406,3.9406,3.9406,3.9406,3.9406,3.9406,3.9406,3.9406,3.9406,3.9406,3.9406,3.9406,3.9406,3.9406,3.9406,3.9406,3.9406,3.9406,3.9406,3.9337,3.9265,3.9247,3.9086,3.8867,3.8943,3.8793,3.8478,3.8404,3.8296,3.8089,3.7208,3.659,3.6029,0.0,0.0,0.0,0.0,0.0,0.0,0.0,0.0,0.0,0.0,0.0,0.0,0.0,0.0,0.0,0.0,3.8699,3.8699,3.8699,3.8699,3.865,3.851,3.8438,3.8454,3.8554,0.0,0.0,0.0,0.0,0.0,0.0,0.0,0.0,0.0,0.0,0.0,0.0,0.0,0.0,4.4453,4.4746,4.5349,0.0,0.0,4.6534,4.6957,4.6719,4.6447,4.6061,4.5189,4.3874,0.0,0.0,0.0,0.0,0.0,3.9829,0.0,0.0,0.0,0.0,0.0,4.3093,0.0,4.1689,4.1042,4.0374,3.9571,3.9406,3.9406,3.9406,3.9406,3.9406,3.9406,3.9406,3.9406,3.9406,3.9406,3.9406,3.9406,3.9406,3.9406,3.9406,3.9406,3.9406,3.9406,3.9406,3.9406,3.9406,3.9406,3.9406,3.9406,3.9406,3.9406,3.9406,3.9406,3.9406,3.9406,3.9406,3.9406,3.9406,3.9406,3.9301,3.9141,3.9283,3.9031,3.8553,3.8686,3.8631,3.8441,3.8258,3.8202,3.8089,3.7208,3.6897,3.6663,3.9101,0.0,0.0,0.0,0.0,0.0,0.0,0.0,0.0,0.0,0.0,0.0,0.0,0.0,0.0,0.0,0.0,3.8699,3.8699,3.8699,3.865,3.851,3.8438,3.8393,3.8362,3.8184,0.0,0.0,0.0,0.0,0.0,0.0,0.0,0.0,0.0,0.0,0.0,0.0,0.0,4.4668,4.5058,0.0,4.6882,4.6834,4.69,4.698,4.6934,4.6607,4.593,4.424,4.2623,4.1185,0.0,0.0,0.0,3.9445,0.0,0.0,0.0,0.0,0.0,0.0,4.3063,0.0,4.1787,4.1393,4.0942,3.9663,3.9406,3.9406,3.9406,3.9406,3.9406,3.9406,3.9406,3.9406,3.9406,3.9406,3.9406,3.9406,3.9406,3.9406,3.9406,3.9406,3.9406,3.9406,3.9406,3.9406,3.9406,3.9406,3.9406,3.9406,3.9406,3.9406,3.9406,3.9406,3.9406,3.9406,3.9406,3.9406,3.9406,3.9406,3.9388,3.9319,3.905,3.8852,3.8723,3.8445,3.8296,3.824,3.8221,3.8202,3.8089,3.7208,3.6897,3.6663,3.9758,0.0,0.0,0.0,0.0,0.0,0.0,0.0,0.0,0.0,0.0,0.0,0.0,0.0,0.0,0.0,0.0,0.0,0.0,0.0,3.976,3.9644,3.9588,3.9504,3.9393,3.9505,3.9654,0.0,0.0,0.0,0.0,0.0,0.0,0.0,0.0,0.0,0.0,0.0,4.5714,4.6204,4.6195,0.0,4.6791,4.7047,4.7093,4.6968,4.6853,4.6312,4.5322,4.3177,4.2058,0.0,4.0023,3.9746,3.9824,0.0,3.9564,3.9928,0.0,0.0,0.0,4.2322,0.0,0.0,0.0,4.0974,4.0253,3.9553,3.9406,3.9406,3.9406,3.9406,3.9406,3.9406,3.9406,3.9406,3.9406,3.9406,3.9406,3.9406,3.9406,3.9406,3.9406,3.9406,3.9406,3.9406,3.9406,3.9406,3.9406,3.9406,3.9406,3.9406,3.9406,3.9406,3.9406,3.9406,3.9406,3.9406,3.9406,3.9406,3.9406,3.9406,3.9337,3.9247,3.905,3.8833,3.8631,3.8427,3.8277,3.8202,3.8202,3.8202,3.8146,3.7701,3.7548,3.7376,4.0668,0.0,0.0,0.0,0.0,0.0,0.0,0.0,0.0,0.0,0.0,0.0,0.0,0.0,0.0,0.0,0.0,0.0,0.0,0.0,4.0883,4.0799,4.074,4.0644,4.0501,4.0703,4.0859,0.0,0.0,0.0,0.0,0.0,0.0,0.0,0.0,0.0,0.0,0.0,0.0,4.7493,0.0,4.7066,4.6729,4.7137,4.7053,4.6639,4.623,4.5476,4.4371,4.2371,4.1768,4.1574,3.994,3.959,0.0,0.0,0.0,0.0,0.0,0.0,0.0,0.0,0.0,4.0737,0.0,0.0,0.0,3.9442,3.9406,3.9406,3.9406,0.0,0.0,3.9227,0.0,0.0,0.0,3.9316,0.0,3.9406,3.9406,3.9406,3.9406,3.9406,3.9406,3.9406,3.9406,3.9406,3.9406,3.9406,3.9406,3.9406,3.9406,3.9406,3.9406,3.9406,3.9406,3.9406,3.9406,3.9406,3.9406,3.9355,3.9247,3.9104,3.9013,3.8793,3.8497,3.846,3.8348,3.8202,3.8202,3.8202,3.8183,3.8,3.8056,3.8037,4.1597,4.211,0.0,0.0,0.0,0.0,0.0,0.0,0.0,0.0,0.0,0.0,0.0,0.0,0.0,0.0,0.0,0.0,4.1095,0.0,0.0,4.0799,4.074,4.0644,4.0501,4.0528,4.066,4.0909,0.0,0.0,0.0,0.0,0.0,0.0,4.4554,0.0,0.0,0.0,4.7076,0.0,4.7799,4.7996,0.0,4.741,4.6577,4.5463,4.4536,4.3705,4.2969,0.0,4.1445,4.0507,0.0,3.9616,3.9365,3.9312,0.0,0.0,0.0,0.0,0.0,0.0,4.1009,0.0,4.0642,0.0,4.0198,3.9535,0.0,3.9406,3.9406,0.0,0.0,0.0,0.0,0.0,3.8601,3.9035,3.9406,3.9406,3.9406,3.9406,3.9406,3.9406,3.9406,3.9406,3.9406,3.9406,3.9406,3.9406,3.9406,3.9406,3.9406,3.9406,3.9406,3.9406,3.9406,3.9406,3.9406,3.9406,3.9388,3.9228,3.9123,3.9086,3.8719,3.8534,3.8478,3.8296,3.8221,3.8202,3.8202,3.8202,3.8108,3.7323,3.7548,3.7962,4.2452,4.2946,0.0,0.0,0.0,0.0,0.0,0.0,0.0,0.0,0.0,0.0,0.0,0.0,0.0,0.0,0.0,4.2968,0.0,0.0,0.0,0.0,4.2032,4.195,4.1886,4.1886,4.1941,4.2059,4.2396,0.0,0.0,0.0,0.0,0.0,4.4682,0.0,4.6391,0.0,4.7582,0.0,0.0,0.0,0.0,4.6572,4.5632,4.4413,4.3576,4.2911,4.2329,0.0,4.0692,0.0,0.0,0.0,0.0,3.9299,0.0,0.0,0.0,0.0,0.0,0.0,0.0,0.0,4.0372,0.0,3.977,0.0,0.0,0.0,0.0,0.0,0.0,0.0,3.9212,3.9302,0.0,0.0,3.9406,3.9406,0.0,0.0,3.9406,3.9406,3.9406,3.9406,3.9406,3.9406,3.9406,3.9406,3.9406,3.9406,3.9406,3.9406,3.9406,3.9406,3.9406,3.9406,3.9406,3.9406,3.9388,3.9177,3.9104,3.9086,3.8664,3.8497,3.8478,3.8277,3.8202,3.8202,3.8202,3.8202,3.8165,3.7791,3.7886,3.8108,4.3596,0.0,0.0,0.0,0.0,0.0,0.0,0.0,0.0,0.0,0.0,0.0,4.6865,4.6773,0.0,0.0,4.503,4.4756,0.0,0.0,4.3825,4.3759,4.3628,4.3562,4.3562,4.3562,4.3562,4.3562,0.0,0.0,0.0,0.0,0.0,0.0,0.0,4.6048,4.7206,0.0,4.785,4.8299,4.7867,4.681,4.5466,4.5113,4.4396,4.35,4.2745,4.2285,4.1875,4.0904,4.034,0.0,3.9586,3.9392,3.9299,0.0,0.0,0.0,3.9299,0.0,0.0,0.0,0.0,0.0,0.0,0.0,0.0,0.0,0.0,0.0,0.0,0.0,0.0,0.0,0.0,3.9331,0.0,3.9287,0.0,3.9406,0.0,0.0,0.0,3.9406,3.9406,3.9406,3.9406,3.9406,3.9406,3.9406,3.9406,3.9406,3.9406,3.9406,3.9406,3.9406,3.9406,3.9406,3.9337,3.9319,3.9301,3.905,3.894,3.8922,3.8571,3.8422,3.8404,3.8258,3.8202,3.8202,3.8202,3.8202,3.8202,3.8202,3.8202,3.8202,4.5212,4.5239,0.0,0.0,0.0,0.0,0.0,0.0,0.0,0.0,0.0,0.0,0.0,0.0,0.0,0.0,0.0,4.5828,4.5736,0.0,4.5492,4.5422,4.5296,4.5218,4.5218,4.5218,4.5218,4.5218,0.0,0.0,0.0,0.0,0.0,0.0,0.0,4.716,4.7415,4.7741,4.7781,4.7539,4.657,4.4979,4.3182,0.0,4.2868,4.2734,4.1938,0.0,0.0,4.1134,4.0719,4.0339,3.9982,0.0,0.0,0.0,0.0,0.0,0.0,0.0,0.0,3.8353,0.0,0.0,0.0,0.0,3.9406,0.0,0.0,0.0,0.0,0.0,0.0,0.0,0.0,0.0,0.0,0.0,3.9406,3.9406,3.9406,0.0,0.0,3.9406,3.9406,3.9406,3.9406,3.9406,3.9406,3.9406,3.9406,3.9406,3.9406,3.9406,3.9406,3.9406,3.9406,3.9406,3.9195,3.9104,3.9104,3.8701,3.8516,3.8497,3.8296,3.8202,3.8202,3.8202,3.8202,3.8202,3.8202,3.8202,3.8202,3.8202,3.8202,3.8202,0.0,0.0,0.0,0.0,0.0,0.0,0.0,4.8448,0.0,0.0,4.7921,0.0,0.0,4.7489,4.7269,0.0,0.0,4.6396,4.5706,4.5622,0.0,4.5368,4.5311,4.5291,0.0,4.5291,4.5291,0.0,0.0,0.0,0.0,0.0,0.0,0.0,0.0,4.7035,0.0,0.0,0.0,0.0,0.0,4.3746,4.2894,0.0,4.2471,4.1962,4.171,4.1431,0.0,4.0733,4.0371,4.0007,3.9622,3.9405,3.9299,3.9299,3.9299,3.9188,3.8758,3.8463,3.8193,3.7793,0.0,0.0,0.0,0.0,0.0,0.0,0.0,0.0,0.0,0.0,0.0,0.0,0.0,0.0,0.0,0.0,3.8793,3.9352,3.9406,3.9406,0.0,3.9406,3.9406,3.9406,3.9406,3.9406,3.9406,3.9406,3.9406,3.9406,3.9406,3.9406,3.9406,3.9406,3.9406,3.9406,3.9195,3.9159,3.9283,3.8738,3.8571,3.8686,3.8352,3.8202,3.8202,3.8202,3.8202,3.8202,3.8202,3.8202,3.8202,3.8202,3.8202,3.826,4.6921,0.0,0.0,0.0,0.0,0.0,0.0,0.0,0.0,0.0,4.8152,0.0,4.8045,0.0,4.7595,0.0,4.6999,4.6733,4.6251,4.6156,0.0,4.616,4.616,4.616,0.0,0.0,0.0,0.0,0.0,4.6101,0.0,0.0,0.0,0.0,0.0,4.6988,4.7259,4.7177,4.6495,0.0,0.0,4.286,0.0,0.0,4.2049,4.1604,0.0,4.1342,4.0948,4.0542,4.0178,3.9825,3.9441,3.9299,3.9299,3.9299,3.9299,3.9148,3.8477,3.8137,3.7822,3.7206,3.7558,3.8033,3.8033,0.0,3.9406,0.0,0.0,0.0,0.0,0.0,0.0,0.0,0.0,0.0,0.0,3.8534,3.8277,3.849,3.8778,3.9101,3.9355,3.9406,3.9406,3.9406,3.9406,3.9406,3.9406,3.9406,3.9406,3.9406,3.9406,3.9406,3.9406,3.9406,3.9406,3.9406,3.9123,3.9068,3.9159,3.8645,3.8464,3.8575,3.8315,3.8202,3.8202,3.8202,3.8202,3.8202,3.8202,3.8202,3.8202,3.8202,3.8362,3.8681,4.7757,0.0,0.0,0.0,4.8329,0.0,0.0,0.0,4.8438,0.0,4.7877,4.7591,4.7569,4.7171,4.6897,4.6897,4.6776,4.6874,4.7236,4.718,0.0,0.0,4.7696,4.7707,4.7707,0.0,0.0,0.0,0.0,0.0,0.0,0.0,0.0,0.0,4.7456,0.0,4.6079,4.5834,4.5192,4.4189,4.3205,4.233,4.1657,4.1657,4.1628,4.1604,4.1604,4.134,4.0942,4.0538,4.0192,3.9836,3.9432,3.9299,3.9299,3.9299,3.9272,3.9091,3.8435,3.7807,3.7191,3.6508,3.6879,3.7387,3.7387,3.8434,3.9406,0.0,0.0,0.0,0.0,0.0,0.0,0.0,0.0,0.0,0.0,0.0,3.7777,3.6977,3.7615,3.8445,3.9195,3.9337,3.9388,3.9337,3.9388,3.9406,3.9406,3.9406,3.9406,3.9406,3.9406,3.9406,3.9406,3.9406,3.9406,3.9388,3.898,3.88,3.8797,3.8389,3.8202,3.8202,3.8202,3.8202,3.8202,3.8202,3.8202,3.8202,3.8202,3.8217,3.8246,3.8246,3.8696,3.9465,4.8593,4.876,4.8808,0.0,4.8665,4.8741,0.0,0.0,0.0,0.0,4.7674,4.7474,4.7115,4.6959,4.6897,4.6897,4.6874,0.0,0.0,0.0,0.0,4.7107,4.749,4.7707,4.7707,4.7707,4.7707,4.7707,0.0,0.0,4.7309,0.0,0.0,0.0,0.0,0.0,4.5834,4.5179,4.4565,4.3927,4.3119,4.2681,4.2488,0.0,4.212,4.1604,4.1604,4.134,4.0942,4.0538,4.0192,3.9836,3.9432,3.9299,3.9299,3.9299,3.8955,3.8407,3.7793,3.7161,3.6508,3.5894,3.6563,3.7387,3.7387,3.8434,3.9406,3.9406,3.9406,0.0,0.0,0.0,0.0,0.0,0.0,0.0,0.0,0.0,0.0,3.6875,3.7088,3.73,3.751,3.8671,3.9156,3.8538,3.9065,3.9406,3.9406,3.9406,3.9406,3.9406,3.9406,3.9406,3.9406,3.9406,3.9319,3.9159,3.8925,3.88,3.8797,3.8389,3.8277,3.8404,3.8258,3.8202,3.8202,3.8202,3.8202,3.8202,3.8202,3.8507,3.8942,3.8942,3.9654,4.0655,4.8909,4.9187,0.0,4.9796,0.0,0.0,4.8324,4.8344,0.0,4.7389,4.7291,0.0,4.666,4.6382,4.6236,4.6236,4.6188,0.0,4.6182,0.0,0.0,4.6897,4.7407,4.7707,4.7707,4.7707,0.0,4.7707,0.0,0.0,4.7309,0.0,0.0,0.0,0.0,4.5202,4.4462,4.4019,4.3975,4.4144,4.354,4.3096,0.0,4.2804,4.2295,4.1604,4.1604,4.134,4.0942,4.0538,4.0192,3.9836,3.9432,3.9299,3.9299,3.9299,3.883,3.8165,3.756,3.6921,3.6258,3.5651,3.6462,3.7387,3.7387,3.8434,3.9316,3.9017,3.8929,3.8524,3.7404,0.0,0.0,0.0,0.0,0.0,0.0,0.0,0.0,0.0,3.6128,3.6241,3.5829,3.7975,3.921,3.8756,3.9137,3.9406,3.9406,3.9406,3.9406,3.9406,3.9406,3.9406,3.9406,3.9406,3.9301,3.9104,3.8907,3.8745,3.8649,3.8333,3.8258,3.8366,3.824,3.8202,3.8202,3.8202,3.8376,3.8667,3.8928,3.9436,4.0031,4.0031,4.0481,4.1134,4.9188,4.9765,0.0,0.0,0.0,0.0,0.0,4.8008,0.0,4.701,0.0,4.6619,4.6149,4.568,4.5397,4.5397,4.5287,4.5363,4.5671,4.6022,4.6394,4.6776,4.7302,4.7636,4.7707,4.7707,4.7707,0.0,0.0,0.0,0.0,0.0,0.0,0.0,0.0,0.0,0.0,4.2945,4.361,4.464,4.423,4.3605,4.2945,4.2945,4.2383,4.1604,4.1604,4.1318,4.0866,4.0526,4.0137,3.9759,3.9405,3.9299,3.9285,3.9188,3.8703,3.8051,3.7443,3.6784,3.6179,3.574,3.6522,3.7417,3.7524,3.8494,3.9179,3.8421,3.8157,3.7603,3.6041,0.0,0.0,0.0,0.0,0.0,0.0,0.0,0.0,0.0,3.5175,0.0,3.4634,3.7295,3.9068,3.9068,3.9192,3.9283,3.9388,3.9406,3.9406,3.9406,3.9406,3.9388,3.9355,3.9355,3.9247,3.9031,3.8852,3.8649,3.8441,3.8277,3.8202,3.8202,3.8202,3.8202,3.8217,3.8304,3.8725,3.9378,3.9987,4.0583,4.1105,4.1192,4.1221,4.1308,5.0685,0.0,0.0,0.0,0.0,5.0012,4.8311,4.7528,4.71,4.692,4.6548,4.6124,4.5602,4.5463,4.5397,4.5397,4.5384,0.0,0.0,0.0,0.0,4.6238,4.6753,4.7247,4.7678,4.7707,4.7707,0.0,0.0,0.0,0.0,0.0,0.0,0.0,0.0,0.0,4.3711,4.3711,0.0,4.5017,4.4923,4.4413,4.3711,4.3711,4.2833,4.1604,4.1604,4.1123,4.0485,4.0424,3.9961,3.9392,3.9325,3.9299,3.9188,3.8632,3.8053,3.7413,3.6753,3.6132,3.577,3.6211,3.6866,3.7537,3.8093,3.8841,3.9035,3.7761,3.7467,3.6944,3.5294,3.4794,0.0,0.0,0.0,0.0,0.0,0.0,0.0,0.0,0.0,3.5649,3.5487,3.6601,3.7338,3.7338,3.8004,3.8701,3.9355,3.9406,3.9406,3.9406,3.9406,3.9319,3.9141,3.9141,3.8977,3.8608,3.8571,3.846,3.824,3.8221,3.8202,3.8202,3.8202,3.8202,3.8246,3.8797,3.9392,4.0002,4.067,4.1004,4.1163,4.1715,4.1918,4.1932,5.1695,0.0,0.0,0.0,0.0,0.0,0.0,4.7561,4.6593,4.6172,4.6174,4.6005,4.5463,4.5397,4.5397,4.5397,4.5397,4.5291,4.5019,4.549,4.5768,4.5691,4.6466,4.7028,4.728,4.7157,4.7073,4.7073,0.0,0.0,0.0,0.0,0.0,0.0,0.0,4.4266,0.0,0.0,4.5111,4.6012,4.5774,4.4963,4.3904,4.3904,4.2938,4.1604,4.1604,4.1088,4.04,4.04,4.0049,3.9577,3.9365,3.9299,3.9161,3.849,3.7865,3.7251,3.6569,3.5957,3.5669,3.6327,3.6941,3.7584,3.8242,3.8611,3.8407,3.707,3.6382,3.5633,3.4399,3.4293,3.453,3.495,0.0,0.0,0.0,0.0,3.4397,0.0,0.0,0.0,3.5032,3.5776,3.6635,3.7501,3.7947,3.8538,3.937,3.9406,3.9406,3.9406,3.9406,3.9301,3.9104,3.9104,3.8903,3.8497,3.8497,3.8385,3.8202,3.8202,3.8202,3.8217,3.8565,3.8725,3.8797,3.9784,4.035,4.0684,4.1352,4.1613,4.1657,4.1976,4.2092,4.2092,5.2383,5.2434,0.0,0.0,5.1484,5.0479,4.9434,4.8115,4.684,4.5732,4.5841,4.5867,4.545,4.5397,4.5397,4.5397,4.5397,4.5291,4.5019,4.5402,4.5589,4.5472,4.6177,4.6718,4.7062,4.6744,4.6636,0.0,0.0,0.0,0.0,0.0,0.0,0.0,0.0,0.0,0.0,0.0,4.5888,4.6719,4.635,4.5279,4.3904,4.3904,4.2938,4.1604,4.1604,4.1088,4.04,4.04,4.0112,3.972,3.9405,3.9299,3.9148,3.8337,3.7764,3.7221,3.643,3.5862,3.5699,3.6492,3.6926,3.7372,3.816,3.8124,3.7541,3.6257,3.5112,3.4199,3.3703,3.394,3.4267,3.4384,3.4397,0.0,0.0,0.0,3.4397,0.0,0.0,0.0,3.4397,3.5012,3.6116,3.781,3.8108,3.8538,3.937,3.9406,3.9388,3.9337,3.9337,3.9247,3.905,3.8995,3.8811,3.8497,3.846,3.8348,3.8202,3.8202,3.8275,3.8449,3.8971,3.9349,3.9683,4.0684,4.1178,4.1366,4.1889,4.2092,4.2092,4.2092,4.2092,4.2092,0.0,0.0,0.0,0.0,0.0,5.1076,4.9766,4.942,4.8548,4.6405,4.5757,4.5463,4.541,4.5397,4.5397,4.5397,4.5397,4.5291,4.5019,4.5046,4.5354,4.6005,4.5665,4.6123,4.7586,4.7113,4.7106,4.758,4.7508,4.7497,0.0,0.0,0.0,0.0,0.0,0.0,4.6165,4.6116,4.6151,4.627,4.6209,4.5279,4.3904,4.3904,4.2938,4.1604,4.1604,4.1088,4.04,4.04,3.9935,3.9352,3.9312,3.9299,3.9067,3.7838,3.7443,3.7131,3.591,3.5537,3.5787,3.7015,3.6809,3.6648,3.7918,3.7591,3.662,3.5225,3.3858,3.3033,3.3503,3.3639,3.3822,3.4319,3.4397,0.0,0.0,0.0,3.4397,3.4397,0.0,0.0,3.4397,3.4481,3.5216,3.6897,3.7739,3.8538,3.937,3.9406,3.9319,3.9123,3.9123,3.9017,3.8819,3.8664,3.8534,3.8497,3.8315,3.8221,3.8202,3.8202,3.8536,3.9117,3.9175,3.9857,4.0931,4.1047,4.1453,4.2005,4.2078,4.2092,4.2092,4.2092,4.2092,4.2092,0.0,0.0,0.0,0.0,0.0,0.0,0.0,4.9118,4.8618,4.7277,4.6907,4.6789,4.6789,4.6789,4.66,4.6169,4.6117,4.579,4.5053,4.4991,4.5056,4.5182,4.558,4.6074,4.6718,4.7151,4.7255,4.6983,4.6983,0.0,0.0,0.0,0.0,0.0,4.577,4.5916,4.6196,4.6196,4.6196,4.6196,4.6196,4.5279,4.3904,4.3904,4.2938,4.1604,4.1604,4.1088,4.0412,4.049,3.999,3.9299,3.9299,3.9023,3.8521,3.7663,3.7116,3.66,3.5733,3.5789,3.6312,3.718,3.7113,3.7052,3.7984,3.7136,3.5917,3.4994,3.3973,3.33,3.3568,3.3862,3.4149,3.4358,3.4397,3.4397,0.0,0.0,0.0,3.4397,0.0,3.4397,3.4397,3.4868,3.5467,3.6116,3.6492,3.7285,3.8612,3.8682,3.8594,3.8393,3.8852,3.8958,3.8612,3.8534,3.8441,3.8315,3.824,3.8202,3.8217,3.8623,3.9363,4.0336,4.0336,4.0858,4.17,4.17,4.186,4.2092,4.2092,4.2092,4.2092,4.2092,4.2092,4.2092,5.1506,0.0,5.1263,0.0,5.0547,5.0251,4.9309,4.9151,4.8962,4.8444,4.8376,4.8203,4.7755,4.7703,4.7496,4.6962,4.672,4.6233,4.5378,4.5111,4.4937,4.4814,4.535,4.5972,4.6669,4.7288,4.7565,4.7554,4.7319,4.7098,4.6902,4.6393,4.617,4.6196,4.6196,4.6196,4.6196,4.6196,4.6196,4.6179,4.5951,4.5086,4.3869,4.3658,4.2745,4.1604,4.1604,4.1088,4.0412,4.0551,4.0054,3.9352,3.9352,3.8898,3.8236,3.759,3.692,3.6305,3.5908,3.6133,3.6686,3.7494,3.7245,3.6991,3.7657,3.6531,3.5197,3.4781,3.4125,3.366,3.3796,3.4018,3.4214,3.4371,3.4397,3.4397,3.4397,3.4397,0.0,3.4397,3.4397,3.4397,3.4397,3.495,3.5528,3.6016,3.5836,3.6433,3.8108,3.8408,3.8427,3.8169,3.8723,3.8848,3.8497,3.8441,3.8366,3.8277,3.8221,3.8304,3.8522,3.9363,4.0249,4.1105,4.1308,4.1657,4.2092,4.2092,4.2092,4.2092,4.2092,4.2092,4.2092,4.2092,4.2092,4.2092,5.1012,5.0911,5.0719,5.012,5.0011,4.9993,4.9993,4.9993,4.9993,4.9962,4.9962,4.9375,4.7876,4.7703,4.7703,4.7686,4.7014,4.6457,4.6113,4.5402,4.5096,4.5276,4.4852,4.5703,4.8033,4.7572,4.8211,5.0046,4.9264,4.8884,4.8837,4.7582,4.6696,4.6196,4.6196,4.6196,4.6196,4.6196,4.6196,4.6144,4.5401,4.4624,4.3816,4.3096,4.2324,4.1604,4.1604,4.1088,4.0412,4.0551,4.0104,3.9501,3.9501,3.9034,3.8348,3.762,3.692,3.6412,3.6481,3.6493,3.6808,3.808,3.7135,3.6083,3.6759,3.5622,3.4418,3.4405,3.3987,3.3757,3.4293,3.3953,3.3783,3.4306,3.4397,3.4397,3.4397,3.4397,0.0,3.4397,3.4397,3.4397,3.4397,3.4418,3.5101,3.6763,3.6142,3.6433,3.8108,3.894,3.9195,3.88,3.88,3.8705,3.8497,3.8296,3.8296,3.8478,3.8277,3.8551,3.9233,4.0495,4.1091,4.1134,4.1802,4.2092,4.2092,4.2092,4.2092,4.2092,4.2092,4.2092,4.2092,4.2092,4.2092,4.2092,5.0324,5.0299,5.0228,5.0037,5.0011,5.0011,5.0011,5.0011,5.0011,5.0011,5.0011,4.9821,4.9324,4.9272,4.9048,4.8496,4.8139,4.7428,4.6167,4.58,4.5372,4.4845,4.4998,4.5611,4.6717,4.7452,4.8054,4.846,4.8757,4.8526,4.7785,4.7075,4.6637,4.6459,4.6282,4.6196,4.6196,4.6196,4.6196,4.6144,4.5401,4.4624,4.3816,4.3067,4.2295,4.1604,4.1604,4.114,4.0551,4.0729,4.0333,3.9707,3.9292,3.8645,3.798,3.7749,3.6829,3.6031,3.6514,3.686,3.7195,3.7502,3.7083,3.6487,3.616,3.5203,3.4397,3.4397,3.4254,3.4188,3.4358,3.4254,3.4201,3.4371,3.4397,3.4397,3.4397,3.4397,3.4397,3.4397,3.4397,3.4397,3.4397,3.4397,3.4613,3.5162,3.5339,3.6241,3.8108,3.8315,3.8263,3.7985,3.8389,3.8516,3.8296,3.8221,3.8221,3.831,3.8686,3.945,4.051,4.0916,4.0982,4.0759,4.0972,4.1092,4.1092,4.1092,4.1493,4.203,4.1339,4.1514,4.203,4.1318,4.1514,4.2092,5.0011,5.0011,5.0011,5.0011,5.0011,5.0011,5.0011,5.0011,5.0011,5.0011,5.0011,5.0011,5.0011,5.0011,4.9789,4.9289,4.885,4.814,4.7039,4.6306,4.564,4.5041,4.5032,4.5511,4.6525,4.7361,4.8066,4.8605,4.8793,4.8349,4.7291,4.6989,4.676,4.659,4.6423,4.6295,4.6196,4.6196,4.6196,4.6109,4.5068,4.4343,4.3781,4.2745,4.2032,4.1604,4.1604,4.1163,4.0628,4.0835,4.0448,3.9833,3.9526,3.8767,3.7923,3.7575,3.6801,3.6215,3.6892,3.7199,3.737,3.7528,3.7011,3.6241,3.5406,3.4799,3.4397,3.4397,3.4397,3.4397,3.4397,3.4397,3.4397,3.4397,3.4397,3.4397,3.4397,3.4397,3.4397,3.4397,3.4397,3.4397,3.4397,3.4397,3.4654,3.5291,3.5689,3.6719,3.8557,3.8079,3.7815,3.7924,3.8296,3.8404,3.8202,3.8202,3.8333,3.8594,3.9479,4.0321,4.1105,4.0962,4.0793,4.0568,4.0224,4.0267,4.0568,4.0224,4.0639,4.1437,4.0467,4.0467,4.0979,4.0703,4.0781,4.1057,5.0011,5.0011,5.0011,5.0011,5.0011,5.0011,5.0011,5.0011,5.0011,5.0011,5.0011,5.0011,5.0011,5.0011,5.0011,5.0011,4.918,4.8589,4.8409,4.6922,4.5948,4.5703,4.5041,4.5459,4.7119,4.7199,4.8098,4.9938,4.9173,4.8305,4.7331,4.7302,4.7069,4.6649,4.6613,4.6459,4.6221,4.6209,4.6196,4.6074,4.4518,4.3904,4.3728,4.2184,4.1615,4.1626,4.1626,4.1197,4.0664,4.0859,4.0473,3.991,3.9956,3.9249,3.8203,3.7314,3.6906,3.6878,3.7586,3.7546,3.7415,3.7972,3.6858,3.5406,3.4571,3.4397,3.4397,3.4397,3.4397,3.4397,3.4397,3.4397,3.4397,3.4397,3.4397,3.4397,3.4397,3.4397,3.4397,3.4397,3.4397,3.4397,3.4397,3.4397,3.508,3.6685,3.6783,3.7506,3.9192,3.8121,3.7786,3.8497,3.8497,3.8385,3.8202,3.8246,3.8585,3.9252,4.0505,4.1059,4.096,4.071,4.0525,4.0353,3.9483,3.9593,4.0332,3.9461,3.9659,4.0396,3.9461,3.9144,3.9285,4.0116,3.9899,3.9307,5.0011,5.0011,5.0011,5.0011,5.0011,5.0011,5.0011,5.0011,5.0011,5.0011,5.0011,5.0011,5.0011,5.0011,5.0011,5.0011,4.9556,4.902,4.8443,4.7789,4.6917,4.5754,4.5534,4.5547,4.5775,4.6167,4.6992,4.8279,4.8069,4.7838,4.7604,4.7396,4.7236,4.7113,4.6748,4.6566,4.6495,4.6295,4.6196,4.6074,4.4518,4.3904,4.3728,4.2184,4.1703,4.1838,4.1838,4.1503,4.1082,4.1105,4.0645,3.9905,3.8998,3.8877,3.9016,3.8798,3.7872,3.7181,3.8379,3.841,3.796,3.7368,3.5943,3.4654,3.446,3.4397,3.4397,3.4397,3.4397,3.4397,3.4397,3.4397,3.4397,3.4397,3.4397,3.4397,3.4397,3.4397,3.4397,3.4397,3.4397,3.4397,3.4397,3.4397,3.4847,3.5903,3.5655,3.6201,3.7929,3.74,3.7572,3.869,3.8427,3.824,3.8202,3.871,3.9177,3.9599,4.0608,4.0577,3.9662,4.0319,3.9812,3.8441,3.8228,3.8274,3.8441,3.8228,3.8675,3.9439,3.8509,3.8576,3.9144,3.8653,3.8787,3.9219,5.0011,5.0011,5.0011,5.0011,5.0011,5.0011,5.0011,5.0011,5.0011,5.0011,5.0011,5.0011,5.0011,5.0011,5.0011,5.0011,4.9698,4.9332,4.8939,4.8271,4.738,4.6244,4.5889,4.5566,4.5307,4.5843,4.6637,4.7707,4.7707,4.7707,4.7707,4.7543,4.7407,4.728,4.6939,4.6708,4.6578,4.6319,4.627,4.6251,4.47,4.4135,4.4043,4.2504,4.1995,4.2082,4.2082,4.1701,4.1209,4.1209,4.0717,3.9994,3.9366,3.9239,3.9374,3.969,3.8919,3.8066,3.8795,3.8371,3.7401,3.6085,3.508,3.4397,3.4397,3.4397,3.4397,3.4397,3.4397,3.4397,3.4397,3.4397,3.4397,3.4397,3.4397,3.4397,3.4397,3.4397,3.4397,3.4397,3.4397,3.4397,3.4397,3.4397,3.4909,3.6162,3.5561,3.5883,3.7596,3.729,3.7482,3.8486,3.8315,3.8347,3.8652,3.917,3.9516,3.9711,4.0062,3.9875,3.921,3.9285,3.8765,3.7785,3.7361,3.7407,3.7763,3.7338,3.7704,3.8464,3.7533,3.7487,3.7919,3.7831,3.7841,3.7988,5.0011,5.0011,5.0011,5.0011,5.0011,5.0011,5.0011,5.0011,5.0011,5.0011,5.0011,5.0011,5.0011,5.0011,5.0011,5.0011,4.9713,4.9532,4.9503,4.8608,4.7735,4.7005,4.6261,4.5711,4.5381,4.5844,4.6637,4.7707,4.7707,4.7707,4.7707,4.7707,4.7593,4.7352,4.7149,4.6922,4.6696,4.644,4.6452,4.6537,4.5107,4.4563,4.4442,4.3019,4.2425,4.2348,4.2348,4.1874,4.1266,4.1359,4.0896,4.0273,4.023,3.995,3.9691,4.0151,3.9756,3.9195,3.9161,3.8051,3.6543,3.4978,3.4501,3.4397,3.4397,3.4397,3.4397,3.4397,3.4397,3.4397,3.4397,3.4397,3.4397,3.4397,3.4397,3.4397,3.4397,3.4397,3.4397,3.4397,3.4397,3.4397,3.4397,3.4397,3.5039,3.6548,3.5775,3.5975,3.762,3.7357,3.7524,3.8329,3.8362,3.8653,3.9271,3.9576,3.9606,3.9415,3.9287,3.9041,3.8765,3.8092,3.7717,3.7533,3.6745,3.6862,3.7533,3.6722,3.6886,3.751,3.6698,3.6405,3.6499,3.7292,3.7083,3.6523,5.0011,5.0011,5.0011,5.0011,5.0011,5.0011,5.0011,5.0011,5.0011,5.0011,5.0011,5.0011,5.0011,5.0011,5.0011,5.0011,4.9799,4.9619,4.9518,4.9084,4.8496,4.7768,4.7022,4.6322,4.5645,4.5936,4.6637,4.7707,4.7707,4.7707,4.7707,4.7707,4.7668,4.7625,4.7363,4.7225,4.7169,4.6968,4.6899,4.6863,4.5947,4.5173,4.4507,4.3636,4.3,4.256,4.256,4.2071,4.1542,4.2175,4.1774,4.094,4.0523,4.0688,4.0887,3.9931,3.9856,4.0072,3.9897,3.8406,3.6666,3.5736,3.493,3.4397,3.4397,3.4397,3.4397,3.4397,3.4397,3.4397,3.4397,3.4397,3.4397,3.4397,3.4397,3.4397,3.4397,3.4397,3.4397,3.4397,3.4397,3.4397,3.4397,3.4397,3.4724,3.5494,3.523,3.5702,3.7223,3.7063,3.7598,3.901,3.9044,3.9224,3.9624,3.9676,3.9162,3.8096,3.8859,3.836,3.6849,3.7487,3.7384,3.6617,3.6452,3.6476,3.6617,3.6452,3.6499,3.6604,3.6452,3.6405,3.6428,3.657,3.6523,3.6428,5.0011,5.0011,5.0011,5.0011,5.0011,5.0011,5.0011,5.0011,5.0011,5.0011,5.0011,5.0011,5.0011,5.0011,5.0011,5.0011,4.9757,4.9577,4.9503,4.9245,4.8756,4.7938,4.7192,4.6513,4.5929,4.6047,4.6637,4.7707,4.7707,4.7707,4.7707,4.7707,4.7707,4.7678,4.7418,4.7291,4.7298,4.7093,4.7059,4.7082,4.6287,4.5832,4.5489,4.4276,4.3662,4.3407,4.3407,4.284,4.2214,4.3003,4.2588,4.1685,4.1128,4.1148,4.1226,4.0312,4.0155,4.0053,3.8936,3.7871,3.6758,3.5521,3.4799,3.4397,3.4397,3.4397,3.4397,3.4397,3.4397,3.4397,3.4397,3.4397,3.4397,3.4397,3.4397,3.4397,3.4397,3.4397,3.4397,3.4397,3.4397,3.4397,3.4397,3.4293,3.4517,3.5244,3.4587,3.4649,3.5795,3.594,3.63,3.7029,3.8625,3.954,3.9711,3.9015,3.839,3.7808,3.7727,3.7232,3.6405,3.6862,3.6815,3.6405,3.6405,3.6405,3.6405,3.6405,3.6405,3.6405,3.6405,3.6405,3.6405,3.6405,3.6405,3.6405,5.0011,5.0011,5.0011,5.0011,5.0011,5.0011,5.0011,5.0011,5.0011,5.0011,5.0011,5.0011,5.0011,4.995,4.9935,4.9935,4.9668,4.9488,4.9426,4.929,4.89,4.8189,4.7276,4.6665,4.636,4.6191,4.6637,4.7707,4.7707,4.7707,4.7707,4.7707,4.7707,4.7678,4.749,4.7396,4.7385,4.7227,4.7249,4.7342,4.673,4.6483,4.6377,4.5128,4.454,4.4385,4.4385,4.3727,4.3009,4.3793,4.3395,4.2442,4.1848,4.1666,4.1498,4.0731,4.0401,3.9879,3.7946,3.7319,3.6797,3.5107,3.4556,3.4397,3.4397,3.4397,3.4397,3.4397,3.4397,3.4397,3.4397,3.4515,3.4607,3.4607,3.4711,3.4789,3.4789,3.4789,3.4789,3.4789,3.4789,3.4789,3.4789,3.4625,3.4739,3.5281,3.4374,3.4153,3.4968,3.5241,3.5542,3.5909,3.8173,3.9346,3.9271,3.8296,3.7694,3.7477,3.6745,3.6405,3.6405,3.6405,3.6405,3.6405,3.6405,3.6405,3.6405,3.6405,3.6405,3.6405,3.6405,3.6405,3.643,3.6532,3.6518,3.643,5.0011,5.0011,5.0011,5.0011,5.0011,5.0011,5.0011,5.0011,5.0011,5.0011,5.0011,5.0011,5.0011,4.9828,4.9723,4.9723,4.9592,4.9411,4.9229,4.9214,4.9121,4.8934,4.7564,4.6904,4.7119,4.6454,4.6637,4.7707,4.7707,4.7707,4.7707,4.7707,4.7707,4.7707,4.7668,4.7668,4.7668,4.7646,4.7665,4.7668,4.7613,4.7153,4.6486,4.6367,4.5852,4.52,4.52,4.4568,4.384,4.457,4.4159,4.3202,4.2597,4.2424,4.2173,4.0888,4.0401,3.9844,3.7776,3.7223,3.6744,3.4889,3.4418,3.4397,3.4397,3.4397,3.4397,3.4397,3.4397,3.4397,3.4397,3.4855,3.5234,3.5234,3.5652,3.5979,3.5979,3.5979,3.5979,3.5979,3.5979,3.5979,3.5979,3.5799,3.5592,3.5425,3.5137,3.5257,3.5874,3.5935,3.6612,3.8036,3.8296,3.8236,3.7935,3.7851,3.7361,3.6499,3.6428,3.6405,3.6405,3.6405,3.6405,3.6405,3.6405,3.6405,3.6405,3.6405,3.6405,3.6405,3.6405,3.6405,3.6444,3.6959,3.6821,3.648,5.0011,5.0011,5.0011,5.0011,5.0011,5.0011,5.0011,5.0011,5.0011,5.0011,5.0011,5.0011,5.0011,4.9813,4.9708,4.9708,4.9456,4.9275,4.9214,4.9107,4.8844,4.8326,4.7663,4.7265,4.7189,4.6807,4.6954,4.7707,4.7707,4.796,4.8431,4.7924,4.7978,4.8431,4.7924,4.7707,4.7707,4.7707,4.7707,4.7707,4.7707,4.7508,4.7182,4.6693,4.6305,4.5992,4.5676,4.5089,4.454,4.5008,4.4696,4.3954,4.2841,4.2505,4.2237,4.0904,4.0401,3.9983,3.852,3.7667,3.6914,3.5696,3.4889,3.4397,3.4397,3.4397,3.4502,3.4881,3.4959,3.5051,3.5391,3.5639,3.5796,3.5796,3.5966,3.6109,3.6109,3.6109,3.6109,3.6109,3.6109,3.6109,3.6109,3.5762,3.5509,3.542,3.5063,3.4961,3.5181,3.5512,3.6127,3.7091,3.7127,3.7345,3.7808,3.7222,3.6745,3.6405,3.6405,3.6405,3.6405,3.6405,3.6405,3.6405,3.6405,3.6405,3.6405,3.6405,3.6405,3.6405,3.6405,3.6595,3.6884,3.6746,3.6783,3.6884,5.0011,5.0011,5.0011,5.0011,5.0011,5.0011,5.0011,5.0011,5.0011,5.0011,5.0011,5.0011,5.0011,4.9769,4.9649,4.9693,4.935,4.9153,4.9199,4.9061,4.8766,4.8276,4.7673,4.7427,4.7562,4.6972,4.6988,4.7707,4.796,4.8359,4.8884,4.834,4.8377,4.8855,4.8069,4.7707,4.7707,4.7707,4.7707,4.7707,4.7707,4.7707,4.7634,4.7102,4.6773,4.6586,4.6206,4.5617,4.5048,4.5247,4.4998,4.4338,4.2939,4.2205,4.169,4.0783,4.0401,4.0121,3.9328,3.8171,3.6991,3.6116,3.5155,3.4397,3.4397,3.4541,3.4789,3.5208,3.543,3.5665,3.6031,3.6253,3.6384,3.6384,3.6541,3.6671,3.6671,3.6671,3.6671,3.6671,3.6671,3.6671,3.6671,3.6225,3.5945,3.5945,3.5514,3.524,3.524,3.5569,3.5968,3.6405,3.6405,3.6698,3.7348,3.6722,3.6405,3.6405,3.6405,3.6405,3.6405,3.6405,3.6405,3.6405,3.6405,3.6405,3.6405,3.6405,3.6405,3.643,3.6606,3.6884,3.7185,3.6984,3.7034,3.7148,5.0011,5.0011,5.0011,5.0011,5.0011,5.0011,5.0011,5.0011,5.0011,5.0011,5.0011,5.0011,5.0011,4.9698,4.9545,4.9693,4.926,4.9063,4.9184,4.9061,4.9001,4.9001,4.7612,4.7315,4.8382,4.6898,4.6637,4.7707,4.8521,4.892,4.892,4.892,4.8902,4.8884,4.8069,4.7707,4.7707,4.7707,4.7707,4.7707,4.7707,4.7707,4.7707,4.7707,4.7363,4.6897,4.6897,4.6196,4.5303,4.529,4.4998,4.4338,4.2939,4.1591,4.0489,4.0489,4.0401,4.0259,4.0049,3.8642,3.6952,3.5956,3.5053,3.441,3.441,3.4868,3.5312,3.5312,3.5744,3.6109,3.6109,3.6606,3.7011,3.7011,3.7521,3.79,3.79,3.79,3.79,3.79,3.79,3.79,3.79,3.74,3.7108,3.7108,3.6664,3.6405,3.6405,3.6405,3.6405,3.6405,3.6405,3.6405,3.6405,3.6405,3.6405,3.6405,3.6405,3.6405,3.6405,3.6405,3.6405,3.6405,3.6405,3.6405,3.6405,3.6394,3.6417,3.6468,3.6997,3.7186,3.7286,3.7801,3.7651,3.721,5.0011,5.0011,5.0011,5.0011,5.0011,5.0011,5.0011,5.0011,5.0011,5.0011,5.0011,5.0011,5.0011,4.9769,4.9619,4.956,4.9305,4.9124,4.9063,4.9017,4.9001,4.9001,4.844,4.8221,4.8395,4.7761,4.7798,4.854,4.8775,4.9481,5.056,4.9427,4.9191,4.9673,4.8315,4.7707,4.7707,4.7707,4.7707,4.7707,4.7707,4.7707,4.7657,4.728,4.7051,4.6787,4.6054,4.5576,4.5254,4.4917,4.472,4.4338,4.2939,4.1591,4.0489,4.0489,4.0296,4.0081,4.0028,3.8535,3.6933,3.6621,3.5777,3.5025,3.5025,3.5456,3.5979,3.641,3.6619,3.6867,3.7286,3.7521,3.7639,3.7639,3.7782,3.79,3.79,3.79,3.79,3.79,3.79,3.79,3.79,3.74,3.7108,3.7108,3.6664,3.6405,3.6405,3.6405,3.6405,3.6405,3.6405,3.6405,3.6405,3.6405,3.6405,3.6405,3.6405,3.6405,3.6405,3.6405,3.6405,3.6405,3.6405,3.6405,3.6443,3.6808,3.6959,3.7022,3.755,3.7665,3.748,3.7464,3.7227,3.6882,5.0011,5.0011,5.0011,5.0011,5.0011,5.0011,5.0011,5.0011,5.0011,5.0011,5.0011,5.0011,5.0011,4.9813,4.9664,4.9592,4.935,4.9138,4.9001,4.9001,4.9001,4.9001,4.8875,4.8686,4.8412,4.8254,4.8413,4.8902,4.9535,5.0343,5.1278,5.0307,4.9945,5.0046,4.8749,4.7996,4.7707,4.7707,4.7707,4.7707,4.7707,4.7707,4.7636,4.7107,4.6764,4.6466,4.5614,4.5175,4.4984,4.4692,4.4239,4.3575,4.2458,4.1376,4.0489,4.0436,4.0294,4.0084,3.9925,3.8651,3.7372,3.7293,3.6273,3.5351,3.5574,3.6057,3.6567,3.6933,3.7194,3.7469,3.7835,3.79,3.79,3.79,3.79,3.79,3.79,3.79,3.79,3.79,3.79,3.7854,3.7749,3.7687,3.7592,3.7397,3.6781,3.6405,3.6405,3.6405,3.6405,3.6405,3.6405,3.6405,3.6405,3.6405,3.6405,3.6405,3.6405,3.6405,3.6405,3.6405,3.6405,3.6417,3.6607,3.6708,3.6758,3.7311,3.7513,3.7563,3.7991,3.7942,3.7581,3.7418,3.7131,3.6723,5.0011,5.0011,5.0028,5.0097,5.0097,5.0131,5.0183,5.0198,5.0198,5.0195,5.0198,5.0198,5.0198,4.9965,4.9811,4.9781,4.9415,4.9123,4.9001,4.9001,4.9001,4.9001,4.9054,4.8915,4.8513,4.8499,4.8701,4.9119,5.0578,5.1332,5.1405,5.1339,5.0868,5.0053,4.9264,4.8449,4.7707,4.7707,4.7707,4.7707,4.7707,4.7668,4.7565,4.7022,4.6507,4.595,4.542,4.4971,4.4584,4.4528,4.3604,4.2379,4.1706,4.104,4.0472,4.0331,4.034,4.0283,3.9879,3.8994,3.8127,3.799,3.6699,3.5574,3.607,3.6658,3.709,3.709,3.7521,3.79,3.79,3.79,3.79,3.79,3.79,3.79,3.79,3.79,3.79,3.79,3.7877,3.7785,3.7528,3.8096,3.8296,3.7831,3.7002,3.6499,3.6405,3.6405,3.6405,3.6405,3.6405,3.6405,3.6405,3.6381,3.6381,3.6405,3.6405,3.6405,3.6405,3.6405,3.643,3.6505,3.6984,3.7235,3.7299,3.7852,3.809,3.8116,3.8378,3.8115,3.7568,3.7581,3.7171,3.6588,5.0011,5.0011,5.0168,5.0755,5.0858,5.106,5.1632,5.1719,5.1724,5.1712,5.1716,5.1719,5.1719,5.1181,5.0692,5.0433,4.9569,4.9032,4.9001,4.9001,4.9001,4.9001,4.9548,4.967,4.9259,4.9257,4.977,5.0789,5.1126,5.1615,5.2226,5.1592,5.0864,5.0055,4.926,4.8449,4.7707,4.7707,4.7707,4.7707,4.7707,4.7439,4.6999,4.6478,4.5938,4.5407,4.4934,4.4679,4.4514,4.3929,4.3198,4.2379,4.1706,4.104,4.0472,4.0331,4.057,4.0788,4.0556,3.9575,3.874,3.9129,3.7919,3.6658,3.6776,3.7273,3.7704,3.7704,3.7808,3.79,3.79,3.79,3.79,3.79,3.79,3.79,3.79,3.79,3.79,3.79,3.7703,3.7551,3.7505,3.7962,3.8141,3.7831,3.7602,3.7176,3.6428,3.6405,3.6405,3.6405,3.6405,3.6405,3.6405,3.6193,3.6193,3.6405,3.6405,3.6405,3.6405,3.6405,3.662,3.7034,3.716,3.7425,3.7877,3.8442,3.8705,3.873,3.9001,3.8399,3.7369,3.7306,3.6542,3.5526,5.0513,5.0513,5.0755,5.1496,5.1617,5.1752,5.214,5.22,5.2206,5.2188,5.2193,5.2207,5.2207,5.1854,5.1354,5.0663,4.962,4.9001,4.9001,4.9001,4.9001,4.9001,4.9361,4.973,5.008,5.0063,5.0482,5.1302,5.1674,5.2086,5.248,5.206,5.1435,5.0642,4.9828,4.9039,4.825,4.787,4.7543,4.7313,4.7313,4.7006,4.6454,4.5913,4.5533,4.5241,4.4772,4.4367,4.3958,4.3258,4.2583,4.1917,4.1226,4.1017,4.0962,4.0697,4.1027,4.1413,4.1121,4.0456,3.9912,4.0199,3.915,3.794,3.7507,3.7678,3.79,3.79,3.79,3.79,3.79,3.79,3.79,3.79,3.79,3.8047,3.8449,3.8517,3.8517,3.8517,3.8313,3.8076,3.7861,3.7549,3.7453,3.7785,3.7384,3.6932,3.6428,3.6405,3.6405,3.6405,3.6405,3.6405,3.6405,3.6122,3.6074,3.6204,3.6086,3.6223,3.6604,3.6579,3.6879,3.7405,3.7827,3.8178,3.8467,3.8918,3.9104,3.9078,3.8938,3.8126,3.7043,3.7017,3.6246,3.5272,5.1117,5.1203,5.1513,5.2272,5.241,5.2444,5.2565,5.2589,5.2598,5.2598,5.2591,5.2599,5.2599,5.2331,5.1737,5.0682,4.9647,4.9018,4.9001,4.9001,4.9001,4.9001,4.9217,4.9776,5.0679,5.092,5.1175,5.1514,5.2164,5.2498,5.2498,5.2498,5.206,5.1269,5.0461,4.9655,4.8847,4.8033,4.7385,4.6897,4.6897,4.6513,4.5913,4.5472,4.5254,4.5125,4.4748,4.4121,4.3428,4.2869,4.2238,4.1597,4.1024,4.1243,4.1648,4.1288,4.1616,4.202,4.1663,4.1376,4.1166,4.1166,4.0182,3.9002,3.8294,3.8015,3.7946,3.808,3.8001,3.7946,3.808,3.8001,3.79,3.79,3.79,3.8203,3.9077,3.921,3.921,3.921,3.8836,3.8481,3.8154,3.7235,3.6956,3.774,3.7083,3.657,3.6405,3.6405,3.6405,3.6405,3.6405,3.6431,3.6556,3.6235,3.6154,3.6277,3.5927,3.6088,3.6725,3.6824,3.7171,3.7704,3.8441,3.8817,3.8993,3.9161,3.9258,3.9232,3.8521,3.7653,3.6766,3.6534,3.589,3.526,5.122,5.1617,5.2306,5.3115,5.3253,5.3444,5.4082,5.4184,5.42,5.42,5.4201,5.4185,5.4185,5.2905,5.1649,5.0684,4.9731,4.9117,4.9018,4.9001,4.9001,4.9001,5.0112,5.0712,5.07,5.1835,5.2411,5.2351,5.2455,5.2498,5.2498,5.2498,5.206,5.1269,5.0461,4.9655,4.8847,4.8033,4.7385,4.6897,4.6897,4.6298,4.5407,4.5329,4.5048,4.4679,4.4612,4.4131,4.3491,4.3457,4.3022,4.2432,4.2339,4.2278,4.216,4.1936,4.2187,4.2476,4.2299,4.206,4.186,4.186,4.0512,3.9166,3.9033,3.844,3.8103,3.8881,3.8427,3.8125,3.8881,3.8417,3.79,3.79,3.79,3.8203,3.9077,3.921,3.921,3.921,3.8092,3.749,3.7808,3.7694,3.7648,3.7785,3.7671,3.7268,3.6428,3.6405,3.6405,3.6405,3.6405,3.6607,3.7097,3.6601,3.6702,3.737,3.6634,3.6352,3.6469,3.6924,3.744,3.7957,3.8082,3.8557,3.9236,3.8973,3.9024,3.9182,3.8118,3.7325,3.6656,3.55,3.498,3.4944,5.2444,5.2649,5.3099,5.3891,5.3996,5.4116,5.446,5.4496,5.4496,5.4496,5.4496,5.4496,5.4496,5.3365,5.2269,5.1457,5.0452,4.9647,4.9151,4.9035,4.9001,4.9001,4.9896,5.0491,5.0708,5.1603,5.2218,5.2498,5.2498,5.2498,5.2498,5.2498,5.2312,5.194,5.1129,5.0318,4.951,4.8703,4.7637,4.6454,4.6454,4.583,4.4903,4.4903,4.4772,4.4651,4.5066,4.4764,4.4169,4.4188,4.3507,4.2598,4.26,4.272,4.2826,4.2621,4.2864,4.3165,4.2969,4.2472,4.199,4.199,4.0603,3.921,3.921,3.854,3.8148,3.9024,3.889,3.8895,3.9812,3.9664,3.9406,3.9406,3.9406,3.9744,4.0646,4.0774,4.0461,3.9681,3.8115,3.7085,3.7013,3.7026,3.7026,3.7026,3.7026,3.6979,3.6845,3.6846,3.6984,3.7274,3.7274,3.74,3.7638,3.711,3.7022,3.7368,3.7018,3.6928,3.7077,3.7309,3.7712,3.8225,3.8381,3.8672,3.8998,3.871,3.8657,3.8701,3.7747,3.6878,3.6019,3.5136,3.4799,3.4919]},{"header":{"parameterUnit":"m.s-1","parameterCategory":1,"la1":30.6,"la2":28.766,"lo1":-90.7593,"lo2":-88.6598,"dy":0.0162,"dx":0.0183,"nx":116,"ny":114,"refTime":"2023-11-19T18:00:00:Z","depth":0,"parameterNumber":3,"parameterNumberName":"V-component_of_WINDS"},"data":[0.0,0.0,0.0,0.0,0.0,0.0,0.0,0.0,0.0,0.0,0.0,0.0,0.0,0.0,0.0,0.0,0.0,0.0,0.0,0.0,0.0,0.0,0.0,0.0,0.0,0.0,0.0,0.0,0.0,0.0,0.0,0.0,0.0,0.0,0.0,0.0,0.0,0.0,0.0,0.0,0.0,0.0,0.0,0.0,0.0,0.0,0.0,0.0,0.0,0.0,0.0,0.0,0.0,0.0,0.0,0.0,0.0,0.0,0.0,0.0,0.0,0.0,0.0,0.0,0.0,0.0,0.0,0.0,0.0,0.0,0.0,0.0,0.0,0.0,0.0,0.0,0.0,0.0,0.0,0.0,0.0,0.0,0.0,0.0,0.0,0.0,0.0,0.0,0.0,0.0,0.0,0.0,0.0,0.0,0.0,0.0,0.0,0.0,0.0,0.0,0.0,0.0,0.0,0.0,0.0,0.0,0.0,0.0,0.0,0.0,0.0,0.0,0.0,0.0,0.0,0.0,0.0,0.0,0.0,0.0,0.0,0.0,0.0,0.0,0.0,0.0,0.0,0.0,0.0,0.0,0.0,0.0,0.0,0.0,0.0,0.0,0.0,0.0,0.0,0.0,0.0,0.0,0.0,0.0,0.0,0.0,0.0,0.0,0.0,0.0,0.0,0.0,0.0,0.0,0.0,0.0,0.0,0.0,0.0,0.0,0.0,0.0,0.0,0.0,0.0,0.0,0.0,0.0,0.0,0.0,0.0,0.0,0.0,0.0,0.0,0.0,0.0,0.0,0.0,0.0,0.0,0.0,0.0,0.0,0.0,0.0,0.0,0.0,0.0,0.0,0.0,0.0,0.0,0.0,0.0,0.0,0.0,0.0,0.0,0.0,0.0,0.0,0.0,0.0,0.0,0.0,0.0,0.0,0.0,0.0,0.0,0.0,0.0,0.0,0.0,0.0,0.0,0.0,0.0,0.0,0.0,0.0,0.0,0.0,0.0,0.0,0.0,0.0,0.0,0.0,0.0,0.0,0.0,0.0,0.0,0.0,0.0,0.0,0.0,0.0,0.0,0.0,0.0,0.0,0.0,0.0,0.0,0.0,0.0,0.0,0.0,0.0,0.0,0.0,0.0,0.0,0.0,0.0,0.0,0.0,0.0,0.0,0.0,0.0,0.0,0.0,0.0,0.0,0.0,0.0,0.0,0.0,0.0,0.0,0.0,0.0,0.0,0.0,0.0,0.0,0.0,0.0,0.0,0.0,0.0,0.0,0.0,0.0,0.0,0.0,0.0,0.0,0.0,0.0,0.0,0.0,0.0,0.0,0.0,0.0,0.0,0.0,0.0,0.0,0.0,0.0,0.0,0.0,0.0,0.0,0.0,0.0,0.0,0.0,0.0,0.0,0.0,0.0,0.0,0.0,0.0,0.0,0.0,0.0,0.0,0.0,0.0,0.0,0.0,0.0,0.0,0.0,0.0,0.0,0.0,0.0,0.0,0.0,0.0,0.0,0.0,0.0,0.0,0.0,0.0,0.0,0.0,0.0,0.0,0.0,0.0,0.0,0.0,0.0,0.0,0.0,0.0,0.0,0.0,0.0,0.0,0.0,0.0,0.0,0.0,0.0,0.0,0.0,0.0,0.0,0.0,0.0,0.0,0.0,0.0,0.0,0.0,0.0,0.0,0.0,0.0,0.0,0.0,0.0,0.0,0.0,0.0,0.0,0.0,0.0,0.0,0.0,0.0,0.0,0.0,0.0,0.0,0.0,0.0,0.0,0.0,0.0,0.0,0.0,0.0,0.0,0.0,0.0,0.0,0.0,0.0,0.0,0.0,0.0,0.0,0.0,0.0,0.0,0.0,0.0,0.0,0.0,0.0,0.0,0.0,0.0,0.0,0.0,0.0,0.0,0.0,0.0,0.0,0.0,0.0,0.0,0.0,0.0,0.0,0.0,0.0,0.0,0.0,0.0,0.0,0.0,0.0,0.0,0.0,0.0,0.0,0.0,0.0,0.0,0.0,0.0,0.0,0.0,0.0,0.0,0.0,0.0,0.0,0.0,0.0,0.0,0.0,0.0,0.0,0.0,0.0,0.0,0.0,0.0,0.0,0.0,0.0,0.0,0.0,0.0,0.0,0.0,0.0,0.0,0.0,0.0,0.0,0.0,0.0,0.0,0.0,0.0,0.0,0.0,0.0,0.0,0.0,0.0,0.0,0.0,0.0,0.0,0.0,0.0,0.0,0.0,0.0,0.0,0.0,0.0,0.0,0.0,0.0,0.0,0.0,0.0,0.0,0.0,0.0,0.0,0.0,0.0,0.0,0.0,0.0,0.0,0.0,0.0,0.0,0.0,0.0,0.0,0.0,0.0,0.0,0.0,0.0,0.0,0.0,0.0,0.0,0.0,0.0,0.0,0.0,0.0,0.0,0.0,0.0,0.0,0.0,0.0,0.0,0.0,0.0,0.0,0.0,0.0,0.0,0.0,0.0,0.0,0.0,0.0,0.0,0.0,0.0,0.0,0.0,0.0,0.0,0.0,0.0,0.0,0.0,0.0,0.0,0.0,0.0,0.0,0.0,0.0,0.0,0.0,0.0,0.0,0.0,0.0,0.0,0.0,0.0,0.0,0.0,0.0,0.0,0.0,0.0,0.0,0.0,0.0,0.0,0.0,0.0,0.0,0.0,0.0,0.0,0.0,0.0,0.0,0.0,0.0,0.0,0.0,0.0,0.0,0.0,0.0,0.0,0.0,0.0,0.0,0.0,0.0,0.0,0.0,0.0,0.0,0.0,0.0,0.0,0.0,0.0,0.0,0.0,0.0,0.0,0.0,0.0,0.0,0.0,0.0,0.0,0.0,0.0,0.0,0.0,0.0,0.0,0.0,0.0,0.0,0.0,0.0,0.0,0.0,0.0,0.0,0.0,0.0,0.0,0.0,0.0,0.0,0.0,0.0,0.0,0.0,0.0,0.0,0.0,0.0,0.0,0.0,0.0,0.0,0.0,0.0,0.0,0.0,0.0,0.0,0.0,0.0,0.0,0.0,0.0,0.0,0.0,0.0,0.0,0.0,0.0,0.0,0.0,0.0,0.0,0.0,0.0,0.0,0.0,0.0,0.0,0.0,0.0,0.0,0.0,0.0,0.0,0.0,0.0,0.0,0.0,0.0,0.0,0.0,0.0,0.0,0.0,0.0,0.0,0.0,0.0,0.0,0.0,0.0,0.0,0.0,0.0,0.0,0.0,0.0,0.0,0.0,0.0,0.0,0.0,0.0,0.0,0.0,0.0,0.0,0.0,0.0,0.0,0.0,0.0,0.0,0.0,0.0,0.0,0.0,0.0,0.0,0.0,0.0,0.0,0.0,0.0,0.0,0.0,0.0,0.0,0.0,0.0,0.0,0.0,0.0,0.0,0.0,0.0,0.0,0.0,0.0,0.0,0.0,0.0,0.0,0.0,0.0,0.0,0.0,0.0,0.0,0.0,0.0,0.0,0.0,0.0,0.0,0.0,0.0,0.0,0.0,0.0,0.0,0.0,0.0,0.0,0.0,0.0,0.0,0.0,0.0,0.0,0.0,0.0,0.0,0.0,0.0,0.0,0.0,0.0,0.0,0.0,0.0,0.0,0.0,0.0,0.0,0.0,0.0,0.0,0.0,0.0,0.0,0.0,0.0,0.0,0.0,0.0,0.0,0.0,0.0,0.0,0.0,0.0,0.0,0.0,0.0,0.0,0.0,0.0,0.0,0.0,0.0,0.0,0.0,0.0,0.0,0.0,0.0,0.0,0.0,0.0,0.0,0.0,0.0,0.0,0.0,0.0,0.0,0.0,0.0,0.0,0.0,0.0,0.0,0.0,0.0,0.0,0.0,0.0,0.0,0.0,0.0,0.0,0.0,0.0,0.0,0.0,0.0,0.0,0.0,0.0,0.0,0.0,0.0,0.0,0.0,0.0,0.0,0.0,0.0,0.0,0.0,0.0,0.0,0.0,0.0,0.0,0.0,0.0,0.0,0.0,0.0,0.0,0.0,0.0,0.0,0.0,0.0,0.0,0.0,0.0,0.0,0.0,0.0,0.0,0.0,0.0,0.0,0.0,0.0,0.0,0.0,0.0,0.0,0.0,0.0,0.0,0.0,0.0,0.0,0.0,0.0,0.0,0.0,0.0,0.0,0.0,0.0,0.0,0.0,0.0,0.0,0.0,0.0,0.0,0.0,0.0,0.0,0.0,0.0,0.0,0.0,0.0,0.0,0.0,0.0,0.0,0.0,0.0,0.0,0.0,0.0,0.0,0.0,0.0,0.0,0.0,0.0,0.0,0.0,0.0,0.0,0.0,0.0,0.0,0.0,0.0,0.0,0.0,0.0,0.0,0.0,0.0,0.0,0.0,0.0,0.0,0.0,0.0,0.0,0.0,0.0,0.0,0.0,0.0,0.0,0.0,0.0,0.0,0.0,0.0,0.0,0.0,0.0,0.0,0.0,0.0,0.0,0.0,0.0,0.0,0.0,0.0,0.0,0.0,0.0,0.0,0.0,0.0,0.0,0.0,0.0,0.0,0.0,0.0,0.0,0.0,0.0,0.0,0.0,0.0,0.0,0.0,0.0,0.0,0.0,0.0,0.0,0.0,0.0,0.0,0.0,0.0,0.0,0.0,0.0,0.0,0.0,0.0,0.0,0.0,0.0,0.0,0.0,0.0,0.0,0.0,0.0,0.0,0.0,0.0,0.0,0.0,0.0,0.0,0.0,0.0,0.0,0.0,0.0,0.0,0.0,0.0,0.0,0.0,0.0,0.0,0.0,0.0,0.0,0.0,0.0,0.0,0.0,0.0,0.0,0.0,0.0,0.0,0.0,0.0,0.0,0.0,0.0,0.0,0.0,0.0,0.0,0.0,0.0,0.0,0.0,0.0,0.0,0.0,0.0,0.0,0.0,0.0,0.0,0.0,0.0,0.0,0.0,0.0,0.0,0.0,0.0,0.0,0.0,0.0,0.0,0.0,0.0,0.0,0.0,0.0,0.0,0.0,0.0,0.0,0.0,0.0,0.0,0.0,0.0,0.0,0.0,0.0,0.0,0.0,0.0,0.0,0.0,0.0,0.0,0.0,0.0,0.0,0.0,0.0,0.0,0.0,0.0,0.0,0.0,0.0,0.0,0.0,0.0,0.0,0.0,0.0,0.0,0.0,0.0,0.0,0.0,0.0,0.0,0.0,0.0,0.0,0.0,0.0,0.0,0.0,0.0,0.0,0.0,0.0,0.0,0.0,0.0,0.0,0.0,0.0,0.0,0.0,0.0,0.0,0.0,0.0,0.0,0.0,0.0,0.0,0.0,0.0,0.0,0.0,0.0,0.0,0.0,0.0,0.0,0.0,0.0,0.0,0.0,0.0,0.0,0.0,0.0,0.0,0.0,0.0,0.0,0.0,0.0,0.0,0.0,0.0,0.0,0.0,0.0,0.0,0.0,0.0,0.0,0.0,0.0,0.0,0.0,0.0,0.0,0.0,0.0,0.0,0.0,0.0,0.0,0.0,0.0,0.0,0.0,0.0,0.0,0.0,0.0,0.0,0.0,0.0,0.0,0.0,0.0,0.0,0.0,0.0,0.0,0.0,0.0,0.0,0.0,0.0,0.0,0.0,0.0,0.0,0.0,0.0,0.0,0.0,0.0,0.0,0.0,0.0,0.0,0.0,0.0,0.0,0.0,0.0,0.0,0.0,0.0,0.0,0.0,0.0,0.0,0.0,0.0,0.0,0.0,0.0,0.0,0.0,0.0,0.0,0.0,0.0,0.0,0.0,0.0,0.0,0.0,0.0,0.0,0.0,0.0,0.0,0.0,0.0,0.0,0.0,0.0,0.0,0.0,0.0,0.0,0.0,0.0,0.0,0.0,0.0,0.0,0.0,0.0,0.0,0.0,0.0,0.0,0.0,0.0,0.0,0.0,0.0,0.0,0.0,0.0,0.0,0.0,0.0,0.0,0.0,0.0,0.0,0.0,0.0,0.0,0.0,0.0,0.0,0.0,0.0,0.0,0.0,0.0,0.0,0.0,0.0,0.0,0.0,0.0,0.0,0.0,0.0,0.0,0.0,0.0,0.0,0.0,0.0,0.0,0.0,0.0,0.7817,0.0,0.0,0.0,0.0,0.0,0.0,0.0,0.0,0.0,0.0,0.0,0.0,0.0,0.0,0.0,0.0,0.0,0.0,0.0,0.0,0.0,0.0,0.0,0.0,0.0,0.0,0.0,0.0,0.0,0.0,0.0,0.0,0.0,0.0,0.0,0.0,0.0,1.1415,1.0276,0.0,0.0,0.0,0.0,0.0,0.0,0.0,0.0,0.0,0.0,0.0,0.0,0.0,0.0,0.0,0.0,0.0,0.0,0.0,0.0,0.0,0.0,0.0,0.0,0.0,0.0,0.0,0.0,0.0,0.0,0.0,0.0,0.0,0.0,0.0,0.0,0.0,0.0,0.0,0.0,0.0,0.0,0.0,0.0,0.0,0.0,0.0,0.0,0.0,0.0,0.0,0.0,0.0,0.0,0.0,0.0,0.0,0.0,0.0,0.0,0.0,0.0,0.0,0.0,0.0,0.0,0.0,0.0,0.0,0.0,0.0,0.0,0.0,0.0,0.0,0.0,0.0,0.8878,0.0,0.0,0.0,0.0,0.0,0.0,0.0,0.0,0.0,0.0,0.0,0.0,0.0,0.0,0.0,0.0,0.0,0.0,0.0,0.0,0.0,0.0,0.0,0.8364,0.8681,0.9103,0.9844,1.0351,1.0505,1.1024,1.1376,1.1493,1.1501,1.1454,1.1337,1.2057,1.1885,1.0755,0.0,0.0,0.0,0.0,0.0,0.0,0.0,0.0,0.0,0.0,0.0,0.0,0.0,0.0,0.0,0.0,0.0,0.0,0.0,0.0,0.0,0.0,0.0,0.0,0.0,0.0,0.0,0.0,0.0,0.0,0.0,0.0,0.0,0.0,0.0,0.0,0.0,0.0,0.0,0.0,0.0,0.0,0.0,0.0,0.0,0.0,0.0,0.0,0.0,0.0,0.0,0.0,0.0,0.0,0.0,0.0,0.0,0.0,0.0,0.0,0.0,0.0,0.0,0.0,0.0,0.0,0.0,0.0,0.0,0.0,0.9227,0.9591,0.9751,1.0423,1.0764,1.0818,1.0149,1.0146,1.0597,1.0597,0.0,0.0,0.0,0.0,0.0,0.0,0.0,0.0,0.0,0.0,0.0,0.0,0.0,0.0,0.0,0.0,0.0,0.0,0.0,0.0,0.0,0.8451,0.9001,1.0024,0.9707,0.999,1.1267,1.0897,1.089,1.1462,1.1501,1.1227,1.0636,1.1688,1.1687,1.0548,0.0,0.0,1.1372,1.0684,0.9915,0.9109,0.0,0.0,0.0,0.0,0.0,0.0,0.0,0.0,0.0,0.0,0.0,0.0,0.0,0.0,0.0,0.0,0.0,0.0,0.0,0.0,0.0,0.0,0.0,0.0,0.0,0.0,0.0,0.0,0.0,0.0,0.0,0.0,0.0,0.0,0.0,0.0,0.0,0.0,0.0,0.0,0.0,0.0,0.0,0.0,0.7103,0.7429,0.0,0.0,0.0,0.0,0.0,0.0,0.0,0.0,0.0,0.0,0.0,0.0,0.0,1.0201,1.0221,0.9918,0.9928,1.0288,1.0035,1.0321,1.1059,1.1171,1.1456,1.191,1.1792,0.0,1.0597,1.0597,0.0,0.0,0.0,0.0,0.0,0.0,0.0,0.0,0.0,0.0,0.0,0.0,0.0,0.0,0.0,0.0,0.0,0.0,0.0,0.0,0.0,0.8618,0.906,0.9793,0.9929,1.0256,1.0897,1.1015,1.1015,1.0937,1.1298,1.1313,1.0901,1.1745,1.2023,1.1689,1.1575,1.1651,1.1899,1.1559,1.0978,1.0254,0.9794,0.878,0.7381,0.7104,0.0,0.0,0.0,0.0,0.0,0.0,0.0,0.0,0.0,0.0,0.0,0.0,0.0,0.0,0.0,0.0,0.0,0.0,0.0,0.0,0.0,0.0,0.0,0.0,0.0,0.0,0.0,0.0,0.0,0.0,0.0,0.0,0.0,0.0,0.0,0.0,0.0,0.0,0.0,0.8738,0.8394,0.879,0.8609,0.8614,0.0,0.0,0.0,0.0,0.0,0.0,0.0,0.0,0.0,0.9632,1.0527,1.0994,1.0994,1.1123,1.1272,1.1451,1.1272,1.1383,1.1741,1.1741,1.1877,1.2094,1.2094,1.1856,1.144,1.1289,1.1133,1.0984,0.0,0.0,0.0,0.0,1.1051,1.1622,0.0,0.0,0.0,0.0,0.0,0.0,0.0,0.0,0.0,0.0,0.0,0.0,0.8463,0.8798,0.9209,0.9716,1.0206,1.0573,1.0746,1.1227,1.129,1.0771,1.129,1.1479,1.1212,1.176,1.2191,1.2525,1.2024,1.1964,1.2305,1.2095,1.1558,1.075,0.9951,0.8769,0.7368,0.7346,0.7194,0.0,0.0,0.0,0.0,0.0,0.0,0.0,0.0,0.0,0.0,0.0,0.0,0.0,0.0,0.0,0.0,0.0,0.0,0.0,0.0,0.0,0.0,0.0,0.0,0.0,0.0,0.0,0.0,0.0,0.0,0.0,0.0,0.0,0.0,0.0,0.0,0.0,0.0,0.9924,0.9435,0.9783,0.9312,0.9187,0.0,0.0,0.0,0.0,0.0,0.0,1.0312,1.061,1.076,1.0736,1.1225,1.1504,1.1504,1.1899,1.2094,1.2094,1.2094,1.2127,1.2186,1.2186,1.2218,1.2278,1.2278,1.2278,1.2256,1.1931,1.1682,1.1488,1.1348,1.1149,1.0972,1.0972,1.1691,1.263,0.0,0.0,0.0,0.0,0.0,0.0,0.0,0.0,0.0,0.0,0.0,0.8198,0.8466,0.8972,0.9592,1.0374,1.0485,1.0771,1.1407,1.1485,1.1485,1.1454,1.1728,1.1665,1.1212,1.1485,1.187,1.2315,1.2278,1.2285,1.2286,1.1521,1.0732,0.9933,0.9112,0.8595,0.8308,0.7924,0.7694,0.7584,0.0,0.0,0.0,0.0,0.0,0.0,0.0,0.0,0.0,0.0,0.0,0.0,0.0,0.0,0.0,0.0,0.0,0.0,0.0,0.0,0.0,0.0,0.0,0.0,0.0,0.0,0.0,0.0,0.0,0.0,0.0,0.0,0.0,0.0,0.0,0.0,0.0,0.0,0.0,0.9615,0.9643,0.0,0.0,0.0,0.0,1.056,1.055,1.0515,1.0402,1.0947,1.1218,1.1091,1.1718,1.2056,1.2056,1.2083,1.2094,1.2094,1.2094,1.219,1.2369,1.2369,1.2517,1.2751,1.2751,1.2751,1.2737,1.2267,1.2073,1.2056,1.2046,1.2035,1.2019,1.2019,1.2513,1.3157,0.0,0.0,0.0,0.0,0.0,0.0,0.0,0.0,0.7367,0.7763,0.8135,0.8495,0.8854,0.9209,0.9712,1.0437,1.05,1.0771,1.147,1.1658,1.1566,1.1139,1.1501,1.1638,1.1463,1.1729,1.1997,1.2305,1.2305,1.2305,1.228,1.2003,1.144,1.0651,1.0099,0.9524,0.8946,0.8411,0.8011,0.778,0.8338,0.855,0.0,0.0,0.0,0.0,0.0,0.0,0.0,0.0,0.0,0.0,0.0,0.0,0.0,0.0,0.0,0.0,0.0,0.0,0.0,0.0,0.0,0.0,0.0,0.0,0.0,0.0,0.0,0.0,0.0,0.0,0.0,0.0,0.0,0.0,0.0,0.0,0.0,1.0645,1.019,0.0,1.0243,1.0236,1.0324,1.0572,1.0642,1.0762,1.0963,1.1503,1.1793,1.1755,1.211,1.2285,1.2285,1.2454,1.2554,1.2554,1.2554,1.2602,1.2665,1.2665,1.2708,1.2813,1.2813,1.3074,1.3487,1.3328,1.2886,1.2292,1.2154,1.2386,1.2808,1.2808,1.358,1.4623,0.0,0.0,0.0,0.0,0.0,0.0,0.0,0.0,0.777,0.8126,0.8437,0.8833,0.9376,0.9672,1.0015,1.0453,1.0715,1.1073,1.1661,1.1607,1.1526,1.1448,1.1478,1.1545,1.1626,1.1948,1.2169,1.2305,1.2305,1.2305,1.228,1.2021,1.1465,1.0676,1.0132,0.9515,0.8879,0.8613,0.8426,0.8351,0.882,0.9002,0.8976,0.0,0.0,0.0,0.0,0.0,0.0,0.0,0.0,0.0,0.0,0.0,0.0,0.0,0.0,0.0,0.0,0.0,0.0,0.0,0.0,0.0,0.0,0.0,0.0,0.0,0.0,0.0,0.0,0.0,0.0,0.0,0.0,0.0,0.0,0.0,1.2023,1.202,1.1212,1.0813,1.1174,1.0814,1.0726,1.1085,1.1158,1.1325,1.1659,1.2005,1.2228,1.2332,1.247,1.2533,1.2533,1.2708,1.2813,1.2813,1.2813,1.2813,1.2813,1.305,1.3171,1.3195,1.3455,1.3859,1.431,1.431,1.3903,1.3289,1.3164,1.3414,1.3847,1.3847,1.4606,1.5679,0.0,0.0,0.0,0.0,0.0,0.0,0.0,0.8219,0.8313,0.8351,0.8685,0.9208,1.0025,1.0336,1.0485,1.05,1.1087,1.1639,1.204,1.1343,1.1389,1.2436,1.171,1.1433,1.17,1.2095,1.228,1.2305,1.2305,1.2305,1.2286,1.1502,1.0707,0.9914,0.9131,0.8551,0.8197,0.857,0.8951,0.9339,0.9532,0.9606,0.9579,0.0,0.0,0.0,0.0,0.0,0.0,0.0,0.0,0.0,0.0,0.0,0.0,0.0,0.0,0.0,0.0,0.0,0.0,0.0,0.0,0.0,0.0,0.0,0.0,0.0,0.0,0.0,0.0,0.0,0.0,0.0,0.0,0.0,1.3724,1.3371,1.3233,1.3547,1.2677,1.2167,1.2415,1.2047,1.1896,1.2147,1.2191,1.2254,1.2427,1.2443,1.2557,1.2783,1.2813,1.2837,1.2799,1.2824,1.2848,1.281,1.281,1.281,1.2859,1.3551,1.3883,1.3931,1.4742,1.51,1.5124,1.5148,1.5166,1.5183,1.5129,1.5099,1.5123,1.5123,1.5598,1.629,0.0,0.0,0.0,0.0,0.0,0.0,0.8156,0.8245,0.8575,0.9354,0.9221,0.9389,1.0285,1.0012,0.9967,1.0453,1.0667,1.0901,1.1201,1.1209,1.1413,1.1898,1.1566,1.1612,1.2114,1.2095,1.215,1.2305,1.2305,1.2305,1.2305,1.2058,1.1706,1.1174,1.0676,1.0212,0.9822,0.9652,0.9633,0.9747,0.9796,0.9825,0.9798,0.0,0.0,0.0,0.0,0.0,0.0,0.0,0.0,0.0,0.0,0.0,0.0,0.0,0.0,0.0,0.0,0.0,0.0,0.0,0.0,0.0,0.0,0.0,0.0,0.0,0.0,0.0,0.0,0.0,0.0,0.0,0.0,1.4198,1.3698,1.3663,1.3547,1.3217,1.3283,1.342,1.3473,1.3556,1.363,1.3703,1.3877,1.3775,1.3297,1.3423,1.3291,1.2807,1.3311,1.3419,1.3007,1.3599,1.3689,1.3306,1.3306,1.3306,1.3306,1.3534,1.3604,1.3654,1.446,1.5152,1.5723,1.6354,1.679,1.693,1.5612,1.5432,1.5906,1.5906,1.6355,1.7007,0.0,0.0,0.0,0.0,0.0,0.0,0.8441,0.8843,0.9227,0.9488,0.9622,0.9887,1.0433,1.0158,1.0079,1.0469,1.05,1.0689,1.1112,1.1591,1.1758,1.1583,1.1614,1.1818,1.2169,1.2132,1.2169,1.2305,1.2196,1.2124,1.2118,1.1649,1.1231,1.0846,1.0375,1.0057,0.9864,0.971,0.9752,0.9903,0.9903,0.9903,0.9887,0.9771,0.9723,0.9701,0.9556,0.9443,0.9362,0.9362,0.0,0.0,0.0,0.0,0.0,0.0,0.0,0.0,0.0,0.0,0.0,0.0,0.0,0.0,0.0,0.0,0.0,0.0,0.0,0.0,0.0,0.0,0.0,0.0,1.4459,1.4638,1.4581,1.4549,1.4455,1.4247,1.4409,1.4566,1.464,1.4543,1.4519,1.4641,1.4457,1.4181,1.3755,1.3544,1.3283,1.2929,1.334,1.3482,1.3285,1.3733,1.3982,1.4001,1.4001,1.42,1.4562,1.4892,1.5038,1.5089,1.5884,1.648,1.6937,1.7449,1.7795,0.0,0.0,0.0,0.0,0.0,1.7068,1.759,0.0,0.0,0.0,0.0,0.0,0.0,0.8926,0.9636,0.9926,0.9284,0.9897,1.0421,1.0485,1.0421,1.0396,1.0396,1.0407,1.0712,1.1365,1.2081,1.2157,1.1465,1.1799,1.2003,1.2021,1.2206,1.2305,1.2305,1.2062,1.1953,1.1928,1.0908,1.023,0.9845,0.937,0.9142,0.912,0.9292,0.9568,0.9903,0.9903,0.9903,0.9903,0.9903,0.9903,0.9903,0.9903,0.9787,0.9639,0.9639,0.0,0.0,0.0,0.0,0.0,0.0,0.0,0.0,0.0,0.0,0.0,0.0,0.0,0.0,0.0,0.0,0.0,0.0,0.0,0.0,0.0,0.0,0.0,0.0,1.4966,1.5214,1.5812,1.5709,1.5665,1.5935,1.573,1.5639,1.5826,1.5312,1.5095,1.5317,1.4693,1.4238,1.4166,0.0,0.0,0.0,0.0,1.3638,1.3821,1.3923,1.4282,1.4932,1.4932,1.5339,1.6106,1.6819,1.7152,1.7203,1.7935,1.8259,1.8284,1.8359,1.8364,1.8269,1.794,1.7594,1.7309,1.7372,1.7683,1.804,0.0,0.0,0.0,0.0,0.0,0.0,0.9709,0.947,0.9534,1.0354,1.0009,0.991,1.0437,1.0015,0.9686,0.9686,0.9882,1.0248,1.0818,0.0,1.1632,1.1632,1.1873,1.2077,1.2243,1.2286,1.2305,1.2305,1.2245,1.2218,1.2218,1.1994,1.1511,1.0826,1.0713,1.0327,0.9721,0.9768,0.9827,0.9903,0.9903,0.9903,0.9903,0.9903,0.9903,0.9903,0.9903,0.9871,0.9833,0.9833,0.9806,0.9763,0.9763,0.0,0.0,0.0,0.0,0.0,0.0,0.0,0.0,0.0,0.0,0.0,0.0,0.0,0.0,0.0,0.0,0.0,0.0,0.0,0.0,1.4893,1.5345,1.5746,1.5877,1.6301,1.6528,1.6331,1.6475,1.6625,1.6661,1.6761,1.6816,1.6873,1.6732,1.6379,1.5788,1.587,1.5682,1.5072,1.5935,1.6219,1.5835,1.6427,1.6594,1.6302,0.0,0.0,1.6565,1.6728,1.6807,1.6827,1.7688,1.8052,1.8104,1.8824,1.88,1.8269,1.794,1.7594,1.7349,1.7776,1.8009,1.8133,0.0,0.0,0.0,0.0,0.0,0.0,0.9614,0.9508,0.9518,0.9847,0.9907,0.9929,0.9983,0.9702,0.95,0.95,0.9871,1.0268,0.0,1.1224,1.1595,1.1706,1.1984,1.2206,1.2305,1.2305,1.2305,1.2305,1.2176,1.2157,1.2247,1.208,1.1757,1.1299,1.1439,1.1028,1.0218,1.0318,1.018,0.9903,0.9903,0.9903,0.9903,0.9903,0.9903,0.9903,0.9903,0.9903,0.9903,0.9903,0.9903,0.9903,0.9903,1.0105,1.0532,0.0,0.0,0.0,0.0,0.0,0.0,0.0,0.0,0.0,0.0,0.0,0.0,0.0,0.0,1.5297,0.0,0.0,1.541,1.541,1.5812,1.6199,1.6382,1.6697,1.6837,1.6675,1.6917,1.7091,1.7091,1.7207,1.7302,1.7302,1.6974,1.6661,1.6457,1.6221,1.6035,1.5947,1.6499,1.6722,1.654,1.6932,1.7186,1.7358,1.7358,1.7575,1.8003,1.8003,1.8003,1.8029,1.8475,1.8658,1.871,1.9413,1.9461,1.9088,1.892,1.8379,1.773,1.7994,1.8427,1.8912,0.0,0.0,0.0,0.0,0.0,0.0,0.0,0.954,0.9492,0.9145,0.9678,0.9932,0.951,0.9484,0.9542,0.9644,1.0051,1.0448,0.0,1.1328,1.1669,1.1706,1.2058,1.2261,1.2305,1.2305,1.2305,1.2305,1.2082,1.2083,1.2272,1.1885,1.1614,1.1471,1.1577,1.1159,1.0379,1.0563,1.0349,0.9903,0.9903,0.9903,0.9903,0.9903,0.9903,0.9903,0.9903,0.9903,0.9903,0.9903,0.9903,0.9916,1.0048,1.0406,1.0943,1.1669,1.2231,0.0,0.0,0.0,0.0,0.0,0.0,0.0,0.0,0.0,1.5432,1.5432,1.5786,1.6082,1.6075,1.6032,1.6001,1.6001,1.6287,1.6602,1.6866,1.6931,1.6968,1.6968,1.7172,1.7302,1.7302,1.7302,1.7302,1.7302,1.6763,1.6558,1.6894,1.6355,1.63,1.6851,1.6864,1.6931,1.7121,1.7042,1.7349,1.8052,1.8052,1.8473,1.9243,1.9243,1.9243,1.9243,1.9206,1.921,1.9236,1.9857,1.9959,1.9738,1.9836,1.9288,1.838,1.838,1.8904,1.966,0.0,0.0,0.0,0.0,0.0,0.0,0.0,0.0,0.9038,0.939,0.9428,0.9386,0.9322,0.943,0.9686,1.0166,1.0262,0.0,1.1014,1.1298,1.1502,1.1688,1.191,1.2114,1.2305,1.2305,1.2305,1.2305,1.2271,1.2361,1.2533,1.1961,1.1593,1.1396,1.089,1.0404,0.9978,0.9981,0.996,0.9903,0.9903,0.9903,0.9903,0.9903,0.9903,0.9903,0.9903,0.9903,0.9903,0.9903,0.9903,0.9992,1.0532,1.0756,1.1018,1.2157,0.0,1.2808,1.3693,1.4162,1.4408,1.4426,1.4433,1.4394,0.0,0.0,1.4895,1.4895,1.5545,1.6053,1.5932,1.6147,1.6338,1.6338,1.6639,1.6859,1.6895,1.7099,1.7251,1.7251,1.7288,1.7302,1.7302,1.7302,1.7302,1.7302,1.7209,1.733,1.765,1.7866,1.816,1.852,1.8528,1.8549,1.8553,1.8279,1.8184,1.8284,1.8284,1.8533,1.9028,1.9028,1.9028,1.9018,1.8918,1.8865,1.8913,1.9758,1.9714,1.916,1.969,1.9724,1.9432,1.9432,1.9509,1.9752,0.0,0.0,0.0,0.0,0.0,0.0,0.0,0.0,0.0,0.9049,0.9113,0.9177,0.929,0.943,0.971,1.025,0.0,0.0,1.1057,1.1174,1.1255,1.1354,1.1873,1.2201,1.2305,1.2305,1.2305,1.2305,1.2305,1.2452,1.2771,1.2157,1.1947,1.2058,1.1465,1.0906,1.0425,1.0425,1.0218,0.9903,0.9903,0.9903,0.9903,0.9903,0.9903,0.9903,0.9903,0.9903,0.0,0.0,0.9903,1.003,1.0749,1.1142,1.1533,1.258,1.3135,0.0,1.4134,1.4382,1.4536,1.4699,1.4703,1.4707,1.4821,1.5002,1.5136,1.5146,1.5435,1.5782,1.6131,1.7013,1.7436,0.0,1.7379,1.7812,1.722,1.7222,1.7302,1.7302,1.7302,1.7302,1.7302,1.7302,1.7302,1.7302,1.7477,1.7733,1.8055,1.8225,1.8452,1.88,1.8606,1.8503,1.8503,1.8372,1.8299,1.8299,1.8299,1.8545,1.8988,1.8988,1.9167,1.9469,1.9419,1.9548,1.9892,2.0506,2.049,2.014,2.0609,2.0449,1.9965,1.9691,2.0048,2.0794,0.0,0.0,0.0,0.0,0.0,0.0,0.0,0.0,0.0,0.0,0.8877,0.9097,0.9328,0.9446,0.971,1.025,0.0,0.0,0.0,1.1099,1.11,1.1107,1.1756,1.2189,1.2305,1.2305,1.2305,1.2305,1.236,1.2562,1.29,1.2342,1.2169,1.2342,1.1725,1.113,1.055,1.055,1.0293,0.9903,0.9903,0.9903,0.9903,0.9903,0.9903,0.9903,0.9903,0.9903,0.0,0.0,1.0011,1.0274,1.1036,1.1639,1.2259,1.311,1.3775,1.4296,1.4531,1.4682,1.4787,1.498,1.4995,1.5039,1.5332,1.5405,1.5674,1.6634,1.7191,1.729,1.6532,1.7404,1.8128,1.7735,1.808,1.8126,1.7396,1.7302,1.7302,1.7302,1.7302,1.7302,1.7302,1.7302,1.7339,1.7434,1.766,1.7955,1.8284,1.8299,1.8408,1.865,1.8343,1.824,1.8395,1.8299,1.8303,1.8448,1.8448,1.8691,1.9166,1.9166,1.939,1.9734,1.9693,1.9878,2.0288,2.081,2.0886,2.0704,2.1313,2.116,2.0578,2.0425,2.0808,2.1512,0.0,0.0,0.0,0.0,0.0,0.0,0.0,0.0,0.0,0.0,0.0,0.0,0.0,0.95,0.971,0.0,0.0,0.0,0.0,1.1093,1.1093,1.1094,1.1502,1.1892,1.228,1.2305,1.2305,1.2305,1.2507,1.2691,1.29,1.2489,1.2095,1.1706,1.1093,1.0494,0.9916,0.9916,0.9916,0.9903,0.9903,0.9903,0.9903,0.9903,0.9903,0.9903,0.9903,0.0,0.0,0.0,1.0293,1.0887,1.1484,1.2311,0.0,1.3786,1.4401,1.4871,1.4885,1.5139,1.538,1.5374,1.5374,1.5392,1.5399,1.5397,1.6357,1.9754,2.1733,2.1548,1.7198,1.6899,1.7926,1.9787,1.8543,1.7326,1.7302,1.7302,1.7302,1.7302,1.7302,1.7302,0.0,1.7302,1.7434,1.7748,1.7784,1.7955,1.8284,1.8299,1.8306,1.8321,1.7999,1.8071,1.8589,1.8277,1.8326,1.879,1.879,1.9059,1.9579,1.9579,1.9579,1.9604,1.9405,1.932,1.9399,2.0248,2.0381,2.0153,2.1406,2.1671,2.1445,2.2072,2.1939,2.1602,0.0,0.0,0.0,0.0,0.0,0.0,0.0,0.0,0.0,0.0,0.0,0.0,0.0,0.0,0.0,0.0,0.0,0.0,0.0,1.1347,1.1509,1.1502,1.188,1.2164,1.2305,1.2305,1.2305,1.2305,1.2507,1.2691,1.29,1.2489,1.2095,1.1669,1.1074,1.0457,0.9903,0.9903,0.9903,0.9903,0.9903,0.9903,0.9903,0.9903,0.9903,0.9903,0.0,0.0,0.0,0.0,1.096,1.1091,1.2762,1.3206,1.3305,1.4291,1.4906,1.5365,1.593,1.6374,1.6658,1.6603,1.686,1.731,1.8074,1.9415,2.0841,2.2028,2.271,2.2637,2.1125,2.102,2.1086,2.0893,2.0494,1.9991,1.933,1.9208,1.8987,1.838,1.8288,0.0,0.0,0.0,0.0,1.7762,1.7792,1.7955,1.8284,1.8094,1.7977,1.7977,1.7995,1.809,1.8278,1.8466,1.8643,1.8804,1.9165,1.944,1.9623,1.992,2.0056,2.0065,1.9985,1.9952,2.0,2.0572,2.0846,2.0982,2.1637,2.1971,2.2138,2.2862,2.2982,2.285,0.0,0.0,0.0,0.0,0.0,0.0,0.0,0.0,0.0,0.0,0.0,0.0,0.0,0.0,0.0,0.0,0.0,0.0,0.0,0.0,1.175,1.1918,1.2165,1.2306,1.2305,1.2305,1.2305,1.2305,1.2562,1.2764,1.29,1.2783,1.236,1.1688,1.1298,1.0663,0.9903,0.9903,0.9951,1.0027,0.9941,0.9957,1.0027,0.9935,0.9903,0.0,0.0,0.0,0.0,1.1116,1.1171,1.1218,1.2921,1.3575,1.3887,1.4814,1.5221,1.5557,1.623,1.6868,1.7503,1.8243,1.8307,1.8697,2.0503,2.2054,2.3107,2.3113,2.3104,2.3096,2.3093,2.311,2.2818,2.2023,2.1675,2.1365,2.0932,2.0632,2.0282,1.9815,1.9761,1.9593,0.0,0.0,0.0,1.7986,1.7904,1.7948,1.8099,1.8102,1.8028,1.7909,1.8201,1.8404,1.8527,1.8904,1.9165,1.9333,1.9957,2.0116,1.9874,2.0442,2.069,2.069,2.069,2.069,2.0708,2.097,2.1214,2.145,2.1898,2.2382,2.2875,2.3602,2.3851,2.3851,0.0,0.0,0.0,0.0,0.0,0.0,0.0,0.0,0.0,0.0,0.0,0.0,0.0,0.0,0.0,0.0,0.0,0.0,0.0,0.0,0.0,1.2272,1.2289,1.2306,1.2305,1.2305,1.2305,1.2305,1.2691,1.29,1.2918,1.3309,1.2856,1.1706,1.1706,1.1037,0.9903,0.9903,1.0056,1.0256,0.9994,1.0043,1.025,0.9989,0.0,0.0,0.0,0.0,0.0,0.0,1.1022,1.1411,1.2165,1.3533,1.4919,1.5316,1.5432,1.5526,1.5954,1.6777,1.8025,2.0099,1.9723,1.9572,2.2383,2.3061,2.3095,2.3098,2.3091,2.3091,0.0,0.0,2.3095,2.3095,2.2122,2.1521,2.2118,2.1537,2.1194,0.0,0.0,0.0,0.0,0.0,0.0,1.8484,0.0,1.794,1.7871,1.8305,1.8438,1.8141,1.8596,1.8988,1.9314,1.953,1.986,2.0349,2.1077,2.1064,2.0434,2.1172,2.1522,2.1522,2.1504,2.1495,2.1495,2.1445,2.1468,2.1579,2.2205,2.2896,2.3634,2.4261,2.4497,2.4497,0.0,0.0,0.0,0.0,0.0,0.0,0.0,0.0,0.0,0.0,0.0,0.0,0.0,0.0,0.0,0.0,0.0,0.0,0.0,0.0,0.0,0.0,0.0,0.0,0.0,0.0,0.0,0.0,0.0,1.29,1.2918,1.3309,1.2856,1.1706,1.1706,1.1037,0.9903,0.9903,0.9941,0.9989,0.0,0.9941,0.9989,0.0,0.0,0.0,0.0,0.0,0.0,0.0,0.0,1.3679,1.3865,1.4529,1.5351,1.5801,1.5918,1.6276,1.7846,1.8735,1.9488,2.0667,2.1472,2.1966,2.2036,2.26,2.3102,2.3103,2.3091,2.3091,0.0,0.0,0.0,2.3103,2.3111,0.0,2.3344,2.3446,0.0,2.268,0.0,2.2298,2.1505,2.2123,0.0,0.0,1.8232,1.7825,1.8651,1.8394,1.8357,1.8596,1.9119,1.9432,1.9515,1.9911,2.0323,2.0752,2.1477,2.1905,2.2039,2.2843,2.318,2.3161,2.2828,2.2665,2.2646,2.2282,2.2457,2.2982,2.3157,2.3646,2.4261,2.4433,2.4497,2.4497,0.0,0.0,0.0,0.0,0.0,0.0,0.0,0.0,0.0,0.0,0.0,0.0,0.0,0.0,0.0,0.0,0.0,0.0,0.0,0.0,0.0,0.0,0.0,0.0,0.0,0.0,0.0,0.0,0.0,0.0,0.0,1.3046,1.2599,1.1688,1.1428,1.0775,0.9903,0.0,0.0,0.0,0.0,0.0,0.0,0.0,0.0,0.0,0.0,0.0,0.0,0.0,0.0,1.4155,1.4718,1.5122,1.5439,1.5719,1.6059,1.6621,1.7751,1.8899,1.9947,2.0554,2.1904,2.296,2.2435,2.2709,2.3091,2.3091,2.3091,2.3091,2.3091,2.3091,0.0,0.0,0.0,0.0,2.432,2.4551,2.4578,0.0,2.4298,0.0,2.3515,2.3967,2.3887,0.0,2.0781,1.913,1.8296,1.9137,1.976,2.0024,2.0957,2.1272,2.091,2.185,2.2082,2.1655,2.2728,2.3195,2.3149,2.3727,2.3984,2.3955,0.0,2.3286,2.3267,2.3003,2.3135,2.3503,2.3503,2.3916,2.4497,2.4497,2.4497,2.4497,0.0,0.0,0.0,0.0,0.0,0.0,0.0,0.0,0.0,0.0,0.0,0.0,0.0,0.0,0.0,0.0,0.0,0.0,0.0,0.0,0.0,0.0,0.0,0.0,0.0,0.0,0.0,0.0,0.0,0.0,0.0,0.0,0.0,0.0,0.0,0.0,0.0,0.0,0.0,0.0,0.0,0.0,0.0,0.0,0.0,0.0,0.0,0.0,0.0,0.0,1.3458,1.3947,1.506,1.5396,1.5433,1.5598,1.6199,1.6825,1.7003,1.837,1.9857,2.0439,2.1841,2.3091,2.3091,2.3091,2.3113,2.3144,2.3113,2.3113,2.3144,2.3157,2.3303,2.3721,0.0,2.4206,2.4998,2.5141,2.5303,2.5669,2.5917,2.6032,2.5963,2.5712,2.5846,2.6535,2.4335,2.1574,1.8323,2.0338,2.1737,2.2039,2.3178,2.3453,2.2759,2.4095,2.41,2.2841,2.417,2.4516,2.4032,2.4292,2.4431,2.4411,2.3925,2.3723,2.3714,2.3654,2.3634,2.3634,2.3634,2.398,2.4497,2.4497,2.4497,2.4497,0.0,0.0,0.0,0.0,0.0,0.0,0.0,0.0,0.0,0.0,0.9085,0.0,0.0,0.0,0.0,0.0,0.0,0.0,0.0,0.0,0.0,0.0,0.0,0.0,0.0,0.0,0.0,0.0,0.0,0.0,0.0,0.0,0.0,0.0,0.0,0.0,0.0,0.0,0.0,0.0,0.0,0.0,0.0,0.0,0.0,0.0,0.0,0.0,0.0,0.0,1.3201,1.5115,1.534,1.5405,1.5619,1.6669,1.7093,1.7432,1.8547,1.9124,1.99,2.2047,2.284,2.3091,2.3091,2.3091,0.0,0.0,2.3254,2.3166,2.3394,2.3428,2.3511,2.3765,2.4274,2.4746,2.5071,2.5391,2.562,0.0,2.5732,2.5634,2.531,2.5909,0.0,0.0,2.6269,2.533,2.2797,2.1985,2.2438,2.4262,2.399,2.3723,2.3593,2.3854,2.4002,2.4007,2.4537,2.4904,2.5143,2.5468,2.5603,2.5573,2.5118,0.0,2.4891,2.4489,2.4325,2.4325,2.4325,2.439,2.4497,2.4497,2.4497,2.4497,0.0,0.0,0.0,0.0,0.0,0.0,0.0,0.0,0.0,0.0,0.8697,0.903,0.0,0.0,0.0,0.0,0.0,0.0,0.0,0.0,0.0,0.0,0.0,0.0,0.0,0.0,0.0,0.0,0.0,0.0,0.0,0.0,0.0,0.0,0.0,0.0,0.0,0.0,0.0,0.0,0.0,0.0,0.0,0.0,0.0,0.0,0.0,0.0,0.0,0.0,1.4754,1.6257,1.5619,1.5842,1.6514,1.7131,1.7294,1.7666,1.9316,2.0025,2.061,2.2015,2.2731,2.3091,2.3091,0.0,0.0,0.0,2.3297,2.3351,2.3482,2.3692,0.0,2.4257,2.4805,2.5264,2.5581,2.5779,2.5965,2.6096,2.6241,2.6258,0.0,2.6567,2.6853,2.6625,2.7047,2.6802,2.5674,2.4947,2.5051,2.6128,2.5812,2.5409,2.5007,2.5181,2.5125,2.4873,2.5201,2.5478,2.5658,2.556,2.5544,2.5513,2.5046,2.4828,2.4817,2.459,2.4497,2.4497,2.4497,2.4497,2.4497,2.4497,2.4497,2.4497,0.0,0.0,0.0,0.0,0.0,0.0,0.0,0.9196,0.8913,0.8443,0.8236,0.8536,0.9637,1.0003,1.0357,0.0,0.0,0.0,0.0,0.0,0.0,0.0,0.0,0.0,0.0,0.0,0.0,1.1959,1.2168,0.0,0.0,0.0,0.0,0.0,1.0161,0.0,0.0,0.0,0.0,0.0,0.0,0.0,0.0,0.0,0.0,0.0,0.0,0.0,0.0,0.0,1.6252,1.7139,1.611,1.65,1.7311,1.7302,1.7296,1.7721,1.9678,2.0891,2.1676,2.1919,2.2555,2.3113,2.3157,2.3351,0.0,2.3276,2.3428,2.3569,2.3569,2.3993,2.4464,0.0,2.5285,2.5757,2.6065,2.61,2.6197,0.0,2.6651,0.0,2.6805,2.7058,0.0,2.7214,2.7262,2.731,2.7308,2.7307,2.7309,2.7309,2.7309,2.6948,2.6216,2.6464,2.6238,2.5498,2.5685,2.574,2.572,2.5263,2.5056,2.5024,2.4652,2.4497,2.4497,2.4497,2.4497,2.4497,2.4497,2.4497,2.4497,2.4497,2.4497,2.454,0.0,0.0,0.0,0.0,0.0,0.0,0.0,0.9213,0.8727,0.867,0.8034,0.7764,0.8244,0.8945,0.9564,0.0,0.0,0.0,0.0,0.0,0.0,0.0,0.0,0.0,0.0,0.0,0.0,1.0852,1.0871,0.0,0.0,0.0,0.0,0.0,0.0,0.9903,0.9903,0.0,0.0,0.0,0.0,0.0,0.0,0.0,0.0,0.0,0.0,0.0,0.0,0.0,0.0,1.7285,1.7155,1.722,1.7303,1.7309,0.0,0.0,1.9666,2.1531,2.2918,2.2969,2.3047,2.3166,2.3416,0.0,2.3547,2.3711,2.3754,2.3776,2.3776,2.4355,0.0,0.0,0.0,2.6135,2.6103,2.61,2.6197,2.6472,0.0,0.0,2.652,2.677,0.0,2.6948,2.7167,2.7296,2.7306,2.7296,2.7309,2.7309,2.7309,2.7055,2.6561,2.6589,2.6361,2.5846,2.5458,2.5263,2.5253,2.4766,2.4559,2.4559,2.4518,2.4497,0.0,2.4497,2.4497,2.4497,2.4497,2.4497,2.4497,2.4497,2.4497,2.4615,0.0,0.0,0.0,0.0,0.0,0.0,0.0,0.9621,0.9075,0.8103,0.7695,0.7173,0.6325,0.6743,0.7638,0.0,0.0,0.0,0.0,0.0,0.0,0.0,0.0,0.0,0.0,0.0,0.0,1.165,1.1181,0.0,0.0,0.0,0.0,0.0,0.0,0.9903,0.9903,0.0,0.0,0.0,0.0,0.0,0.0,0.0,0.0,0.0,0.0,0.0,1.5387,0.0,0.0,0.0,1.72,1.7296,0.0,0.0,1.7302,1.7715,1.9664,2.1631,2.3114,2.311,2.3091,2.3157,2.3438,0.0,2.3569,2.3754,2.3797,2.3841,2.4024,2.4732,0.0,0.0,0.0,0.0,2.6596,2.6578,2.6688,2.6952,2.6904,0.0,0.0,0.0,2.7153,2.7153,2.7238,2.7309,2.7309,2.7309,2.7127,2.677,2.6837,2.6643,2.6177,2.5896,2.5645,2.5459,2.5015,2.4776,2.4766,2.458,2.4497,2.4497,2.4497,2.4497,0.0,2.4497,2.4497,2.4497,2.4497,2.4497,2.4561,2.5084,2.5285,2.5411,0.0,0.0,0.0,0.0,0.0,0.0,0.9903,0.9632,0.8966,0.7678,0.7069,0.6312,0.5132,0.525,0.6124,0.784,0.0,0.0,0.0,0.0,0.0,0.0,0.0,0.0,0.0,0.0,0.0,1.2297,1.1633,1.0705,0.0,0.0,0.9835,0.9903,0.0,0.0,0.0,0.0,0.0,0.0,0.0,0.0,0.0,0.0,0.0,0.0,0.0,0.0,0.0,0.0,0.0,0.0,0.0,0.0,0.0,0.0,1.7302,1.7769,1.9911,2.1491,2.264,2.3015,2.3091,2.3157,0.0,0.0,2.3624,2.3776,2.3905,2.4086,2.4358,2.5122,0.0,0.0,0.0,2.6986,2.69,2.69,2.6996,0.0,0.0,2.7214,0.0,2.7309,2.7309,2.7309,2.7309,2.7309,2.7309,2.7175,2.69,2.6468,2.6423,2.6167,2.5689,2.5366,2.5117,2.4983,2.4652,2.4497,2.4497,2.4497,2.4497,2.4497,2.4497,2.4497,0.0,2.4497,2.4497,2.4497,2.4497,2.4658,2.4967,2.5579,2.5965,2.6318,0.0,0.0,0.0,0.0,0.0,0.0,0.0,0.8999,0.8125,0.7579,0.6051,0.5012,0.5004,0.5004,0.5356,0.6241,0.0,0.0,0.0,0.0,0.0,0.0,0.0,0.0,0.0,0.0,0.0,1.23,1.1954,1.0746,0.8723,0.932,0.9717,0.9903,0.0,0.0,0.0,0.0,0.0,0.0,0.0,0.0,0.0,0.0,0.0,0.0,0.0,0.0,0.0,0.0,0.0,0.0,0.0,1.793,1.8156,0.0,1.7302,1.7877,2.0477,2.1202,2.1514,2.2791,2.3091,2.3157,0.0,2.3646,2.3797,2.3797,2.4175,2.4577,2.4832,2.5451,2.5962,2.6158,0.0,0.0,2.6948,2.69,2.6996,0.0,0.0,2.702,2.7262,2.7309,2.7309,2.7309,2.7309,0.0,2.7309,2.6851,2.6592,2.6592,2.6146,2.5678,2.5199,2.5211,2.4984,2.4507,2.4497,2.4497,2.4497,2.4497,2.4497,2.4497,2.4497,2.4497,0.0,2.4497,2.4497,2.4497,2.4497,2.5041,2.5788,2.5798,2.6338,2.7232,0.0,0.0,0.0,0.0,0.0,0.0,0.0,0.9616,0.8521,0.6105,0.5331,0.4993,0.5004,0.554,0.5993,0.628,0.0,0.0,0.0,0.0,0.0,0.0,0.0,0.0,0.0,0.0,0.0,0.0,0.0,0.9424,1.0467,1.0011,0.9847,0.99,0.99,1.0029,0.0,0.0,0.0,0.0,0.0,0.0,0.0,0.0,0.0,0.0,0.0,0.0,0.0,0.0,0.0,0.0,0.0,0.0,0.0,1.7473,1.7296,1.7856,2.0491,2.1202,2.1514,2.2791,2.3091,2.321,2.3602,2.3646,2.3711,2.4186,2.4528,2.4838,2.5048,2.5799,2.6403,2.6455,2.6938,0.0,0.0,0.0,0.0,2.7286,2.7225,2.7214,0.0,0.0,2.7309,2.7309,2.7309,2.7164,2.683,2.6374,2.6115,2.6115,2.5668,2.5201,2.4724,2.4714,2.4642,2.4497,2.4497,2.4497,2.4497,2.4497,2.4497,2.4497,2.4497,2.4497,2.4497,2.4497,2.4497,2.4561,2.5168,2.5568,2.5944,2.718,2.7819,2.8171,0.0,0.0,0.0,0.0,0.0,0.0,0.0,0.9134,0.8041,0.5347,0.5002,0.4993,0.5004,0.5779,0.6294,0.6303,0.0,0.0,0.0,0.0,0.0,0.0,0.0,0.0,0.0,0.0,0.0,0.0,0.0,0.0,0.0,0.0,1.0432,1.042,1.042,0.0,0.0,0.0,0.0,0.0,0.0,0.0,1.1305,0.0,0.0,0.0,0.0,0.0,0.0,0.0,0.0,0.0,0.0,0.0,0.0,0.0,1.7778,1.8679,2.0476,2.1176,2.1684,2.2935,2.3254,0.0,2.3624,2.3742,2.3923,2.4529,2.484,2.516,2.5633,2.6219,2.6654,2.6853,2.7123,2.7309,0.0,0.0,0.0,2.7309,0.0,0.0,0.0,2.7309,2.7309,2.7309,2.7143,2.6915,2.6625,2.6001,2.5637,2.5637,2.518,2.4808,2.4497,2.4497,2.4497,2.4497,2.4497,2.4497,2.4497,2.4497,2.4497,2.4497,2.4497,2.4497,0.0,2.4497,2.47,2.5041,2.5579,2.6214,2.6955,2.8091,2.8712,2.9072,0.0,0.0,0.0,0.0,0.0,0.0,0.0,0.0,0.0,0.0,0.5002,0.4993,0.5004,0.5779,0.6294,0.0,0.0,0.0,0.0,0.0,0.0,0.0,0.0,0.0,0.0,0.0,0.0,1.4101,1.3838,1.2872,1.1303,0.0,0.0,1.1305,1.1305,1.1065,1.0616,1.018,0.9995,1.0082,1.0957,1.1305,0.0,0.0,0.0,0.0,0.0,0.0,0.0,0.0,0.0,0.0,0.0,0.0,0.0,0.0,0.0,0.0,0.0,2.1163,2.2015,2.3239,2.3553,2.3563,2.3636,2.3995,0.0,2.4883,2.5151,2.5563,2.6436,2.6623,2.6778,2.7237,2.7309,2.7309,0.0,2.7309,0.0,0.0,2.7309,0.0,2.7309,2.7309,2.7309,2.7309,2.6884,2.6581,2.654,2.5677,2.5168,2.5159,2.4724,2.4497,2.4497,2.4497,2.4497,2.4497,2.4497,2.4497,2.4497,2.4497,2.4497,0.0,2.4497,2.4497,2.4497,2.4561,2.5062,2.5798,2.5944,2.7017,2.8502,2.8561,2.9099,2.9792,0.0,0.0,0.0,0.0,0.0,0.0,0.0,0.0,0.0,0.0,0.4993,0.4993,0.5004,0.5779,0.6294,0.0,0.0,0.0,0.0,0.0,0.0,0.0,0.0,0.0,0.0,0.0,0.0,1.4104,1.1275,1.0379,1.1299,1.131,0.0,0.0,0.0,1.1235,1.1123,1.1011,1.0968,1.0995,1.1198,1.1295,0.0,0.0,0.0,0.0,1.453,1.5558,0.0,0.0,0.0,0.0,0.0,0.0,0.0,0.0,1.9546,2.0808,2.106,0.0,2.228,2.3688,2.4031,2.421,0.0,0.0,0.0,0.0,0.0,2.6343,2.655,2.6882,2.7185,2.7289,2.7309,2.7309,2.7309,0.0,0.0,2.7309,2.7309,2.7309,2.7309,2.7309,2.7309,2.7309,2.6884,2.6436,2.6084,2.5501,2.5046,2.4673,2.4559,2.4497,2.4497,2.4497,2.4497,2.4497,2.4497,2.4497,2.4497,2.4497,2.4497,2.4497,2.4497,2.4497,2.4561,2.5221,2.5621,2.5944,2.7322,2.8131,2.8581,2.9248,2.9624,2.9792,0.0,0.0,0.0,0.0,0.0,0.0,0.0,0.0,0.0,0.0,0.0,0.0,0.0,0.0,0.0,0.0,0.0,0.0,0.0,0.0,0.0,0.0,0.0,0.0,0.0,0.0,0.0,0.0,0.0,0.9519,0.0,0.0,0.0,0.0,0.0,1.1305,1.1305,1.1305,1.1305,1.1305,1.1295,0.0,0.0,0.0,0.0,0.0,1.4413,1.5379,0.0,1.6648,1.6904,1.7124,0.0,0.0,0.0,0.0,1.9263,2.0226,2.0669,2.189,2.3232,2.412,2.4586,2.4987,2.548,0.0,0.0,0.0,0.0,2.6677,2.6871,2.7133,2.7309,2.7309,2.7309,0.0,0.0,0.0,2.7309,2.7309,2.7309,2.7309,0.0,2.7309,2.7216,2.7009,2.654,2.6084,2.5606,2.5139,2.4755,2.4507,2.4497,2.4497,2.4497,2.4497,2.4497,2.4497,2.4497,2.4497,2.4497,2.4497,2.4497,2.4497,2.4497,2.4497,2.4529,2.502,2.5668,2.6524,2.778,2.8624,2.915,2.9624,2.9792,2.9792,0.0,0.0,0.0,0.0,0.0,0.0,0.0,0.0,0.0,0.0,0.0,0.0,0.0,0.0,0.0,0.0,0.0,0.0,0.0,0.0,0.0,0.0,0.0,0.0,0.0,0.0,0.0,0.0,0.0,0.0,0.0,0.0,1.1311,0.0,1.1305,1.1305,1.1305,1.1305,1.1305,1.1305,1.1305,0.0,0.0,0.0,0.0,0.0,0.0,0.0,0.0,1.6644,1.7076,1.7257,1.7603,0.0,0.0,0.0,0.0,0.0,2.0232,2.2351,2.4379,2.4503,2.5116,2.5699,2.578,0.0,0.0,0.0,0.0,0.0,2.7237,2.7309,0.0,0.0,0.0,0.0,2.7309,2.7309,2.7309,2.7309,2.7309,0.0,2.7309,2.7309,2.7112,2.6633,2.6167,2.5689,2.5232,2.4745,2.4497,2.4497,2.4497,2.4497,2.4497,2.4497,2.4497,2.4497,2.4497,2.4497,2.4497,2.4497,2.4497,2.4497,0.0,0.0,2.4521,2.4693,2.5681,2.7172,2.7961,2.8895,2.9792,2.9792,2.9792,2.9811,0.0,0.0,0.0,0.0,0.0,0.0,0.0,0.0,0.0,0.0,0.0,0.0,0.0,0.0,0.0,0.0,0.0,0.0,0.0,0.0,0.0,0.0,0.0,0.0,0.0,0.0,0.0,0.0,0.0,0.0,1.1299,1.1305,1.13,1.1305,1.1305,1.1305,1.1305,1.1305,1.1305,1.1305,1.1305,0.0,0.0,0.0,0.0,0.0,0.0,0.0,0.0,1.708,1.745,1.7747,1.8095,0.0,0.0,0.0,0.0,0.0,2.131,2.3178,2.501,2.4794,2.5436,2.6209,2.6605,0.0,0.0,0.0,0.0,0.0,0.0,2.7309,2.7309,0.0,0.0,2.7309,0.0,0.0,2.7309,2.7309,0.0,2.7309,2.7309,2.7309,2.7112,2.6633,2.6167,2.5689,2.5232,2.4745,2.4497,2.4497,2.4497,2.4497,2.4497,2.4497,2.4497,2.4497,2.4497,2.4497,2.4497,2.4497,2.4497,2.4497,0.0,2.4501,2.4588,2.5607,2.6443,2.7252,2.8898,2.9631,2.9792,2.9792,2.9792,2.9895,0.0,0.0,0.0,0.0,0.0,0.0,0.0,0.0,0.0,0.0,0.0,0.0,0.0,0.0,0.0,0.0,0.0,0.0,0.0,0.0,0.0,0.0,0.0,0.0,0.0,0.0,0.0,0.0,0.0,0.9035,0.9854,1.0835,1.1294,1.1305,1.1305,1.1305,1.1305,1.1305,1.1305,1.1305,0.0,0.0,0.0,0.0,0.0,0.0,0.0,0.0,0.0,0.0,1.7456,1.8344,1.8725,0.0,0.0,0.0,0.0,0.0,2.1026,2.2885,2.4703,2.5066,2.5876,2.6672,2.703,0.0,0.0,0.0,0.0,0.0,0.0,0.0,2.7309,2.7309,0.0,2.7309,2.7309,2.7309,2.7309,0.0,0.0,2.7309,2.7309,2.7309,2.7009,2.627,2.6022,2.5575,2.4848,2.4611,2.4497,2.4497,2.4497,2.4497,2.4497,2.4497,2.4497,2.4497,2.4497,2.4497,2.4497,2.4497,2.4764,2.5179,0.0,2.4883,2.5607,2.7446,2.8329,2.8645,2.9488,2.9792,2.9792,2.9792,3.0043,3.0463,0.0,0.0,0.0,0.0,0.0,0.0,0.0,0.0,0.0,0.0,0.0,0.0,0.0,0.0,0.0,0.0,0.0,0.0,0.0,0.0,0.0,0.0,0.0,0.0,0.0,0.0,0.8603,0.859,0.8606,0.8825,0.927,1.0657,1.1305,1.1305,1.1305,1.1305,1.1305,1.1305,1.1305,1.1305,0.0,0.0,0.0,0.0,0.0,0.0,0.0,0.0,0.0,0.0,0.0,0.0,0.0,0.0,0.0,1.8804,1.9274,1.9956,2.0742,2.2685,2.4705,2.5577,2.6398,2.7034,2.7167,0.0,0.0,0.0,0.0,0.0,0.0,2.7309,0.0,2.7309,2.7309,2.7309,2.7309,2.7309,2.7309,2.7309,2.7309,2.7309,2.7309,2.7206,2.6778,2.596,2.5804,2.5378,2.4538,2.4497,2.4497,2.4497,2.4497,2.4497,2.4497,2.4497,2.4497,2.4497,2.4497,2.4497,2.4518,2.47,2.5168,2.5756,2.5306,2.5564,2.6454,2.8524,2.9544,2.9791,2.9802,2.9792,2.9792,2.9792,3.0311,3.1065,0.0,0.0,0.0,0.0,0.0,0.0,0.0,0.0,0.0,0.0,0.0,0.0,0.0,0.0,0.0,0.0,0.0,0.0,0.0,0.0,0.0,0.0,0.0,0.0,0.0,0.8609,0.86,0.859,0.8606,0.9458,1.1105,1.1251,1.1305,1.1305,1.1305,1.1305,1.1305,1.1305,1.1305,1.1305,1.1305,0.0,0.0,0.0,0.0,0.0,0.0,0.0,0.0,0.0,0.0,0.0,0.0,0.0,1.8804,1.8804,2.0216,2.1689,2.1204,2.334,2.5822,2.6447,2.6952,0.0,2.6972,2.7129,0.0,2.7309,0.0,0.0,0.0,2.7309,2.7309,2.7309,2.7309,2.7309,2.7309,0.0,2.7309,2.7309,2.7309,2.7309,2.7309,2.6915,2.6436,2.5939,2.5502,2.5024,2.4528,2.4497,2.4497,2.4497,2.4497,2.4497,2.4497,2.4497,2.4497,2.4497,2.4497,2.4497,2.454,2.5348,2.5746,2.584,2.6597,2.6673,2.6402,2.7608,2.8794,2.9797,2.9804,2.9792,2.9792,2.9792,3.042,3.1338,0.0,0.0,0.0,0.0,0.0,0.0,0.0,0.0,0.0,0.0,0.0,0.0,0.0,0.0,0.0,0.0,0.0,0.0,0.0,0.0,0.0,0.0,0.0,0.7757,0.8226,0.8463,0.861,0.859,0.9345,1.0431,1.1805,1.18,0.0,1.1306,1.1306,1.1303,1.1305,1.1305,1.1305,1.1446,1.3166,1.3628,0.0,0.0,0.0,0.0,0.0,0.0,0.0,0.0,1.9032,1.9521,1.9428,1.9126,1.8897,1.9363,1.9994,2.0873,2.2331,2.4016,2.5607,2.6587,2.7061,0.0,0.0,2.7238,2.7309,2.7309,2.7309,0.0,0.0,0.0,2.7309,2.7309,2.7309,2.7309,2.7309,2.7309,2.7309,2.7309,2.7309,2.7309,2.7309,2.6884,2.6395,2.5939,2.5482,2.5015,2.4528,2.4497,2.4497,2.4497,2.4497,2.4497,2.4497,2.4497,2.4497,2.4518,2.5041,2.502,2.4561,2.5966,2.6607,2.6627,2.6967,2.7613,2.8472,2.8362,2.8893,2.9792,2.9792,2.9792,2.9792,2.9792,3.043,3.1447,0.0,0.0,0.0,0.0,0.0,0.0,0.0,0.0,0.0,0.0,0.0,0.0,0.0,0.0,0.0,0.0,0.0,0.0,0.0,0.0,0.0,0.0,0.0,0.7796,0.7987,0.8267,0.8478,0.859,1.0006,1.1084,1.1844,0.0,0.0,0.0,1.1448,1.1292,1.1305,1.1305,1.1305,1.1467,1.3351,1.3698,0.0,0.0,0.0,0.0,0.0,0.0,0.0,0.0,1.9306,2.001,1.9538,1.9034,1.8797,1.9885,2.0292,2.0897,2.3163,2.4712,2.5848,2.6641,0.0,0.0,2.7448,2.7493,2.7534,2.7679,2.7596,0.0,0.0,0.0,0.0,0.0,2.7309,2.7309,2.7309,2.7309,2.7309,2.7309,2.7309,2.7247,2.7078,2.6643,2.6188,2.5709,2.5242,2.4828,2.4518,2.4497,2.4497,2.4497,2.4497,2.4497,2.4497,2.4497,2.4497,2.4518,2.5652,2.5757,2.4956,2.6741,2.7536,2.7557,2.783,2.8653,2.9753,2.915,2.9268,2.9792,2.9792,2.9792,2.9798,2.9807,3.0246,3.1043,0.0,0.0,0.0,0.0,0.0,0.0,0.0,0.0,0.0,0.0,0.0,0.0,0.0,0.0,0.0,0.0,0.0,0.0,0.0,0.0,0.0,0.0,0.0,0.7646,0.7983,0.7995,0.8199,0.8612,1.0401,1.1294,1.1311,1.1851,0.0,0.0,1.1759,1.1316,1.1311,1.1311,1.1311,1.1311,1.1311,1.2933,1.507,0.0,0.0,0.0,0.0,0.0,0.0,0.0,1.9109,1.9592,1.9592,1.8912,1.8474,2.0357,2.1385,2.2218,2.3566,2.538,2.6853,0.0,0.0,0.0,2.7796,2.79,2.8034,2.8489,0.0,2.779,2.7368,0.0,0.0,2.7309,2.7309,2.7309,2.7309,2.7309,2.7309,2.7309,2.7309,2.7123,2.6656,2.6177,2.5699,2.5242,2.4766,2.4497,2.4497,2.4497,2.4497,2.4497,2.4518,2.4518,2.4518,2.4518,2.4518,2.454,2.6267,2.6627,2.5861,2.7678,2.8502,2.8542,2.9417,2.9792,2.9792,2.9792,2.9792,2.9792,2.9792,2.9792,2.9799,2.9808,2.9818,3.017,0.0,0.0,0.0,0.0,0.0,0.0,0.0,0.0,0.0,0.0,0.0,0.0,0.0,0.0,0.0,0.0,0.0,0.0,0.0,0.0,0.0,0.0,0.0,0.0,0.0,0.0,0.8801,0.9585,1.0122,1.0791,0.0,0.0,0.0,1.2087,0.0,0.0,1.1833,1.1453,1.1431,1.1695,1.2112,1.2373,1.2553,0.0,0.0,0.0,0.0,0.0,0.0,0.0,0.0,0.0,1.9027,1.8612,1.8489,2.0532,2.1981,2.3342,2.5045,2.5771,0.0,2.6952,0.0,0.0,0.0,2.8127,0.0,0.0,2.822,2.7858,2.7748,0.0,0.0,2.7309,2.7309,2.7309,2.7309,2.7309,2.7309,2.7309,2.7309,2.7123,2.6656,2.6177,2.5699,2.5242,2.4766,2.4497,2.4497,2.4497,2.4497,2.4497,2.5094,2.54,2.54,2.54,2.5704,2.634,2.6844,2.6627,2.5882,2.8323,2.9079,2.8542,2.9417,2.9792,2.9792,2.9792,2.9792,2.9792,2.9792,2.9792,2.9799,2.9806,3.1176,3.3205,0.0,0.0,0.0,0.0,0.0,0.0,0.0,0.0,0.0,0.0,0.0,0.0,0.0,0.0,0.0,0.0,0.0,0.0,0.0,0.0,0.0,0.0,0.0,0.0,0.0,0.8326,0.8879,0.0,0.0,0.0,0.0,0.0,0.0,1.1619,0.0,1.2192,0.0,1.182,1.1604,1.1627,1.201,1.1807,1.1489,0.0,0.0,0.0,0.0,0.0,0.0,0.0,0.0,0.0,1.9119,1.8658,1.8567,2.0944,2.2182,2.328,2.5409,2.6098,0.0,2.6846,2.7379,2.7976,2.8702,0.0,0.0,0.0,0.0,2.8117,2.7931,2.7562,0.0,2.7309,2.7309,2.7309,2.7309,2.7631,2.7715,2.7333,2.762,2.7462,2.643,2.6063,2.5627,2.4962,2.4652,2.4497,2.4497,2.4818,2.4861,2.4518,2.5673,2.5976,2.5285,2.5621,2.6048,2.6586,2.6935,2.7017,2.6935,2.8902,2.9495,2.904,2.9566,2.9792,2.9792,2.9792,2.9792,2.9792,2.9792,2.9792,2.9806,2.9804,3.1945,3.491,0.0,0.0,0.0,0.0,0.0,0.0,0.0,0.0,0.0,0.0,0.0,0.0,0.0,0.0,0.0,0.0,0.0,0.0,0.0,0.0,0.0,0.0,0.0,0.0,0.0,0.0,0.0,0.0,0.0,0.0,0.0,0.0,1.1337,1.1354,0.0,1.2176,1.2742,1.2299,1.1847,1.1376,1.1358,1.1381,1.1641,1.3551,0.0,0.0,0.0,0.0,0.0,0.0,0.0,0.0,1.9455,1.8843,1.8652,2.1449,2.2085,2.2482,2.5092,2.6314,2.6829,2.6616,2.7261,0.0,2.9156,2.9694,2.988,2.9456,0.0,2.8508,2.8157,2.7727,2.7418,2.7418,2.7513,2.7513,2.7323,2.8198,2.8445,2.7418,2.8222,2.8066,2.6104,2.5988,2.5591,2.4591,2.4497,2.4497,2.4497,2.5316,2.5442,2.4636,2.6308,2.6474,2.4882,2.5652,2.609,2.6173,2.6894,2.7718,2.8653,2.9436,2.9792,2.9792,2.9792,2.9792,2.9792,2.9792,2.9829,2.9867,2.9899,2.9911,2.9951,3.0157,3.2622,3.5869,0.0,0.0,0.0,0.0,0.0,0.0,0.0,0.0,0.0,0.0,0.0,0.0,0.0,0.0,0.0,0.0,0.0,0.0,0.0,0.0,0.0,0.0,0.0,0.0,0.0,0.0,0.0,0.0,0.0,0.0,0.0,0.0,0.0,1.1622,0.0,1.2362,1.249,1.2386,1.2174,1.1901,1.1698,1.1949,1.2587,1.3595,1.5052,0.0,0.0,0.0,0.0,0.0,0.0,0.0,1.8427,1.8265,1.8606,2.121,2.1948,2.2592,2.5791,2.6602,0.0,2.7047,2.7789,2.8711,2.9642,2.9922,2.9973,2.987,2.9187,2.88,2.9509,2.8957,2.8409,2.8409,2.906,2.9037,2.7513,2.8783,2.9245,2.7513,2.8829,2.8833,2.6161,2.6572,2.6299,2.4634,2.4497,2.4497,2.4497,2.5316,2.5704,2.5526,2.7273,2.8011,2.7637,2.783,2.8251,2.8922,2.8442,2.8673,2.9527,2.9702,2.9792,2.9792,2.9792,2.9792,2.9792,2.9792,3.0043,3.0444,3.0606,3.0783,3.1184,3.2943,3.5685,3.855,0.0,0.0,0.0,0.0,0.0,0.0,0.0,0.0,0.0,0.0,0.0,0.0,0.0,0.0,0.0,0.0,0.0,0.0,0.0,0.0,0.0,0.0,0.0,0.0,0.0,0.0,0.0,0.0,0.0,0.0,0.0,0.0,0.0,1.1531,0.0,1.2265,1.2271,1.2366,1.2339,1.2228,1.1985,1.2462,1.3402,1.4042,1.5253,1.669,1.7255,0.0,0.0,0.0,0.0,0.0,0.0,0.0,1.8955,2.1526,2.2274,2.2919,2.591,2.6699,0.0,2.7727,0.0,2.8856,2.9787,2.9994,2.9932,2.9715,2.9104,2.8906,2.9908,2.9332,2.8852,2.9337,2.9852,2.9669,2.8175,2.9647,2.9988,2.7573,2.9418,2.9723,2.6802,2.7017,2.69,2.5833,2.4967,2.4861,2.5705,2.6184,2.6421,2.6421,2.8171,2.8712,2.7839,2.8283,2.8732,2.917,2.8712,2.9096,3.0181,2.9917,2.9792,2.9804,3.0068,3.0181,3.0206,3.0457,3.0733,3.0984,3.1095,3.1289,3.1776,3.3808,3.5972,3.8015,0.0,0.0,0.0,0.0,0.0,0.0,0.0,0.0,0.0,0.0,0.0,0.0,0.0,0.0,0.0,0.0,0.0,0.0,0.0,0.0,0.0,0.0,0.0,0.0,0.0,0.0,0.0,0.0,0.0,0.0,0.0,0.0,0.0,1.1391,0.0,0.0,1.2175,1.2371,1.2428,1.2398,1.2217,1.2923,1.409,1.4526,1.5549,1.6761,1.7161,1.759,1.7994,1.8195,0.0,0.0,0.0,0.0,1.9302,2.1872,2.267,2.3278,2.591,2.6794,2.7205,2.8223,2.8531,0.0,2.9684,2.988,2.9818,2.9604,2.918,2.9148,3.0057,2.9668,2.9475,3.0306,3.0599,3.0283,2.913,3.0633,3.079,2.788,3.0102,3.0658,2.7645,2.7668,2.7689,2.7296,2.5812,2.5579,2.7028,2.7252,2.7334,2.7334,2.8941,2.9091,2.7577,2.8343,2.8781,2.8865,2.895,2.9602,3.0713,3.0281,3.0068,3.0093,3.0545,3.0738,3.0783,3.121,3.1449,3.1537,3.1537,3.1784,3.2334,3.3984,3.5372,3.6741,0.0,0.0,0.0,0.0,0.0,0.0,0.0,0.0,0.0,0.0,0.0,0.0,0.0,0.0,0.0,0.0,0.0,0.0,0.6544,0.0,0.0,0.7446,0.7484,0.0,0.0,0.0,0.0,0.0,0.0,0.0,0.0,0.0,0.0,1.1671,0.0,0.0,0.0,1.2638,1.2603,1.2391,1.2377,1.3269,1.461,1.4671,0.0,0.0,1.7288,1.7349,1.7466,1.797,1.8156,0.0,0.0,0.0,1.9279,2.1658,2.2519,2.3372,2.6377,0.0,2.7362,0.0,2.8293,2.8752,0.0,0.0,2.9619,0.0,3.0232,3.0059,3.0607,3.0983,3.127,3.1403,3.2142,3.2077,3.026,3.1657,3.1801,2.8852,3.1103,3.1593,2.8219,2.9005,2.922,2.7978,2.7176,2.6844,2.7089,2.7871,2.8311,2.8311,2.9268,2.9682,2.9436,2.9566,2.9861,3.0316,3.0785,3.1109,3.1286,3.121,3.1205,3.1205,3.1248,3.1286,3.1298,3.1361,3.1675,3.2081,3.2081,3.2642,3.3579,3.4581,3.6015,3.7675,0.0,0.0,0.0,0.0,0.0,0.0,0.0,0.0,0.0,0.0,0.0,0.0,0.0,0.0,0.0,0.6338,0.6814,0.7457,0.8232,0.7595,0.7488,0.815,0.7748,0.7646,0.7983,0.0,0.0,0.0,0.0,0.0,0.0,1.1413,1.1483,0.0,0.0,0.0,0.0,0.0,1.2796,1.2824,1.3129,1.4164,0.0,0.0,0.0,0.0,0.0,0.0,1.773,1.766,1.8032,1.8458,1.8179,0.0,0.0,0.0,2.3004,2.3904,2.6567,2.7309,2.7389,0.0,2.8055,2.8324,2.8789,2.9335,2.9799,2.9987,3.0709,3.139,3.1598,3.1615,3.1779,3.2351,3.2797,3.2602,3.1192,3.2208,3.2208,2.9829,3.1647,3.2185,2.98,3.0152,3.0251,2.9504,2.8304,2.7892,2.8586,2.8542,2.8712,2.9209,2.9605,2.9942,3.0256,3.0256,3.052,3.1047,3.1286,3.1549,3.1851,3.1851,3.1687,3.1432,3.1725,3.1851,3.1876,3.2202,3.2499,3.2726,3.284,3.3212,3.3869,3.5346,3.646,3.746,0.0,0.0,0.0,0.0,0.0,0.0,0.0,0.0,0.0,0.0,0.0,0.0,0.0,0.0,0.0,0.0,0.748,0.8141,0.8936,0.7921,0.7618,0.8356,0.7825,0.7709,0.8172,0.0,0.0,0.0,0.0,0.0,1.1305,1.1305,1.1337,0.0,1.1888,0.0,0.0,0.0,0.0,0.0,0.0,0.0,0.0,0.0,0.0,0.0,0.0,0.0,0.0,0.0,1.8118,1.8627,1.8357,1.9004,0.0,0.0,0.0,2.5084,2.6829,2.7309,2.7358,2.7665,2.7817,2.8066,0.0,0.0,2.9954,0.0,3.1205,3.2203,3.2463,3.2212,3.2242,3.2982,3.3102,3.2853,3.2098,3.2624,3.246,3.0756,3.2055,3.2549,3.1149,3.1152,3.1175,3.1024,2.9689,2.9191,2.9972,2.9399,2.9327,2.9986,2.9993,3.0269,3.0809,3.0939,3.1223,3.1599,3.175,3.2039,3.2428,3.2428,3.2202,3.1838,3.2252,3.2428,3.2466,3.2914,3.3133,3.3197,3.3334,3.3691,3.4275,3.5735,3.6666,3.7377,0.0,0.0,0.0,0.0,0.0,0.0,0.0,0.0,0.0,0.0,0.0,0.0,0.0,0.8646,0.8699,0.8846,0.8203,0.7672,0.7353,0.7426,0.7503,0.7561,0.7518,0.0,0.8652,0.0,0.0,0.0,0.0,0.0,1.1305,1.1305,1.145,1.1693,1.1958,1.2094,1.2127,0.0,0.0,0.0,0.0,0.0,0.0,0.0,0.0,0.0,0.0,0.0,0.0,0.0,0.0,0.0,0.0,1.9569,2.0867,0.0,0.0,0.0,2.7275,2.7309,2.732,2.734,2.7614,2.8168,0.0,0.0,2.9953,3.1781,3.1887,3.1937,3.289,3.305,3.3047,3.3102,3.3102,3.3068,3.3025,3.3068,3.2711,3.1647,3.246,3.2677,3.1655,3.192,3.2127,3.2118,3.1555,3.1041,3.0575,3.051,3.051,3.055,3.055,3.0821,3.1348,3.1863,3.2118,3.2156,3.2751,3.3027,3.3052,3.3052,3.304,3.3014,3.304,3.3052,3.3052,3.309,3.3219,3.3398,3.3398,3.4129,3.5224,3.5325,3.6543,3.8017,0.0,0.0,0.0,0.0,0.0,0.0,0.0,0.0,0.0,0.0,0.0,0.0,0.0,0.9848,0.9751,0.93,0.9076,0.9386,1.0402,0.9093,0.8568,0.9199,0.8238,0.8066,0.8874,0.0,0.0,0.0,0.0,1.1305,1.1305,1.1305,1.1434,1.1709,1.1986,1.2181,1.2307,1.2654,0.0,0.0,0.0,0.0,0.0,0.0,0.0,0.0,0.0,0.0,0.0,0.0,0.0,0.0,0.0,0.0,0.0,0.0,0.0,2.6926,0.0,0.0,2.7309,2.7309,2.74,2.762,2.7968,2.9033,3.0102,3.081,3.1801,3.2667,3.3025,3.3102,3.3102,3.3102,3.3102,3.3102,3.3102,3.3102,3.2961,3.2602,3.2874,3.2961,3.2602,3.2687,3.2616,3.224,3.2026,3.1687,3.1135,3.111,3.111,3.111,3.111,3.1373,3.1913,3.2491,3.2788,3.2788,3.3002,3.3102,3.3102,3.3102,3.3102,3.3102,3.3102,3.3102,3.3102,3.3102,3.3219,3.342,3.3535,3.3987,3.4682,3.5875,3.6777,3.7362,0.0,0.0,0.0,0.0,0.0,0.0,0.0,0.0,0.0,0.0,0.0,0.0,0.0,0.0,1.0897,1.0236,1.0326,1.081,1.1746,1.0311,0.9706,1.0369,0.9448,0.9153,0.9693,0.0,0.0,0.0,0.0,0.0,0.0,1.1391,1.1569,1.185,1.2087,1.2264,0.0,0.0,0.0,1.3123,0.0,0.0,1.5599,0.0,0.0,0.0,0.0,0.0,0.0,0.0,0.0,0.0,0.0,0.0,0.0,0.0,0.0,0.0,2.6964,0.0,0.0,2.7309,2.7309,2.7465,2.8128,2.9257,3.0396,3.1024,3.2208,3.3102,3.3102,3.3102,3.3102,3.3102,3.3102,3.3102,3.3102,3.3102,3.3102,3.3102,3.3102,3.3102,3.3102,3.3102,3.2939,3.2528,3.2503,0.0,3.17,3.1675,3.1675,3.1675,3.1871,3.2139,3.2503,3.2901,3.3102,3.3102,3.3102,3.3102,3.3102,3.3102,3.3102,3.3102,3.3102,3.3102,3.3124,3.3176,3.3313,3.3513,3.3747,3.4155,3.4827,3.6346,3.7088,3.7429,0.0,0.0,0.0,0.0,0.0,0.0,0.0,0.0,0.0,0.0,0.0,0.0,0.0,0.0,0.0,1.18,1.1928,1.1696,1.0922,1.0842,1.0842,1.0833,1.1008,1.1117,1.1139,0.0,0.0,0.0,0.0,0.0,0.0,0.0,1.1845,0.0,1.2307,1.2396,1.2441,0.0,1.2813,1.2953,0.0,1.5295,1.5734,0.0,0.0,0.0,2.0289,1.9243,0.0,1.9478,0.0,0.0,0.0,0.0,0.0,0.0,0.0,0.0,0.0,0.0,0.0,2.7309,2.7309,2.7809,2.9715,3.017,3.0733,3.2667,3.3081,3.3102,3.3102,3.3102,3.3102,3.3102,3.3102,3.3102,3.3102,3.3102,3.3102,3.3102,3.3102,3.3102,3.3102,3.3102,3.3102,3.3102,3.3102,3.283,3.2265,3.224,3.224,3.224,3.278,3.3102,3.3102,3.3102,3.3102,3.3102,3.3102,3.3102,3.3102,3.3102,3.3102,3.3102,3.3124,3.3124,3.3124,3.3313,3.3513,3.3734,3.3992,3.4737,3.5756,3.6562,3.7424,3.8277,0.0,0.0,0.0,0.0,0.0,0.0,0.0,0.0,0.0,0.0,0.0,0.0,0.0,0.0,0.0,1.3067,1.294,1.2764,1.2552,1.1982,1.1719,1.1878,1.1524,1.1519,1.1949,0.0,0.0,0.0,0.0,0.0,0.0,0.0,0.0,0.0,1.2307,1.2506,1.2692,1.2762,0.0,0.0,1.5206,1.5948,0.0,0.0,0.0,0.0,0.0,1.9635,1.979,0.0,2.0381,2.0849,0.0,0.0,0.0,0.0,0.0,0.0,2.6509,0.0,0.0,0.0,0.0,0.0,2.884,2.9669,3.0554,3.1757,3.2602,3.3102,3.3102,3.3102,3.3102,3.3102,3.3102,3.3102,3.3102,3.3102,3.3102,3.3102,3.3102,3.3102,3.3102,3.3102,3.3102,0.0,3.3102,3.3027,3.2864,3.2851,3.2851,3.2851,3.3014,3.3102,3.3102,3.3102,3.3102,3.3102,3.3102,3.3102,3.3102,3.3102,3.3102,3.3124,3.3261,3.3313,3.3313,3.3377,3.3632,3.3992,3.4076,3.4377,3.4868,3.5716,3.6557,3.7295,0.0,0.0,0.0,0.0,0.0,0.0,0.0,0.0,0.0,0.0,0.0,0.0,0.0,0.0,0.0,0.0,1.3674,1.3574,1.3574,1.3133,1.2972,1.3172,1.2923,1.2866,1.3054,0.0,0.0,0.0,0.0,0.0,0.0,0.0,0.0,0.0,0.0,0.0,0.0,0.0,0.0,0.0,1.5368,0.0,0.0,1.8481,1.9543,0.0,0.0,0.0,2.1425,2.1023,2.0894,0.0,0.0,0.0,0.0,0.0,0.0,0.0,0.0,0.0,0.0,0.0,0.0,0.0,2.9107,3.0079,3.1058,3.2033,3.2689,3.3102,3.3102,3.3102,3.3102,3.3102,3.3102,3.3102,3.3102,3.3102,3.3102,3.3102,3.3102,3.3102,3.3102,3.3102,3.3102,3.3102,3.3102,3.3102,3.3102,3.3102,3.3102,3.3102,3.3102,3.3102,3.3102,3.3102,3.3102,3.3102,3.3102,3.3102,3.3102,3.3102,3.3154,3.324,3.3261,3.342,3.3675,3.3556,3.3759,3.4118,3.4202,3.4293,3.4522,3.5386,3.5996,3.6503,0.0,0.0,0.0,0.0,0.0,0.0,0.0,0.0,0.0,0.0,0.0,0.0,0.0,0.0,0.0,0.0,1.4109,1.4109,1.4109,1.4109,1.4187,1.4398,1.4587,1.4545,1.4223,0.0,0.0,0.0,0.0,0.0,0.0,0.0,0.0,0.0,0.0,0.0,0.0,0.0,0.0,1.3591,1.5407,1.6282,0.0,0.0,2.0233,2.0968,2.1445,2.203,2.2559,2.2254,2.1607,0.0,0.0,0.0,0.0,0.0,2.4828,0.0,0.0,0.0,0.0,0.0,2.7885,0.0,2.9943,3.0857,3.1757,3.2874,3.3102,3.3102,3.3102,3.3102,3.3102,3.3102,3.3102,3.3102,3.3102,3.3102,3.3102,3.3102,3.3102,3.3102,3.3102,3.3102,3.3102,3.3102,3.3102,3.3102,3.3102,3.3102,3.3102,3.3102,3.3102,3.3102,3.3102,3.3102,3.3102,3.3102,3.3102,3.3102,3.3102,3.3102,3.3197,3.3356,3.3219,3.3484,3.4034,3.3852,3.3915,3.416,3.4335,3.4397,3.4522,3.5386,3.5709,3.595,1.2705,0.0,0.0,0.0,0.0,0.0,0.0,0.0,0.0,0.0,0.0,0.0,0.0,0.0,0.0,0.0,0.0,1.4109,1.4109,1.4109,1.4187,1.4398,1.4587,1.4762,1.4894,1.4921,0.0,0.0,0.0,0.0,0.0,0.0,0.0,0.0,0.0,0.0,0.0,0.0,0.0,1.5572,1.7015,0.0,1.7325,1.9729,2.0759,2.0917,2.1019,2.1733,2.265,2.2877,2.2218,2.1554,0.0,0.0,0.0,2.4261,0.0,0.0,0.0,0.0,0.0,0.0,2.7171,0.0,2.9806,3.0351,3.0957,3.2732,3.3102,3.3102,3.3102,3.3102,3.3102,3.3102,3.3102,3.3102,3.3102,3.3102,3.3102,3.3102,3.3102,3.3102,3.3102,3.3102,3.3102,3.3102,3.3102,3.3102,3.3102,3.3102,3.3102,3.3102,3.3102,3.3102,3.3102,3.3102,3.3102,3.3102,3.3102,3.3102,3.3102,3.3102,3.3124,3.3176,3.3462,3.3662,3.381,3.4126,3.4293,3.4356,3.4377,3.4397,3.4522,3.5386,3.5709,3.595,1.2894,0.0,0.0,0.0,0.0,0.0,0.0,0.0,0.0,0.0,0.0,0.0,0.0,0.0,0.0,0.0,0.0,0.0,0.0,0.0,1.4791,1.5044,1.5246,1.5461,1.5741,1.5512,1.5073,0.0,0.0,0.0,0.0,0.0,0.0,0.0,0.0,0.0,0.0,0.0,1.4853,1.5853,1.7099,0.0,1.8225,1.9879,2.066,2.0942,2.1198,2.1719,2.2381,2.2927,2.2451,0.0,2.3487,2.3764,2.3634,0.0,2.4662,2.489,0.0,0.0,0.0,2.6478,0.0,0.0,0.0,3.0946,3.1911,3.2896,3.3102,3.3102,3.3102,3.3102,3.3102,3.3102,3.3102,3.3102,3.3102,3.3102,3.3102,3.3102,3.3102,3.3102,3.3102,3.3102,3.3102,3.3102,3.3102,3.3102,3.3102,3.3102,3.3102,3.3102,3.3102,3.3102,3.3102,3.3102,3.3102,3.3102,3.3102,3.3102,3.3102,3.3102,3.3154,3.3261,3.3462,3.3683,3.3915,3.4147,3.4314,3.4397,3.4397,3.4397,3.446,3.4889,3.5053,3.5237,1.3189,0.0,0.0,0.0,0.0,0.0,0.0,0.0,0.0,0.0,0.0,0.0,0.0,0.0,0.0,0.0,0.0,0.0,0.0,0.0,1.5413,1.5687,1.5894,1.6138,1.6389,1.588,1.5531,0.0,0.0,0.0,0.0,0.0,0.0,0.0,0.0,0.0,0.0,0.0,0.0,1.6064,0.0,1.789,1.8909,1.9766,2.0459,2.1009,2.1527,2.1752,2.1881,2.2529,2.2414,2.228,2.3821,2.4024,0.0,0.0,0.0,0.0,0.0,0.0,0.0,0.0,0.0,2.936,0.0,0.0,0.0,3.3059,3.3102,3.3102,3.3102,0.0,0.0,3.2952,0.0,0.0,0.0,3.3027,0.0,3.3102,3.3102,3.3102,3.3102,3.3102,3.3102,3.3102,3.3102,3.3102,3.3102,3.3102,3.3102,3.3102,3.3102,3.3102,3.3102,3.3102,3.3102,3.3102,3.3102,3.3102,3.3102,3.3133,3.3261,3.3398,3.3505,3.3759,3.4097,3.4139,3.4264,3.4397,3.4397,3.4397,3.4418,3.4592,3.453,3.4551,1.3491,1.3682,0.0,0.0,0.0,0.0,0.0,0.0,0.0,0.0,0.0,0.0,0.0,0.0,0.0,0.0,0.0,0.0,1.5008,0.0,0.0,1.5687,1.5894,1.6138,1.6389,1.6323,1.5991,1.5397,0.0,0.0,0.0,0.0,0.0,0.0,1.5124,0.0,0.0,0.0,1.6555,0.0,1.7604,1.7915,0.0,1.9668,2.0525,2.123,2.1632,2.1464,2.1103,0.0,2.2066,2.2482,0.0,2.398,2.439,2.4475,0.0,0.0,0.0,0.0,0.0,0.0,2.6791,0.0,2.9359,0.0,3.2011,3.2918,0.0,3.3102,3.3102,0.0,0.0,0.0,0.0,0.0,3.239,3.2754,3.3102,3.3102,3.3102,3.3102,3.3102,3.3102,3.3102,3.3102,3.3102,3.3102,3.3102,3.3102,3.3102,3.3102,3.3102,3.3102,3.3102,3.3102,3.3102,3.3102,3.3102,3.3102,3.3124,3.3283,3.3377,3.342,3.3844,3.4055,3.4118,3.4293,3.4377,3.4397,3.4397,3.4397,3.4501,3.5264,3.5053,3.4634,1.3768,1.3954,0.0,0.0,0.0,0.0,0.0,0.0,0.0,0.0,0.0,0.0,0.0,0.0,0.0,0.0,0.0,1.5745,0.0,0.0,0.0,0.0,1.6663,1.6816,1.6923,1.6923,1.6786,1.6488,1.6593,0.0,0.0,0.0,0.0,0.0,1.5768,0.0,1.6087,0.0,1.6587,0.0,0.0,0.0,0.0,1.9798,2.0676,2.1303,2.1283,2.1132,2.1075,0.0,2.2065,0.0,0.0,0.0,0.0,2.4497,0.0,0.0,0.0,0.0,0.0,0.0,0.0,0.0,2.9332,0.0,3.2602,0.0,0.0,0.0,0.0,0.0,0.0,0.0,3.2939,3.3014,0.0,0.0,3.3102,3.3102,0.0,0.0,3.3102,3.3102,3.3102,3.3102,3.3102,3.3102,3.3102,3.3102,3.3102,3.3102,3.3102,3.3102,3.3102,3.3102,3.3102,3.3102,3.3102,3.3102,3.3124,3.3313,3.3398,3.342,3.3907,3.4097,3.4118,3.4314,3.4397,3.4397,3.4397,3.4397,3.4439,3.4819,3.4716,3.4501,1.4165,0.0,0.0,0.0,0.0,0.0,0.0,0.0,0.0,0.0,0.0,0.0,1.7086,1.7053,0.0,0.0,1.6417,1.6428,0.0,0.0,1.696,1.7237,1.7461,1.7572,1.7572,1.7572,1.7572,1.7572,0.0,0.0,0.0,0.0,0.0,0.0,0.0,1.6647,1.6891,0.0,1.7062,1.743,1.7926,1.8498,1.9153,2.0115,2.0791,2.1216,2.0848,2.0767,2.0935,2.1835,2.2017,0.0,2.3727,2.4347,2.4497,0.0,0.0,0.0,2.4497,0.0,0.0,0.0,0.0,0.0,0.0,0.0,0.0,0.0,0.0,0.0,0.0,0.0,0.0,0.0,0.0,3.304,0.0,3.3002,0.0,3.3102,0.0,0.0,0.0,3.3102,3.3102,3.3102,3.3102,3.3102,3.3102,3.3102,3.3102,3.3102,3.3102,3.3102,3.3102,3.3102,3.3102,3.3102,3.3154,3.3176,3.3197,3.3462,3.359,3.3611,3.4013,3.4181,3.4202,3.4335,3.4397,3.4397,3.4397,3.4397,3.4397,3.4397,3.4397,3.4397,1.469,1.4672,0.0,0.0,0.0,0.0,0.0,0.0,0.0,0.0,0.0,0.0,0.0,0.0,0.0,0.0,0.0,1.6794,1.7043,0.0,1.7577,1.7864,1.8129,1.8269,1.8269,1.8269,1.8269,1.8269,0.0,0.0,0.0,0.0,0.0,0.0,0.0,1.6787,1.6413,1.7761,1.8641,1.9147,1.9349,1.9645,2.0021,0.0,2.0908,2.0872,2.0454,0.0,0.0,2.1186,2.185,2.2504,2.3288,0.0,0.0,0.0,0.0,0.0,0.0,0.0,0.0,2.5778,0.0,0.0,0.0,0.0,3.3102,0.0,0.0,0.0,0.0,0.0,0.0,0.0,0.0,0.0,0.0,0.0,3.3102,3.3102,3.3102,0.0,0.0,3.3102,3.3102,3.3102,3.3102,3.3102,3.3102,3.3102,3.3102,3.3102,3.3102,3.3102,3.3102,3.3102,3.3102,3.3102,3.3292,3.3398,3.3398,3.3865,3.4076,3.4097,3.4293,3.4397,3.4397,3.4397,3.4397,3.4397,3.4397,3.4397,3.4397,3.4397,3.4397,3.4397,0.0,0.0,0.0,0.0,0.0,0.0,0.0,1.6593,0.0,0.0,1.7383,0.0,0.0,1.7314,1.7234,0.0,0.0,1.7117,1.7345,1.7456,0.0,1.8158,1.8249,1.8299,0.0,1.8299,1.8299,0.0,0.0,0.0,0.0,0.0,0.0,0.0,0.0,1.8026,0.0,0.0,0.0,0.0,0.0,1.9821,2.0632,0.0,2.0743,2.0494,2.0343,2.0291,0.0,2.1658,2.2407,2.3011,2.3895,2.4325,2.4497,2.4497,2.4497,2.4636,2.52,2.5579,2.5944,2.6524,0.0,0.0,0.0,0.0,0.0,0.0,0.0,0.0,0.0,0.0,0.0,0.0,0.0,0.0,0.0,0.0,3.3759,3.3167,3.3102,3.3102,0.0,3.3102,3.3102,3.3102,3.3102,3.3102,3.3102,3.3102,3.3102,3.3102,3.3102,3.3102,3.3102,3.3102,3.3102,3.3102,3.3292,3.3334,3.3219,3.3823,3.4013,3.3852,3.423,3.4397,3.4397,3.4397,3.4397,3.4397,3.4397,3.4397,3.4397,3.4397,3.4397,3.445,1.5246,0.0,0.0,0.0,0.0,0.0,0.0,0.0,0.0,0.0,1.7943,0.0,1.8173,0.0,1.8688,0.0,1.8602,1.8585,1.8423,1.8502,0.0,1.865,1.865,1.865,0.0,0.0,0.0,0.0,0.0,1.8743,0.0,0.0,0.0,0.0,0.0,1.8895,1.8795,1.9001,1.9378,0.0,0.0,2.0157,0.0,0.0,2.0537,2.0292,0.0,2.0472,2.0864,2.2013,2.279,2.34,2.4229,2.4497,2.4497,2.4497,2.4497,2.47,2.5558,2.6027,2.6483,2.7374,2.908,3.0559,3.0559,0.0,3.3102,0.0,0.0,0.0,0.0,0.0,0.0,0.0,0.0,0.0,0.0,3.4055,3.4314,3.4016,3.3747,3.3432,3.3133,3.3102,3.3102,3.3102,3.3102,3.3102,3.3102,3.3102,3.3102,3.3102,3.3102,3.3102,3.3102,3.3102,3.3102,3.3102,3.3377,3.3441,3.3334,3.3928,3.4105,3.3979,3.4272,3.4397,3.4397,3.4397,3.4397,3.4397,3.4397,3.4397,3.4397,3.4397,3.4541,3.4829,1.5517,0.0,0.0,0.0,1.5966,0.0,0.0,0.0,1.7331,0.0,1.8558,1.9228,1.928,2.0236,2.0911,2.0911,2.1132,2.0962,2.0233,2.0362,0.0,0.0,1.9331,1.9305,1.9305,0.0,0.0,0.0,0.0,0.0,0.0,0.0,0.0,0.0,1.9506,0.0,1.9559,2.0078,2.0417,2.0635,2.084,2.0674,2.0317,2.0317,2.0332,2.0292,2.0292,2.0781,2.1512,2.2183,2.2884,2.3612,2.4282,2.4497,2.4497,2.4497,2.454,2.4754,2.5621,2.6504,2.7395,2.8331,2.9998,3.1406,3.1406,3.2286,3.3102,0.0,0.0,0.0,0.0,0.0,0.0,0.0,0.0,0.0,0.0,0.0,3.4806,3.5514,3.4924,3.4126,3.3292,3.3154,3.3124,3.3154,3.3124,3.3102,3.3102,3.3102,3.3102,3.3102,3.3102,3.3102,3.3102,3.3102,3.3102,3.3124,3.3513,3.3691,3.3725,3.4189,3.4397,3.4397,3.4397,3.4397,3.4397,3.4397,3.4397,3.4397,3.4397,3.441,3.4437,3.4437,3.4842,3.5534,1.5789,1.5843,1.5947,0.0,1.6195,1.6397,0.0,0.0,0.0,0.0,1.902,1.9513,2.0364,2.0723,2.0911,2.0911,2.0962,0.0,0.0,0.0,0.0,2.0483,1.9732,1.9305,1.9305,1.9305,1.9305,1.9305,0.0,0.0,2.0112,0.0,0.0,0.0,0.0,0.0,2.0078,1.9967,2.0427,2.1188,2.0972,2.0846,2.0752,0.0,2.0572,2.0292,2.0292,2.0781,2.1512,2.2183,2.2884,2.3612,2.4282,2.4497,2.4497,2.4497,2.4967,2.5663,2.6524,2.7435,2.8363,2.9229,3.0443,3.1406,3.1406,3.2286,3.3102,3.3102,3.3102,0.0,0.0,0.0,0.0,0.0,0.0,0.0,0.0,0.0,0.0,3.5648,3.5427,3.5203,3.4979,3.3839,3.3368,3.4021,3.3475,3.3102,3.3102,3.3102,3.3102,3.3102,3.3102,3.3102,3.3102,3.3102,3.3176,3.3334,3.3577,3.3691,3.3725,3.4189,3.4314,3.4202,3.4335,3.4397,3.4397,3.4397,3.4397,3.4397,3.4397,3.4672,3.5064,3.5064,3.5704,3.6606,1.5891,1.5982,0.0,1.6631,0.0,0.0,1.7589,1.7477,0.0,1.972,1.9952,0.0,2.148,2.203,2.2333,2.2333,2.2434,0.0,2.24,0.0,0.0,2.0911,1.9879,1.9305,1.9305,1.9305,0.0,1.9305,0.0,0.0,2.0112,0.0,0.0,0.0,0.0,2.063,2.0556,2.0351,2.0447,2.0731,2.1001,2.102,0.0,2.0906,2.0657,2.0292,2.0292,2.0781,2.1512,2.2183,2.2884,2.3612,2.4282,2.4497,2.4497,2.4497,2.5126,2.5986,2.6853,2.779,2.8712,2.9585,3.0595,3.1406,3.1406,3.2286,3.3027,3.2776,3.3212,3.3859,3.4462,0.0,0.0,0.0,0.0,0.0,0.0,0.0,0.0,0.0,3.6405,3.632,3.6699,3.4532,3.3304,3.3802,3.339,3.3102,3.3102,3.3102,3.3102,3.3102,3.3102,3.3102,3.3102,3.3102,3.3197,3.3398,3.3598,3.3755,3.3894,3.4251,3.4335,3.4243,3.4356,3.4397,3.4397,3.4397,3.4554,3.4816,3.5051,3.5508,3.6044,3.6044,3.6449,3.7037,1.6042,1.629,0.0,0.0,0.0,0.0,0.0,1.8489,0.0,2.0654,0.0,2.1523,2.2602,2.3621,2.4202,2.4202,2.4365,2.4183,2.3553,2.2727,2.1912,2.1132,2.0078,1.9428,1.9305,1.9305,1.9305,0.0,0.0,0.0,0.0,0.0,0.0,0.0,0.0,0.0,0.0,2.0974,2.0626,2.0167,2.1097,2.1268,2.0974,2.0974,2.07,2.0292,2.0292,2.0826,2.1615,2.2205,2.294,2.3742,2.4325,2.4497,2.4518,2.4636,2.5285,2.6152,2.7049,2.7971,2.8875,2.9692,3.0645,3.1432,3.1486,3.2336,3.2948,3.2454,3.3389,3.4419,3.4881,0.0,0.0,0.0,0.0,0.0,0.0,0.0,0.0,0.0,3.7433,0.0,3.7962,3.5237,3.3441,3.3441,3.3326,3.3219,3.3124,3.3102,3.3102,3.3102,3.3102,3.3124,3.3133,3.3133,3.3261,3.3484,3.3662,3.3894,3.416,3.4314,3.4397,3.4397,3.4397,3.4397,3.441,3.4489,3.4868,3.5456,3.6005,3.6541,3.7011,3.709,3.7116,3.7194,1.6867,0.0,0.0,0.0,0.0,1.8823,2.06,2.0542,2.0449,2.0859,2.1675,2.2652,2.3771,2.4078,2.4202,2.4202,2.4226,0.0,0.0,0.0,0.0,2.224,2.1183,2.0207,1.9324,1.9305,1.9305,0.0,0.0,0.0,0.0,0.0,0.0,0.0,0.0,0.0,2.1319,2.1319,0.0,2.1623,2.1819,2.1662,2.1319,2.1319,2.0891,2.0292,2.0292,2.1123,2.224,2.235,2.3246,2.4347,2.4454,2.4497,2.4636,2.5358,2.6184,2.7058,2.8011,2.8902,2.9717,3.0317,3.0934,3.1532,3.1964,3.2591,3.3119,3.3189,3.3404,3.4039,3.5526,3.6988,0.0,0.0,0.0,0.0,0.0,0.0,0.0,0.0,0.0,3.6956,3.7111,3.5929,3.5163,3.5163,3.4558,3.3865,3.3133,3.3102,3.3102,3.3102,3.3102,3.3176,3.3356,3.3356,3.3547,3.3971,3.4013,3.4139,3.4356,3.4377,3.4397,3.4397,3.4397,3.4397,3.4437,3.4933,3.5469,3.6018,3.6619,3.692,3.7063,3.756,3.7743,3.7756,1.7297,0.0,0.0,0.0,0.0,0.0,0.0,2.2368,2.2851,2.2644,2.2552,2.2937,2.4078,2.4202,2.4202,2.4202,2.4202,2.4399,2.4858,2.3902,2.332,2.3343,2.176,2.0662,2.013,1.9412,1.9049,1.9049,0.0,0.0,0.0,0.0,0.0,0.0,0.0,2.1203,0.0,0.0,2.1608,2.1486,2.2079,2.196,2.1413,2.1413,2.0942,2.0292,2.0292,2.119,2.2394,2.2394,2.3093,2.4045,2.439,2.4497,2.4679,2.5537,2.6421,2.7313,2.8251,2.915,2.993,3.0482,3.0997,3.1537,3.2089,3.3013,3.3608,3.3086,3.3927,3.5131,3.6448,3.7506,3.8056,3.7644,0.0,0.0,0.0,0.0,3.8202,0.0,0.0,0.0,3.7567,3.6805,3.5923,3.5047,3.462,3.4021,3.3145,3.3102,3.3102,3.3102,3.3102,3.3197,3.3398,3.3398,3.3632,3.4097,3.4097,3.4222,3.4397,3.4397,3.4397,3.441,3.4724,3.4868,3.4933,3.5822,3.6332,3.6632,3.7233,3.7469,3.7508,3.7795,3.79,3.79,1.8005,1.8215,0.0,0.0,2.1721,2.2179,2.2366,2.3695,2.4481,2.3902,2.3263,2.3213,2.4102,2.4202,2.4202,2.4202,2.4202,2.4399,2.4858,2.4109,2.3669,2.3766,2.2366,2.126,2.0585,1.9691,1.9139,0.0,0.0,0.0,0.0,0.0,0.0,0.0,0.0,0.0,0.0,0.0,2.1795,2.1353,2.2232,2.2114,2.1413,2.1413,2.0942,2.0292,2.0292,2.119,2.2394,2.2394,2.2984,2.3807,2.4325,2.4497,2.47,2.5767,2.6565,2.7354,2.8462,2.9268,2.9955,3.062,3.1226,3.1848,3.252,3.3693,3.44,3.3516,3.4769,3.6314,3.7145,3.7694,3.8057,3.8188,3.8202,0.0,0.0,0.0,3.8202,0.0,0.0,0.0,3.8202,3.7587,3.6472,3.4799,3.4501,3.4021,3.3145,3.3102,3.3124,3.3154,3.3154,3.3261,3.3462,3.3526,3.3738,3.4097,3.4139,3.4264,3.4397,3.4397,3.4463,3.462,3.509,3.543,3.573,3.6632,3.7077,3.7246,3.7717,3.79,3.79,3.79,3.79,3.79,0.0,0.0,0.0,0.0,0.0,2.3142,2.3871,2.4137,2.3876,2.279,2.3472,2.4078,2.4177,2.4202,2.4202,2.4202,2.4202,2.4399,2.4858,2.4809,2.4115,2.2718,2.3393,2.2433,1.9498,2.0272,2.0238,1.9254,1.9224,1.925,0.0,0.0,0.0,0.0,0.0,0.0,2.2391,2.2492,2.2509,2.2443,2.2569,2.2114,2.1413,2.1413,2.0942,2.0292,2.0292,2.119,2.2394,2.2394,2.329,2.4411,2.4475,2.4497,2.4828,2.6494,2.7049,2.7476,2.9209,2.9753,3.0062,3.106,3.1963,3.2854,3.3954,3.4863,3.5518,3.565,3.5992,3.6487,3.7168,3.736,3.7564,3.8115,3.8202,0.0,0.0,0.0,3.8202,3.8202,0.0,0.0,3.8202,3.8127,3.7395,3.5709,3.4847,3.4021,3.3145,3.3102,3.3176,3.3377,3.3377,3.3471,3.367,3.3907,3.4055,3.4097,3.4272,3.4377,3.4397,3.4397,3.4698,3.5221,3.5273,3.5887,3.6854,3.6959,3.7325,3.7821,3.7887,3.79,3.79,3.79,3.79,3.79,0.0,0.0,0.0,0.0,0.0,0.0,0.0,2.5264,2.504,2.4317,2.4646,2.4911,2.4911,2.4911,2.481,2.4581,2.4553,2.4668,2.4877,2.4907,2.475,2.4436,2.3601,2.2534,2.126,2.038,1.9634,1.9012,1.9012,0.0,0.0,0.0,0.0,0.0,2.2354,2.2457,2.2594,2.2594,2.2594,2.2594,2.2594,2.2114,2.1413,2.1413,2.0942,2.0292,2.0292,2.119,2.2372,2.2271,2.3234,2.4497,2.4497,2.4861,2.5526,2.6741,2.7496,2.8211,2.9456,3.003,3.047,3.1198,3.2298,3.3398,3.4201,3.5433,3.6311,3.604,3.6472,3.6983,3.724,3.7607,3.7926,3.8159,3.8202,3.8202,0.0,0.0,0.0,3.8202,0.0,3.8202,3.8202,3.772,3.713,3.6472,3.6096,3.5305,3.3937,3.3886,3.3958,3.4155,3.3662,3.3569,3.3937,3.4055,3.416,3.4272,3.4356,3.4397,3.441,3.4776,3.5443,3.6319,3.6319,3.6789,3.7547,3.7547,3.7691,3.79,3.79,3.79,3.79,3.79,3.79,3.79,2.2898,0.0,2.3531,0.0,2.534,2.5535,2.608,2.6169,2.6068,2.5792,2.5756,2.5664,2.5425,2.5398,2.5287,2.5003,2.4874,2.4874,2.5056,2.4973,2.5005,2.5226,2.4081,2.3046,2.2198,2.0992,2.0007,1.9213,1.9118,1.9298,1.9668,2.0263,2.1285,2.2594,2.2594,2.2594,2.2594,2.2594,2.2594,2.2585,2.2474,2.202,2.1396,2.1293,2.0848,2.0292,2.0292,2.119,2.2372,2.2161,2.3125,2.4411,2.4411,2.502,2.5882,2.6844,2.7758,2.8717,2.9765,3.0319,3.0783,3.1461,3.2771,3.4045,3.462,3.6056,3.7171,3.6732,3.6997,3.7342,3.7535,3.7781,3.7999,3.8173,3.8202,3.8202,3.8202,3.8202,0.0,3.8202,3.8202,3.8202,3.8202,3.7644,3.7072,3.657,3.6747,3.6156,3.4501,3.4168,3.4147,3.4405,3.381,3.3696,3.4097,3.416,3.4243,3.4314,3.4377,3.4489,3.4685,3.5443,3.624,3.7011,3.7194,3.7508,3.79,3.79,3.79,3.79,3.79,3.79,3.79,3.79,3.79,3.79,2.4025,2.4283,2.4772,2.63,2.6591,2.6582,2.6582,2.6582,2.6582,2.66,2.66,2.6288,2.5489,2.5398,2.5398,2.5388,2.503,2.4995,2.5462,2.5134,2.4677,2.4137,2.5118,2.4333,2.148,2.2436,2.2035,2.0188,1.9935,1.9781,1.9793,2.0566,2.1496,2.2594,2.2594,2.2594,2.2594,2.2594,2.2594,2.2568,2.2174,2.1764,2.1371,2.102,2.0643,2.0292,2.0292,2.119,2.2372,2.2161,2.3038,2.4206,2.4206,2.4807,2.5714,2.6803,2.7758,2.8801,3.0206,3.0588,3.0851,3.1918,3.351,3.4921,3.5459,3.6928,3.8183,3.8169,3.7705,3.7491,3.8086,3.7709,3.752,3.8101,3.8202,3.8202,3.8202,3.8202,0.0,3.8202,3.8202,3.8202,3.8202,3.8183,3.7477,3.5735,3.6419,3.6156,3.4501,3.359,3.3292,3.3691,3.3691,3.3831,3.4097,3.4293,3.4293,3.4118,3.4314,3.4711,3.5325,3.6462,3.6998,3.7037,3.7639,3.79,3.79,3.79,3.79,3.79,3.79,3.79,3.79,3.79,3.79,3.79,2.578,2.5871,2.6008,2.65,2.6591,2.6591,2.6591,2.6591,2.6591,2.6591,2.6591,2.649,2.626,2.6233,2.6114,2.582,2.5866,2.5785,2.5525,2.5584,2.5507,2.5211,2.4815,2.3838,2.2189,2.2001,2.1144,1.9579,1.973,1.9883,2.0038,2.099,2.1623,2.2004,2.2417,2.2594,2.2594,2.2594,2.2594,2.2568,2.2174,2.1764,2.1371,2.1034,2.0657,2.0292,2.0292,2.1132,2.2161,2.1913,2.2674,2.3829,2.4433,2.5337,2.6256,2.6586,2.7847,2.9308,3.0167,3.0758,3.1453,3.2744,3.4204,3.5544,3.6318,3.7381,3.8202,3.8202,3.8043,3.797,3.8159,3.8043,3.7984,3.8173,3.8202,3.8202,3.8202,3.8202,3.8202,3.8202,3.8202,3.8202,3.8202,3.8202,3.7981,3.7419,3.7199,3.632,3.4501,3.4272,3.4301,3.4579,3.4189,3.4076,3.4293,3.4377,3.4377,3.4306,3.4795,3.5521,3.6475,3.6841,3.7553,3.851,3.8711,3.8783,3.8783,3.8783,3.844,3.7969,3.8549,3.8417,3.7969,3.8571,3.8417,3.79,2.6591,2.6591,2.6591,2.6591,2.6591,2.6591,2.6591,2.6591,2.6591,2.6591,2.6591,2.6591,2.6591,2.6591,2.6508,2.6242,2.6317,2.6274,2.6007,2.5999,2.5986,2.5971,2.5155,2.4071,2.2723,2.2242,2.1212,1.9638,1.9745,1.9903,2.0104,2.0798,2.131,2.1725,2.208,2.2392,2.2594,2.2594,2.2594,2.2551,2.2012,2.1627,2.1353,2.0848,2.0529,2.0292,2.0292,2.1087,2.2059,2.1798,2.2508,2.358,2.4015,2.5115,2.6338,2.6833,2.8302,2.9853,3.0445,3.1387,3.2449,3.3569,3.4969,3.632,3.7188,3.781,3.8202,3.8202,3.8202,3.8202,3.8202,3.8202,3.8202,3.8202,3.8202,3.8202,3.8202,3.8202,3.8202,3.8202,3.8202,3.8202,3.8202,3.8202,3.7943,3.7271,3.6836,3.5809,3.4,3.4475,3.4765,3.4675,3.4293,3.4202,3.4397,3.4397,3.4515,3.475,3.5547,3.6305,3.7011,3.7576,3.8332,3.9219,3.9571,3.9527,3.9219,3.9571,3.9202,3.8472,3.9378,3.9378,3.893,3.9135,3.9082,3.8877,2.6591,2.6591,2.6591,2.6591,2.6591,2.6591,2.6591,2.6591,2.6591,2.6591,2.6591,2.6591,2.6591,2.6591,2.6591,2.6591,2.6529,2.6553,2.6799,2.6378,2.6195,2.6387,2.5971,2.4908,2.3109,2.2989,2.2046,2.0144,1.9898,1.9855,2.006,2.0078,2.0619,2.1598,2.1674,2.2004,2.2544,2.2569,2.2594,2.2534,2.1713,2.1413,2.1328,2.0574,2.0269,2.0246,2.0246,2.1019,2.1993,2.1754,2.2463,2.345,2.3331,2.4466,2.6103,2.736,2.8932,3.04,3.0984,3.2245,3.3578,3.4303,3.5749,3.7188,3.8018,3.8202,3.8202,3.8202,3.8202,3.8202,3.8202,3.8202,3.8202,3.8202,3.8202,3.8202,3.8202,3.8202,3.8202,3.8202,3.8202,3.8202,3.8202,3.8202,3.7496,3.5815,3.5715,3.5013,3.3326,3.44,3.4739,3.4097,3.4097,3.4222,3.4397,3.4437,3.4819,3.5537,3.6511,3.7092,3.7287,3.859,3.9263,3.9439,4.031,4.0202,3.9461,4.0332,4.0138,3.9395,4.0332,4.0667,4.0504,3.9681,3.9899,4.0482,2.6591,2.6591,2.6591,2.6591,2.6591,2.6591,2.6591,2.6591,2.6591,2.6591,2.6591,2.6591,2.6591,2.6591,2.6591,2.6591,2.6942,2.7067,2.6818,2.7107,2.7019,2.6416,2.6289,2.5475,2.3861,2.305,2.1601,1.9506,1.9452,1.9449,1.9506,1.9905,2.0233,2.0516,2.1335,2.1776,2.1928,2.2392,2.2594,2.2534,2.1713,2.1413,2.1328,2.0574,2.0087,1.976,1.976,2.0411,2.1244,2.1199,2.2069,2.3418,2.4755,2.5732,2.6472,2.679,2.841,3.0277,3.1218,3.198,3.2962,3.4846,3.6615,3.7943,3.8146,3.8202,3.8202,3.8202,3.8202,3.8202,3.8202,3.8202,3.8202,3.8202,3.8202,3.8202,3.8202,3.8202,3.8202,3.8202,3.8202,3.8202,3.8202,3.8202,3.7739,3.6655,3.6922,3.636,3.4641,3.5182,3.4998,3.3818,3.4147,3.4356,3.4397,3.4855,3.5938,3.7661,3.721,3.7963,3.9749,3.9363,3.9986,4.1359,4.1582,4.154,4.1359,4.1582,4.1113,4.0353,4.1296,4.1233,4.0667,4.1134,4.1007,4.0568,2.6591,2.6591,2.6591,2.6591,2.6591,2.6591,2.6591,2.6591,2.6591,2.6591,2.6591,2.6591,2.6591,2.6591,2.6591,2.6591,2.7089,2.731,2.7092,2.7484,2.7389,2.6699,2.6494,2.5681,2.4122,2.3044,2.1438,1.9305,1.9305,1.9305,1.9305,1.9602,1.9879,2.013,2.096,2.1471,2.1751,2.2342,2.2443,2.2123,2.1381,2.0933,2.0625,1.9905,1.9471,1.9234,1.9234,2.0002,2.0997,2.0997,2.1935,2.3382,2.5049,2.6033,2.6778,2.7662,2.9261,3.086,3.145,3.2663,3.4234,3.6282,3.7496,3.8202,3.8202,3.8202,3.8202,3.8202,3.8202,3.8202,3.8202,3.8202,3.8202,3.8202,3.8202,3.8202,3.8202,3.8202,3.8202,3.8202,3.8202,3.8202,3.8202,3.8202,3.7682,3.6399,3.6986,3.6674,3.4944,3.5271,3.5067,3.405,3.4272,3.4528,3.4803,3.609,3.7295,3.8391,3.8561,3.9313,4.0603,4.0504,4.1029,4.2011,4.2415,4.2374,4.2032,4.2435,4.2058,4.1338,4.2237,4.2278,4.1838,4.197,4.1935,4.1775,2.6591,2.6591,2.6591,2.6591,2.6591,2.6591,2.6591,2.6591,2.6591,2.6591,2.6591,2.6591,2.6591,2.6591,2.6591,2.6591,2.7062,2.735,2.7404,2.7641,2.7594,2.7139,2.6709,2.5862,2.448,2.317,2.1438,1.9305,1.9305,1.9305,1.9305,1.9305,1.9532,2.0009,2.0532,2.1045,2.1496,2.2089,2.2063,2.1515,2.0884,2.0338,1.9845,1.9153,1.8806,1.8689,1.8689,1.9637,2.0885,2.096,2.1974,2.3486,2.5108,2.6161,2.7215,2.9138,3.0644,3.1669,3.1712,3.3628,3.5989,3.7591,3.8108,3.8202,3.8202,3.8202,3.8202,3.8202,3.8202,3.8202,3.8202,3.8202,3.8202,3.8202,3.8202,3.8202,3.8202,3.8202,3.8202,3.8202,3.8202,3.8202,3.8202,3.8202,3.7534,3.5955,3.6724,3.6529,3.489,3.5142,3.5107,3.4549,3.4541,3.4918,3.5749,3.7515,3.8583,3.8945,4.0066,4.0739,4.1029,4.1707,4.2073,4.2237,4.2975,4.2875,4.2237,4.2996,4.2855,4.2258,4.3016,4.329,4.321,4.2476,4.2659,4.319,2.6591,2.6591,2.6591,2.6591,2.6591,2.6591,2.6591,2.6591,2.6591,2.6591,2.6591,2.6591,2.6591,2.6591,2.6591,2.6591,2.6863,2.7152,2.7377,2.7912,2.8034,2.7614,2.7148,2.6643,2.6055,2.3722,2.1438,1.9305,1.9305,1.9305,1.9305,1.9305,1.935,1.9454,1.9983,2.0259,2.0388,2.0942,2.1096,2.0987,2.0547,2.0172,1.9845,1.9399,1.8809,1.8203,1.8203,1.9117,2.0374,2.077,2.2153,2.4086,2.6284,2.738,2.8233,3.0124,3.1279,3.1982,3.22,3.3904,3.5835,3.6844,3.7663,3.8202,3.8202,3.8202,3.8202,3.8202,3.8202,3.8202,3.8202,3.8202,3.8202,3.8202,3.8202,3.8202,3.8202,3.8202,3.8202,3.8202,3.8202,3.8202,3.8202,3.8202,3.7853,3.6996,3.7328,3.685,3.5285,3.548,3.5485,3.5164,3.5155,3.606,3.789,3.8231,3.942,4.1438,4.0859,4.1407,4.286,4.2278,4.2395,4.311,4.325,4.323,4.311,4.325,4.321,4.3095,4.325,4.329,4.327,4.315,4.319,4.327,2.6591,2.6591,2.6591,2.6591,2.6591,2.6591,2.6591,2.6591,2.6591,2.6591,2.6591,2.6591,2.6591,2.6591,2.6591,2.6591,2.6981,2.7269,2.7404,2.7826,2.7973,2.7712,2.7246,2.6149,2.4325,2.3115,2.1438,1.9305,1.9305,1.9305,1.9305,1.9305,1.9305,1.9324,1.9853,2.0104,2.0138,2.066,2.0737,2.0441,2.0066,1.9691,1.925,1.8709,1.8253,1.7952,1.7952,1.9074,2.0646,2.1032,2.2496,2.4554,2.6965,2.7886,2.8533,3.0689,3.1656,3.2254,3.3475,3.4588,3.5769,3.7106,3.781,3.8202,3.8202,3.8202,3.8202,3.8202,3.8202,3.8202,3.8202,3.8202,3.8202,3.8202,3.8202,3.8202,3.8202,3.8202,3.8202,3.8202,3.8202,3.8202,3.8202,3.8296,3.8042,3.7261,3.7952,3.7895,3.6705,3.7217,3.7467,3.7354,3.7097,3.744,3.8391,3.9702,4.0899,4.199,4.2038,4.2502,4.329,4.2875,4.2915,4.329,4.329,4.329,4.329,4.329,4.329,4.329,4.329,4.329,4.329,4.329,4.329,4.329,2.6591,2.6591,2.6591,2.6591,2.6591,2.6591,2.6591,2.6591,2.6591,2.6591,2.6591,2.6591,2.6591,2.6664,2.6691,2.6691,2.7143,2.7431,2.7503,2.7745,2.7878,2.7822,2.7295,2.5634,2.2705,2.256,2.1438,1.9305,1.9305,1.9305,1.9305,1.9305,1.9305,1.9324,1.9732,1.9905,1.9931,2.0351,2.03,1.9882,1.9625,1.9254,1.8738,1.8233,1.7967,1.7933,1.7933,1.9241,2.1064,2.1418,2.2892,2.5,2.747,2.8236,2.8688,3.1008,3.1849,3.2438,3.4506,3.5183,3.5729,3.7524,3.8085,3.8202,3.8202,3.8202,3.8202,3.8202,3.8202,3.8202,3.8202,3.8333,3.8434,3.8434,3.8551,3.8638,3.8638,3.8638,3.8638,3.8638,3.8638,3.8638,3.8638,3.8837,3.8709,3.8083,3.8981,3.9202,3.837,3.8967,3.93,3.9231,3.8887,3.8876,3.9228,4.1067,4.2093,4.2313,4.2975,4.329,4.329,4.329,4.329,4.329,4.329,4.329,4.329,4.329,4.329,4.329,4.329,4.329,4.3319,4.3489,4.3424,4.3319,2.6591,2.6591,2.6591,2.6591,2.6591,2.6591,2.6591,2.6591,2.6591,2.6591,2.6591,2.6591,2.6591,2.6809,2.6962,2.6962,2.7242,2.753,2.7853,2.7879,2.8004,2.8252,2.7461,2.5766,2.3109,2.2689,2.1438,1.9305,1.9305,1.9305,1.9305,1.9305,1.9305,1.9305,1.935,1.935,1.935,1.9402,1.9409,1.935,1.9328,1.9111,1.8782,1.8763,1.8525,1.8262,1.8262,1.961,2.1412,2.1829,2.3326,2.548,2.7895,2.8649,2.9052,3.1092,3.1849,3.2481,3.4692,3.5285,3.5755,3.7701,3.8183,3.8202,3.8202,3.8202,3.8202,3.8202,3.8202,3.8202,3.8202,3.871,3.9131,3.9131,3.9596,3.9958,3.9958,3.9958,3.9958,3.9958,3.9958,3.9958,3.9958,4.0198,4.0407,4.0528,4.0778,4.0648,3.9974,3.9998,3.9911,3.9646,3.9613,4.0292,4.1718,4.19,4.2415,4.321,4.327,4.329,4.329,4.329,4.329,4.329,4.329,4.329,4.329,4.329,4.329,4.329,4.329,4.329,4.3384,4.3997,4.3833,4.3379,2.6591,2.6591,2.6591,2.6591,2.6591,2.6591,2.6591,2.6591,2.6591,2.6591,2.6591,2.6591,2.6591,2.6836,2.6989,2.6989,2.7449,2.7772,2.7879,2.8067,2.8094,2.7936,2.6693,2.5098,2.3143,2.2044,2.0783,1.9305,1.9305,1.9408,1.9598,1.9393,1.9415,1.9598,1.9393,1.9305,1.9305,1.9305,1.9305,1.9305,1.9305,1.9224,1.9093,1.8895,1.8708,1.8699,1.9359,2.0548,2.1935,2.2963,2.4268,2.5858,2.8021,2.8704,2.9096,3.1104,3.1849,3.2341,3.3893,3.4781,3.5608,3.6883,3.7701,3.8202,3.8202,3.8202,3.8318,3.8739,3.8826,3.8928,3.9305,3.9581,3.9755,3.9755,3.9944,4.0104,4.0104,4.0104,4.0104,4.0104,4.0104,4.0104,4.0104,4.0466,4.0714,4.0791,4.1099,4.116,4.092,4.1305,4.1652,4.1924,4.1918,4.1934,4.199,4.2537,4.2975,4.329,4.329,4.329,4.329,4.329,4.329,4.329,4.329,4.329,4.329,4.329,4.329,4.329,4.329,4.3564,4.3908,4.3743,4.3788,4.3908,2.6591,2.6591,2.6591,2.6591,2.6591,2.6591,2.6591,2.6591,2.6591,2.6591,2.6591,2.6591,2.6591,2.6917,2.7098,2.7016,2.7638,2.7987,2.7906,2.8147,2.8191,2.7907,2.6596,2.5085,2.3358,2.206,2.0706,1.9305,1.9408,1.9569,1.9781,1.9561,1.9576,1.9801,1.9452,1.9305,1.9305,1.9305,1.9305,1.9305,1.9305,1.9305,1.9276,1.903,1.9165,1.9565,2.0301,2.1454,2.2798,2.3774,2.4815,2.6052,2.8085,2.9143,2.9909,3.1294,3.1849,3.2201,3.3074,3.4257,3.5528,3.6472,3.7453,3.8202,3.8202,3.8362,3.8638,3.9102,3.9349,3.961,4.0017,4.0263,4.0408,4.0408,4.0583,4.0728,4.0728,4.0728,4.0728,4.0728,4.0728,4.0728,4.0728,4.1125,4.1396,4.1396,4.1766,4.1998,4.1998,4.2436,4.2865,4.329,4.329,4.3016,4.24,4.2996,4.329,4.329,4.329,4.329,4.329,4.329,4.329,4.329,4.329,4.329,4.329,4.329,4.329,4.3319,4.3529,4.3908,4.4267,4.4027,4.4087,4.4222,2.6591,2.6591,2.6591,2.6591,2.6591,2.6591,2.6591,2.6591,2.6591,2.6591,2.6591,2.6591,2.6591,2.7089,2.7287,2.7016,2.7799,2.8184,2.7933,2.8147,2.8291,2.8291,2.7454,2.5992,2.3859,2.2937,2.1438,1.9305,1.9635,1.9796,1.9796,1.9796,1.9789,1.9781,1.9452,1.9305,1.9305,1.9305,1.9305,1.9305,1.9305,1.9305,1.9305,1.9305,1.9983,2.0911,2.0911,2.2282,2.4088,2.4113,2.4815,2.6052,2.8085,3.0079,3.1705,3.1705,3.1849,3.206,3.2322,3.3814,3.5568,3.6629,3.7548,3.8217,3.8217,3.8725,3.9218,3.9218,3.9697,4.0104,4.0104,4.0655,4.1105,4.1105,4.1671,4.2092,4.2092,4.2092,4.2092,4.2092,4.2092,4.2092,4.2092,4.2459,4.2688,4.2688,4.307,4.329,4.329,4.329,4.329,4.329,4.329,4.329,4.329,4.329,4.329,4.329,4.329,4.329,4.329,4.329,4.329,4.329,4.329,4.329,4.329,4.3324,4.3305,4.3364,4.4042,4.4317,4.4386,4.505,4.487,4.4296,2.6591,2.6591,2.6591,2.6591,2.6591,2.6591,2.6591,2.6591,2.6591,2.6591,2.6591,2.6591,2.6591,2.6917,2.7152,2.726,2.7718,2.8077,2.8184,2.8264,2.8291,2.8291,2.7024,2.5505,2.3833,2.2494,2.1094,1.9642,1.9737,2.0023,2.0428,2.0001,1.9906,2.0069,1.952,1.9305,1.9305,1.9305,1.9305,1.9305,1.9305,1.9305,1.9376,2.013,2.0611,2.1107,2.2618,2.3567,2.4221,2.4962,2.543,2.6052,2.8085,3.0079,3.1705,3.1705,3.1981,3.2313,3.2378,3.3906,3.5588,3.5909,3.7455,3.8899,3.8899,3.9378,3.9958,4.0437,4.067,4.0945,4.141,4.1671,4.1802,4.1802,4.1961,4.2092,4.2092,4.2092,4.2092,4.2092,4.2092,4.2092,4.2092,4.2459,4.2688,4.2688,4.307,4.329,4.329,4.329,4.329,4.329,4.329,4.329,4.329,4.329,4.329,4.329,4.329,4.329,4.329,4.329,4.329,4.329,4.329,4.329,4.3334,4.3818,4.3997,4.4072,4.4751,4.5087,4.5165,4.4747,4.4563,4.4444,2.6591,2.6591,2.6591,2.6591,2.6591,2.6591,2.6591,2.6591,2.6591,2.6591,2.6591,2.6591,2.6591,2.6836,2.7071,2.7242,2.7638,2.8014,2.8291,2.8291,2.8291,2.8291,2.7407,2.5921,2.3842,2.2822,2.1491,1.9789,2.0045,2.034,2.0685,2.0325,2.0179,2.0188,1.9696,1.9422,1.9305,1.9305,1.9305,1.9305,1.9305,1.9305,1.9428,2.0483,2.1158,2.176,2.3493,2.4369,2.4839,2.5479,2.6221,2.7163,2.8773,3.0407,3.1705,3.1805,3.2016,3.2279,3.2475,3.4158,3.5893,3.5974,3.7602,3.9262,3.9509,4.0046,4.0612,4.1018,4.1308,4.1613,4.202,4.2092,4.2092,4.2092,4.2092,4.2092,4.2092,4.2092,4.2092,4.2092,4.2092,4.2133,4.2201,4.2178,4.2211,4.2409,4.297,4.329,4.329,4.329,4.329,4.329,4.329,4.329,4.329,4.329,4.329,4.329,4.329,4.329,4.329,4.329,4.329,4.3305,4.3579,4.3698,4.3758,4.4416,4.4706,4.4766,4.5528,4.5721,4.5538,4.504,4.4744,4.4499,2.6591,2.6591,2.66,2.6637,2.6637,2.6655,2.6683,2.6655,2.6655,2.6619,2.6655,2.6655,2.6655,2.6883,2.7045,2.7099,2.7603,2.804,2.8291,2.8291,2.8291,2.8291,2.8357,2.6974,2.399,2.3753,2.2419,1.9877,2.0435,2.0707,2.0736,2.0742,2.0552,2.0223,1.9935,1.9605,1.9305,1.9305,1.9305,1.9305,1.9305,1.935,1.955,2.0629,2.1718,2.2785,2.3865,2.4864,2.5708,2.5805,2.7115,2.8889,2.9886,3.0891,3.1727,3.1937,3.2052,3.2186,3.2655,3.4537,3.6459,3.6687,3.8086,3.9509,4.006,4.0713,4.1192,4.1192,4.1671,4.2092,4.2092,4.2092,4.2092,4.2092,4.2092,4.2092,4.2092,4.2092,4.2092,4.2092,4.2113,4.2195,4.2372,4.1757,4.1519,4.197,4.2754,4.321,4.329,4.329,4.329,4.329,4.329,4.329,4.329,4.3309,4.3309,4.329,4.329,4.329,4.329,4.329,4.3319,4.3409,4.4027,4.4326,4.4451,4.511,4.5394,4.5475,4.6349,4.6237,4.5625,4.569,4.5243,4.4484,2.6591,2.6591,2.671,2.7022,2.7077,2.7113,2.7201,2.7247,2.7069,2.6669,2.6957,2.7247,2.7247,2.7178,2.7345,2.774,2.8045,2.8237,2.8291,2.8291,2.8291,2.8291,2.8751,2.7746,2.5031,2.4425,2.2944,2.0488,2.0591,2.0788,2.1101,2.1107,2.0874,2.0478,1.9996,1.9605,1.9305,1.9305,1.9305,1.9305,1.9305,1.9802,2.068,2.1735,2.281,2.389,2.4971,2.5504,2.583,2.6624,2.7686,2.8889,2.9886,3.0891,3.1727,3.1937,3.2452,3.2992,3.3246,3.5206,3.7288,3.7869,3.9352,4.0713,4.0844,4.1395,4.1874,4.1874,4.199,4.2092,4.2092,4.2092,4.2092,4.2092,4.2092,4.2092,4.2092,4.2092,4.2092,4.2092,4.2242,4.2351,4.2392,4.1931,4.1715,4.197,4.2176,4.2578,4.327,4.329,4.329,4.329,4.329,4.329,4.329,4.3518,4.3518,4.329,4.329,4.329,4.329,4.329,4.3594,4.4087,4.4237,4.4601,4.514,4.5813,4.6076,4.6157,4.705,4.6737,4.5839,4.5915,4.5277,4.4364,2.6894,2.6894,2.7022,2.7417,2.7481,2.7517,2.7578,2.7464,2.7285,2.7023,2.7351,2.7577,2.7577,2.7535,2.7558,2.7687,2.8074,2.8291,2.8291,2.8291,2.8291,2.8291,2.8606,2.8315,2.7368,2.5474,2.3173,2.0467,2.0747,2.0978,2.1203,2.1199,2.1076,2.0847,2.0258,1.9813,1.9525,1.9371,1.9602,2.0053,2.0053,2.0714,2.1785,2.286,2.3608,2.4245,2.5299,2.6004,2.6576,2.7592,2.8588,2.959,3.061,3.1438,3.2147,3.2481,3.3038,3.3648,3.3973,3.5596,3.73,3.7651,3.9322,4.0998,4.1473,4.1845,4.2092,4.2092,4.2092,4.2092,4.2092,4.2092,4.2092,4.2092,4.2092,4.1933,4.1458,4.1395,4.1395,4.1395,4.1583,4.1827,4.2049,4.2301,4.2333,4.2011,4.2395,4.2815,4.327,4.329,4.329,4.329,4.329,4.329,4.329,4.3577,4.3616,4.3483,4.3581,4.3747,4.3963,4.3933,4.4293,4.4974,4.5181,4.5448,4.5843,4.6586,4.6914,4.6986,4.7658,4.7186,4.6103,4.6123,4.5364,4.4392,2.7215,2.7261,2.7426,2.783,2.7903,2.7922,2.7986,2.7815,2.7673,2.7673,2.7853,2.8004,2.8004,2.8008,2.7836,2.7447,2.7946,2.8301,2.8291,2.8291,2.8291,2.8291,2.8308,2.8629,2.937,2.7003,2.3999,2.0357,2.0943,2.1211,2.1211,2.1211,2.1199,2.1171,2.0516,2.0062,1.9767,1.9437,1.9931,2.0911,2.0911,2.1659,2.286,2.3766,2.4221,2.4501,2.5382,2.638,2.7434,2.8475,2.9507,3.0535,3.1621,3.2295,3.2759,3.3212,3.3738,3.4294,3.4727,3.5968,3.7148,3.7148,3.8888,4.0831,4.1654,4.1989,4.2051,4.1877,4.1974,4.2051,4.1877,4.1974,4.2092,4.2092,4.2092,4.1737,4.0731,4.0603,4.0603,4.0603,4.1015,4.1402,4.1729,4.2552,4.2795,4.2052,4.2659,4.315,4.329,4.329,4.329,4.329,4.329,4.3369,4.3469,4.3762,4.3956,4.4057,4.4317,4.4564,4.475,4.482,4.5243,4.5943,4.6272,4.6466,4.6574,4.7349,4.7624,4.7645,4.7996,4.739,4.6273,4.6084,4.5323,4.4527,2.727,2.7481,2.7848,2.8242,2.8315,2.8454,2.8794,2.881,2.8781,2.8781,2.8819,2.8849,2.8849,2.8837,2.8446,2.7483,2.7958,2.8286,2.8301,2.8291,2.8291,2.8291,2.8316,2.8364,2.8466,2.9514,2.7102,2.1052,2.116,2.1211,2.1211,2.1211,2.1199,2.1171,2.0516,2.0062,1.9767,1.9437,1.9931,2.0911,2.0911,2.2114,2.389,2.4038,2.4682,2.5504,2.5659,2.6516,2.7807,2.9003,3.0055,3.1148,3.2635,3.3254,3.3498,3.3808,3.443,3.5093,3.5336,3.6522,3.7691,3.7691,3.9164,4.0646,4.0774,4.1493,4.1856,4.0972,4.1479,4.1835,4.0972,4.1514,4.2092,4.2092,4.2092,4.1737,4.0731,4.0603,4.0603,4.0603,4.1707,4.2328,4.199,4.2093,4.2135,4.2011,4.2114,4.2496,4.327,4.329,4.329,4.329,4.329,4.3579,4.4162,4.4599,4.5021,4.5434,4.6004,4.5804,4.4985,4.5546,4.6183,4.682,4.687,4.7087,4.7439,4.7807,4.7816,4.7585,4.7494,4.6977,4.6186,4.5183,4.4722,4.4676,2.7922,2.7994,2.8271,2.8654,2.8748,2.8812,2.8957,2.9014,2.9014,2.9014,2.9014,2.9014,2.9014,2.9013,2.8454,2.7073,2.7786,2.8304,2.8306,2.831,2.8291,2.8291,2.8301,2.7059,2.4391,2.5099,2.4073,2.1211,2.1211,2.1211,2.1211,2.1211,2.1202,2.1183,2.069,2.0298,2.0003,1.9708,2.0436,2.1785,2.1785,2.3069,2.4986,2.4986,2.5299,2.5747,2.6084,2.7431,2.9131,2.9665,3.0926,3.2393,3.3096,3.364,3.4104,3.436,3.5021,3.5701,3.5936,3.688,3.7808,3.7808,3.921,4.0603,4.0603,4.1374,4.1814,4.0809,4.0937,4.0986,3.9986,4.0187,4.0495,4.0495,4.0495,4.0136,3.9166,3.9033,3.9329,4.0116,4.1686,4.2708,4.2719,4.2734,4.2734,4.2734,4.2734,4.3058,4.3813,4.3863,4.4027,4.4421,4.4421,4.4571,4.4855,4.5319,4.5667,4.5889,4.6747,4.6843,4.63,4.659,4.7093,4.7733,4.7608,4.7649,4.7837,4.807,4.8112,4.7952,4.7614,4.6832,4.5793,4.4922,4.4591,4.4745]}]]